[[{"header":{"parameterUnit":"m.s-1","parameterCategory":1,"la1":30.6,"la2":28.766,"lo1":-90.7593,"lo2":-88.6598,"dy":0.0162,"dx":0.0183,"nx":116,"ny":114,"refTime":"2024-06-01T12:00:00:Z","depth":0,"parameterNumber":2,"parameterNumberName":"U-component_of_WINDS"},"data":[0.0,0.0,0.0,0.0,0.0,0.0,0.0,0.0,0.0,0.0,0.0,0.0,0.0,0.0,0.0,0.0,0.0,0.0,0.0,0.0,0.0,0.0,0.0,0.0,0.0,0.0,0.0,0.0,0.0,0.0,0.0,0.0,0.0,0.0,0.0,0.0,0.0,0.0,0.0,0.0,0.0,0.0,0.0,0.0,0.0,0.0,0.0,0.0,0.0,0.0,0.0,0.0,0.0,0.0,0.0,0.0,0.0,0.0,0.0,0.0,0.0,0.0,0.0,0.0,0.0,0.0,0.0,0.0,0.0,0.0,0.0,0.0,0.0,0.0,0.0,0.0,0.0,0.0,0.0,0.0,0.0,0.0,0.0,0.0,0.0,0.0,0.0,0.0,0.0,0.0,0.0,0.0,0.0,0.0,0.0,0.0,0.0,0.0,0.0,0.0,0.0,0.0,0.0,0.0,0.0,0.0,0.0,0.0,0.0,0.0,0.0,0.0,0.0,0.0,0.0,0.0,0.0,0.0,0.0,0.0,0.0,0.0,0.0,0.0,0.0,0.0,0.0,0.0,0.0,0.0,0.0,0.0,0.0,0.0,0.0,0.0,0.0,0.0,0.0,0.0,0.0,0.0,0.0,0.0,0.0,0.0,0.0,0.0,0.0,0.0,0.0,0.0,0.0,0.0,0.0,0.0,0.0,0.0,0.0,0.0,0.0,0.0,0.0,0.0,0.0,0.0,0.0,0.0,0.0,0.0,0.0,0.0,0.0,0.0,0.0,0.0,0.0,0.0,0.0,0.0,0.0,0.0,0.0,0.0,0.0,0.0,0.0,0.0,0.0,0.0,0.0,0.0,0.0,0.0,0.0,0.0,0.0,0.0,0.0,0.0,0.0,0.0,0.0,0.0,0.0,0.0,0.0,0.0,0.0,0.0,0.0,0.0,0.0,0.0,0.0,0.0,0.0,0.0,0.0,0.0,0.0,0.0,0.0,0.0,0.0,0.0,0.0,0.0,0.0,0.0,0.0,0.0,0.0,0.0,0.0,0.0,0.0,0.0,0.0,0.0,0.0,0.0,0.0,0.0,0.0,0.0,0.0,0.0,0.0,0.0,0.0,0.0,0.0,0.0,0.0,0.0,0.0,0.0,0.0,0.0,0.0,0.0,0.0,0.0,0.0,0.0,0.0,0.0,0.0,0.0,0.0,0.0,0.0,0.0,0.0,0.0,0.0,0.0,0.0,0.0,0.0,0.0,0.0,0.0,0.0,0.0,0.0,0.0,0.0,0.0,0.0,0.0,0.0,0.0,0.0,0.0,0.0,0.0,0.0,0.0,0.0,0.0,0.0,0.0,0.0,0.0,0.0,0.0,0.0,0.0,0.0,0.0,0.0,0.0,0.0,0.0,0.0,0.0,0.0,0.0,0.0,0.0,0.0,0.0,0.0,0.0,0.0,0.0,0.0,0.0,0.0,0.0,0.0,0.0,0.0,0.0,0.0,0.0,0.0,0.0,0.0,0.0,0.0,0.0,0.0,0.0,0.0,0.0,0.0,0.0,0.0,0.0,0.0,0.0,0.0,0.0,0.0,0.0,0.0,0.0,0.0,0.0,0.0,0.0,0.0,0.0,0.0,0.0,0.0,0.0,0.0,0.0,0.0,0.0,0.0,0.0,0.0,0.0,0.0,0.0,0.0,0.0,0.0,0.0,0.0,0.0,0.0,0.0,0.0,0.0,0.0,0.0,0.0,0.0,0.0,0.0,0.0,0.0,0.0,0.0,0.0,0.0,0.0,0.0,0.0,0.0,0.0,0.0,0.0,0.0,0.0,0.0,0.0,0.0,0.0,0.0,0.0,0.0,0.0,0.0,0.0,0.0,0.0,0.0,0.0,0.0,0.0,0.0,0.0,0.0,0.0,0.0,0.0,0.0,0.0,0.0,0.0,0.0,0.0,0.0,0.0,0.0,0.0,0.0,0.0,0.0,0.0,0.0,0.0,0.0,0.0,0.0,0.0,0.0,0.0,0.0,0.0,0.0,0.0,0.0,0.0,0.0,0.0,0.0,0.0,0.0,0.0,0.0,0.0,0.0,0.0,0.0,0.0,0.0,0.0,0.0,0.0,0.0,0.0,0.0,0.0,0.0,0.0,0.0,0.0,0.0,0.0,0.0,0.0,0.0,0.0,0.0,0.0,0.0,0.0,0.0,0.0,0.0,0.0,0.0,0.0,0.0,0.0,0.0,0.0,0.0,0.0,0.0,0.0,0.0,0.0,0.0,0.0,0.0,0.0,0.0,0.0,0.0,0.0,0.0,0.0,0.0,0.0,0.0,0.0,0.0,0.0,0.0,0.0,0.0,0.0,0.0,0.0,0.0,0.0,0.0,0.0,0.0,0.0,0.0,0.0,0.0,0.0,0.0,0.0,0.0,0.0,0.0,0.0,0.0,0.0,0.0,0.0,0.0,0.0,0.0,0.0,0.0,0.0,0.0,0.0,0.0,0.0,0.0,0.0,0.0,0.0,0.0,0.0,0.0,0.0,0.0,0.0,0.0,0.0,0.0,0.0,0.0,0.0,0.0,0.0,0.0,0.0,0.0,0.0,0.0,0.0,0.0,0.0,0.0,0.0,0.0,0.0,0.0,0.0,0.0,0.0,0.0,0.0,0.0,0.0,0.0,0.0,0.0,0.0,0.0,0.0,0.0,0.0,0.0,0.0,0.0,0.0,0.0,0.0,0.0,0.0,0.0,0.0,0.0,0.0,0.0,0.0,0.0,0.0,0.0,0.0,0.0,0.0,0.0,0.0,0.0,0.0,0.0,0.0,0.0,0.0,0.0,0.0,0.0,0.0,0.0,0.0,0.0,0.0,0.0,0.0,0.0,0.0,0.0,0.0,0.0,0.0,0.0,0.0,0.0,0.0,0.0,0.0,0.0,0.0,0.0,0.0,0.0,0.0,0.0,0.0,0.0,0.0,0.0,0.0,0.0,0.0,0.0,0.0,0.0,0.0,0.0,0.0,0.0,0.0,0.0,0.0,0.0,0.0,0.0,0.0,0.0,0.0,0.0,0.0,0.0,0.0,0.0,0.0,0.0,0.0,0.0,0.0,0.0,0.0,0.0,0.0,0.0,0.0,0.0,0.0,0.0,0.0,0.0,0.0,0.0,0.0,0.0,0.0,0.0,0.0,0.0,0.0,0.0,0.0,0.0,0.0,0.0,0.0,0.0,0.0,0.0,0.0,0.0,0.0,0.0,0.0,0.0,0.0,0.0,0.0,0.0,0.0,0.0,0.0,0.0,0.0,0.0,0.0,0.0,0.0,0.0,0.0,0.0,0.0,0.0,0.0,0.0,0.0,0.0,0.0,0.0,0.0,0.0,0.0,0.0,0.0,0.0,0.0,0.0,0.0,0.0,0.0,0.0,0.0,0.0,0.0,0.0,0.0,0.0,0.0,0.0,0.0,0.0,0.0,0.0,0.0,0.0,0.0,0.0,0.0,0.0,0.0,0.0,0.0,0.0,0.0,0.0,0.0,0.0,0.0,0.0,0.0,0.0,0.0,0.0,0.0,0.0,0.0,0.0,0.0,0.0,0.0,0.0,0.0,0.0,0.0,0.0,0.0,0.0,0.0,0.0,0.0,0.0,0.0,0.0,0.0,0.0,0.0,0.0,0.0,0.0,0.0,0.0,0.0,0.0,0.0,0.0,0.0,0.0,0.0,0.0,0.0,0.0,0.0,0.0,0.0,0.0,0.0,0.0,0.0,0.0,0.0,0.0,0.0,0.0,0.0,0.0,0.0,0.0,0.0,0.0,0.0,0.0,0.0,0.0,0.0,0.0,0.0,0.0,0.0,0.0,0.0,0.0,0.0,0.0,0.0,0.0,0.0,0.0,0.0,0.0,0.0,0.0,0.0,0.0,0.0,0.0,0.0,0.0,0.0,0.0,0.0,0.0,0.0,0.0,0.0,0.0,0.0,0.0,0.0,0.0,0.0,0.0,0.0,0.0,0.0,0.0,0.0,0.0,0.0,0.0,0.0,0.0,0.0,0.0,0.0,0.0,0.0,0.0,0.0,0.0,0.0,0.0,0.0,0.0,0.0,0.0,0.0,0.0,0.0,0.0,0.0,0.0,0.0,0.0,0.0,0.0,0.0,0.0,0.0,0.0,0.0,0.0,0.0,0.0,0.0,0.0,0.0,0.0,0.0,0.0,0.0,0.0,0.0,0.0,0.0,0.0,0.0,0.0,0.0,0.0,0.0,0.0,0.0,0.0,0.0,0.0,0.0,0.0,0.0,0.0,0.0,0.0,0.0,0.0,0.0,0.0,0.0,0.0,0.0,0.0,0.0,0.0,0.0,0.0,0.0,0.0,0.0,0.0,0.0,0.0,0.0,0.0,0.0,0.0,0.0,0.0,0.0,0.0,0.0,0.0,0.0,0.0,0.0,0.0,0.0,0.0,0.0,0.0,0.0,0.0,0.0,0.0,0.0,0.0,0.0,0.0,0.0,0.0,0.0,0.0,0.0,0.0,0.0,0.0,0.0,0.0,0.0,0.0,0.0,0.0,0.0,0.0,0.0,0.0,0.0,0.0,0.0,0.0,0.0,0.0,0.0,0.0,0.0,0.0,0.0,0.0,0.0,0.0,0.0,0.0,0.0,0.0,0.0,0.0,0.0,0.0,0.0,0.0,0.0,0.0,0.0,0.0,0.0,0.0,0.0,0.0,0.0,0.0,0.0,0.0,0.0,0.0,0.0,0.0,0.0,0.0,0.0,0.0,0.0,0.0,0.0,0.0,0.0,0.0,0.0,0.0,0.0,0.0,0.0,0.0,0.0,0.0,0.0,0.0,0.0,0.0,0.0,0.0,0.0,0.0,0.0,0.0,0.0,0.0,0.0,0.0,0.0,0.0,0.0,0.0,0.0,0.0,0.0,0.0,0.0,0.0,0.0,0.0,0.0,0.0,0.0,0.0,0.0,0.0,0.0,0.0,0.0,0.0,0.0,0.0,0.0,0.0,0.0,0.0,0.0,0.0,0.0,0.0,0.0,0.0,0.0,0.0,0.0,0.0,0.0,0.0,0.0,0.0,0.0,0.0,0.0,0.0,0.0,0.0,0.0,0.0,0.0,0.0,0.0,0.0,0.0,0.0,0.0,0.0,0.0,0.0,0.0,0.0,0.0,0.0,0.0,0.0,0.0,0.0,0.0,0.0,0.0,0.0,0.0,0.0,0.0,0.0,0.0,0.0,0.0,0.0,0.0,0.0,0.0,0.0,0.0,0.0,0.0,0.0,0.0,0.0,0.0,0.0,0.0,0.0,0.0,0.0,0.0,0.0,0.0,0.0,0.0,0.0,0.0,0.0,0.0,0.0,0.0,0.0,0.0,0.0,0.0,0.0,0.0,0.0,0.0,0.0,0.0,0.0,0.0,0.0,0.0,0.0,0.0,0.0,0.0,0.0,0.0,0.0,0.0,0.0,0.0,0.0,0.0,0.0,0.0,0.0,0.0,0.0,0.0,0.0,0.0,0.0,0.0,0.0,0.0,0.0,0.0,0.0,0.0,0.0,0.0,0.0,0.0,0.0,0.0,0.0,0.0,0.0,0.0,0.0,0.0,0.0,0.0,0.0,0.0,0.0,0.0,0.0,0.0,0.0,0.0,0.0,0.0,0.0,0.0,0.0,0.0,0.0,0.0,0.0,0.0,0.0,0.0,0.0,0.0,0.0,0.0,0.0,0.0,0.0,0.0,0.0,0.0,0.0,0.0,0.0,0.0,0.0,0.0,0.0,0.0,0.0,0.0,0.0,0.0,0.0,0.0,0.0,0.0,0.0,0.0,0.0,0.0,0.0,0.0,0.0,0.0,0.0,0.0,0.0,0.0,0.0,0.0,0.0,0.0,0.0,0.0,0.0,0.0,0.0,0.0,0.0,0.0,0.0,0.0,0.0,0.0,0.0,0.0,0.0,0.0,0.0,0.0,0.0,0.0,0.0,0.0,0.0,0.0,0.0,0.0,0.0,0.0,0.0,0.0,0.0,0.0,0.0,0.0,0.0,0.0,0.0,0.0,0.0,0.0,0.0,0.0,0.0,0.0,0.0,0.0,0.0,0.0,0.0,0.0,0.0,-4.0293,0.0,0.0,0.0,0.0,0.0,0.0,0.0,0.0,0.0,0.0,0.0,0.0,0.0,0.0,0.0,0.0,0.0,0.0,0.0,0.0,0.0,0.0,0.0,0.0,-3.775,-3.9195,-4.0893,-4.1049,-4.1244,-4.1693,0.0,0.0,0.0,0.0,0.0,-3.7282,-3.7243,-3.7438,-3.7827,-3.7827,-3.8277,-3.9117,-3.8668,-3.7321,-3.5309,0.0,0.0,0.0,0.0,0.0,0.0,0.0,0.0,0.0,0.0,0.0,0.0,0.0,0.0,0.0,0.0,0.0,0.0,0.0,0.0,0.0,0.0,0.0,0.0,0.0,0.0,0.0,0.0,0.0,0.0,0.0,0.0,0.0,0.0,0.0,0.0,0.0,0.0,0.0,0.0,0.0,0.0,0.0,0.0,0.0,0.0,0.0,0.0,0.0,0.0,0.0,0.0,0.0,0.0,0.0,0.0,0.0,0.0,0.0,0.0,0.0,0.0,0.0,0.0,0.0,0.0,0.0,0.0,0.0,0.0,0.0,-4.1582,0.0,0.0,0.0,0.0,0.0,0.0,0.0,0.0,0.0,0.0,0.0,0.0,0.0,0.0,0.0,0.0,0.0,0.0,0.0,0.0,0.0,-3.445,-3.7223,-3.8882,-4.0561,-4.2454,-4.263,-4.2552,-4.2415,-4.1732,0.0,0.0,0.0,-3.9644,-3.8825,-3.8962,-3.9352,-4.0034,-4.0327,-4.0854,-4.1558,-4.1402,-3.9897,-3.7319,-3.6871,0.0,0.0,0.0,0.0,0.0,0.0,0.0,0.0,0.0,0.0,0.0,0.0,0.0,0.0,0.0,0.0,0.0,0.0,0.0,0.0,0.0,0.0,0.0,0.0,0.0,0.0,0.0,0.0,0.0,0.0,0.0,0.0,0.0,0.0,0.0,0.0,0.0,0.0,0.0,0.0,0.0,0.0,0.0,0.0,0.0,0.0,0.0,0.0,0.0,0.0,0.0,0.0,0.0,0.0,0.0,0.0,0.0,0.0,0.0,0.0,0.0,0.0,0.0,0.0,-4.7994,-4.7161,-4.7184,-4.7499,-4.7871,-4.5,-4.4316,-4.5058,0.0,0.0,0.0,0.0,0.0,0.0,0.0,0.0,0.0,0.0,0.0,0.0,0.0,0.0,0.0,0.0,0.0,0.0,0.0,0.0,-3.4686,-3.8064,-3.9253,-4.0815,-4.3313,-4.3528,-4.3216,-4.2454,-4.2298,0.0,0.0,-4.0934,-4.0522,-3.9663,-4.0387,-4.0816,-4.0934,-4.2437,-4.3235,-4.3334,-4.2572,-4.2396,-4.2591,-4.0307,-3.9234,-3.898,0.0,0.0,0.0,0.0,0.0,0.0,0.0,0.0,0.0,0.0,0.0,0.0,0.0,0.0,0.0,0.0,0.0,0.0,0.0,0.0,0.0,0.0,0.0,0.0,0.0,0.0,0.0,0.0,0.0,0.0,0.0,0.0,0.0,0.0,0.0,0.0,0.0,0.0,0.0,0.0,0.0,-4.4124,-4.4998,0.0,0.0,0.0,0.0,0.0,0.0,0.0,0.0,0.0,0.0,0.0,0.0,0.0,0.0,-4.9138,-5.0751,-5.1256,-5.065,-5.1463,-5.1427,-5.0636,-5.0709,-5.0388,-4.9744,-4.9355,0.0,-4.6035,-4.4941,0.0,0.0,0.0,0.0,0.0,0.0,0.0,0.0,0.0,0.0,0.0,0.0,0.0,0.0,0.0,0.0,0.0,0.0,0.0,0.0,0.0,-4.019,-4.2123,-4.425,-4.4426,-4.427,-4.3899,-4.2942,-4.224,-4.1849,-4.1363,-4.1147,-4.1264,-4.1635,-4.2318,-4.3294,-4.4543,-4.5168,-4.5148,-4.4777,-4.4797,-4.509,-4.345,-4.1908,-4.0424,-3.8824,0.0,0.0,0.0,0.0,0.0,0.0,0.0,0.0,0.0,0.0,0.0,0.0,0.0,0.0,0.0,0.0,0.0,0.0,0.0,0.0,0.0,0.0,0.0,0.0,0.0,0.0,0.0,0.0,0.0,0.0,0.0,0.0,0.0,0.0,0.0,0.0,0.0,0.0,0.0,-4.4605,-4.6413,-4.6336,-4.6836,-4.6605,0.0,0.0,0.0,0.0,0.0,0.0,0.0,0.0,0.0,-4.9065,-5.0769,-5.1543,-5.1203,-5.2944,-5.3491,-5.2818,-5.3167,-5.3152,-5.2811,-5.2854,-5.2396,-5.156,-5.1581,-5.0429,-4.8359,-4.6484,-4.5078,-4.3926,0.0,0.0,0.0,0.0,0.0,-4.2051,0.0,0.0,0.0,0.0,0.0,0.0,0.0,0.0,0.0,0.0,0.0,0.0,-3.9313,-4.1264,-4.3196,-4.5168,-4.5324,-4.5246,-4.501,-4.3587,-4.263,-4.2415,-4.1576,-4.1518,-4.2376,-4.2845,-4.3801,-4.5324,-4.6202,-4.6632,-4.6632,-4.6632,-4.6632,-4.6593,-4.5714,-4.425,-4.2339,-4.103,-3.8863,-3.6226,0.0,0.0,0.0,0.0,0.0,0.0,0.0,0.0,0.0,0.0,0.0,0.0,0.0,0.0,0.0,0.0,0.0,0.0,0.0,0.0,0.0,0.0,0.0,0.0,0.0,0.0,0.0,0.0,0.0,0.0,0.0,0.0,0.0,0.0,0.0,0.0,0.0,-4.6836,-4.8298,-4.7913,-4.8971,-4.899,0.0,0.0,0.0,0.0,0.0,0.0,-5.0933,-5.1433,-5.1866,-5.2309,-5.3627,-5.4192,-5.3947,-5.5321,-5.567,-5.4966,-5.4966,-5.4853,-5.4665,-5.4667,-5.4186,-5.3354,-5.3121,-5.2205,-5.0664,-4.8281,-4.6894,-4.6172,-4.4863,-4.4082,-4.3691,-4.3691,-4.3848,-4.4121,0.0,0.0,0.0,0.0,0.0,0.0,0.0,0.0,0.0,0.0,0.0,-3.7593,-4.1752,-4.2318,-4.345,-4.6007,-4.6222,-4.587,-4.5049,-4.4133,-4.3274,-4.2435,-4.1576,-4.1518,-4.2376,-4.4014,-4.5324,-4.6222,-4.712,-4.7528,-4.7528,-4.7528,-4.7528,-4.7508,-4.6612,-4.6163,-4.587,-4.3333,-4.1693,-4.0563,-3.8081,0.0,0.0,0.0,0.0,0.0,0.0,0.0,0.0,0.0,0.0,0.0,0.0,0.0,0.0,0.0,0.0,0.0,0.0,0.0,0.0,0.0,0.0,0.0,0.0,0.0,0.0,0.0,0.0,0.0,0.0,0.0,0.0,0.0,0.0,0.0,0.0,0.0,0.0,-5.0423,-5.0577,0.0,0.0,0.0,0.0,-5.276,-5.2154,-5.2779,-5.5241,-5.4703,-5.503,-5.6637,-5.6763,-5.7313,-5.8363,-5.8474,-5.8208,-5.7601,-5.7601,-5.7211,-5.6469,-5.646,-5.5996,-5.5118,-5.4286,-5.3413,-5.2439,-5.0703,-4.8535,-4.6289,-4.6191,-4.5156,-4.3691,-4.3691,-4.4219,-4.4941,0.0,0.0,0.0,0.0,0.0,-3.0898,-3.0898,-3.2068,-3.3158,-3.3783,-3.6547,-3.9234,-4.1342,-4.3079,-4.468,-4.6163,-4.63,-4.6163,-4.5851,-4.3977,-4.3235,-4.4034,-4.2162,-4.2025,-4.4034,-4.5226,-4.6261,-4.7139,-4.745,-4.7859,-4.8369,-4.8369,-4.8096,-4.7586,-4.7276,-4.6827,-4.6202,-4.4719,-4.2923,-4.0973,-3.9507,-3.7686,0.0,0.0,0.0,0.0,0.0,0.0,0.0,0.0,0.0,0.0,0.0,0.0,0.0,0.0,0.0,0.0,0.0,0.0,0.0,0.0,0.0,0.0,0.0,0.0,0.0,0.0,0.0,0.0,0.0,0.0,0.0,0.0,0.0,0.0,0.0,0.0,0.0,-5.2972,-5.4098,0.0,-5.3972,-5.3914,-5.4164,-5.4761,-5.503,-5.5568,-5.6503,-5.6799,-5.7223,-5.7819,-5.8469,-5.8766,-5.8693,-5.9346,-5.9044,-5.7797,-5.7797,-5.7387,-5.6606,-5.661,-5.6126,-5.5253,-5.4379,-5.3505,-5.2612,-5.1444,-5.0117,-4.8691,-4.7578,-4.6758,-4.6133,-4.5586,-4.5566,-4.584,0.0,0.0,0.0,0.0,-3.0312,-3.0996,-3.1289,-3.2518,-3.3725,-3.4603,-3.768,-4.0366,-4.1812,-4.3782,-4.5343,-4.6222,-4.63,-4.63,-4.63,-4.4406,-4.378,-4.4951,-4.3333,-4.3352,-4.5382,-4.63,-4.7159,-4.7998,-4.8308,-4.8718,-4.9247,-4.9247,-4.8798,-4.7998,-4.7723,-4.712,-4.6261,-4.5675,-4.427,-4.2337,-4.1479,-4.0093,-3.8352,0.0,0.0,0.0,0.0,0.0,0.0,0.0,0.0,0.0,0.0,0.0,0.0,0.0,0.0,0.0,0.0,0.0,0.0,0.0,0.0,0.0,0.0,0.0,0.0,0.0,0.0,0.0,0.0,0.0,0.0,0.0,0.0,0.0,0.0,0.0,-5.3606,-5.4761,-5.6395,-5.7088,-5.6222,-5.6395,-5.6684,-5.6953,-5.7511,-5.7973,-5.8272,-5.8819,-5.9146,-5.9146,-5.98,-5.9946,-5.9555,-6.0207,-5.977,-5.8246,-5.8246,-5.766,-5.6606,-5.6606,-5.6276,-5.5698,-5.482,-5.3948,-5.3076,-5.22,-5.1345,-5.0469,-4.9023,-4.8125,-4.7539,-4.6953,-4.6543,-4.6308,0.0,0.0,0.0,-2.9746,-3.0312,-3.1191,-3.207,-3.2908,-3.437,-3.6966,-3.8812,-4.0854,-4.3413,-4.4504,-4.5382,-4.6222,-4.63,-4.63,-4.63,-4.546,-4.4951,-4.4951,-4.5049,-4.548,-4.6319,-4.7198,-4.8037,-4.8837,-4.9694,-5.0104,-5.0143,-5.0143,-4.9655,-4.8779,-4.7998,-4.7139,-4.63,-4.63,-4.5812,-4.4951,-4.4094,-4.2728,-4.1104,0.0,0.0,0.0,0.0,0.0,0.0,0.0,0.0,0.0,0.0,0.0,0.0,0.0,0.0,0.0,0.0,0.0,0.0,0.0,0.0,0.0,0.0,0.0,0.0,0.0,0.0,0.0,0.0,0.0,0.0,0.0,0.0,0.0,-4.9462,-5.3145,-5.5761,-5.5799,-5.7338,-5.805,-5.7195,-5.7877,-5.8704,-5.9473,-5.955,-5.9915,-6.0742,-6.08,-6.08,-6.08,-6.08,-6.0933,-6.1206,-6.1206,-6.05,-5.9141,-5.9102,-5.8246,-5.6645,-5.6606,-5.6606,-5.6547,-5.5689,-5.4816,-5.3927,-5.3068,-5.2197,-5.1327,-5.0508,-4.9141,-4.7637,-4.7617,-4.7051,-4.6308,0.0,0.0,-2.9883,-2.9648,-3.0312,-3.1191,-3.207,-3.3417,-3.5056,-3.7044,-3.9851,-4.2208,-4.3549,-4.5031,-4.6046,-4.628,-4.63,-4.63,-4.63,-4.4894,-4.4055,-4.4055,-4.587,-4.7001,-4.7237,-4.8057,-4.8896,-4.9733,-4.9987,-5.0416,-5.1043,-5.1043,-5.0243,-4.8798,-4.8564,-4.7666,-4.63,-4.63,-4.616,-4.5878,-4.4981,-4.4331,-4.3697,0.0,0.0,0.0,0.0,0.0,0.0,0.0,0.0,0.0,0.0,0.0,0.0,0.0,0.0,0.0,0.0,0.0,0.0,0.0,0.0,0.0,0.0,0.0,0.0,0.0,0.0,0.0,0.0,0.0,0.0,0.0,0.0,-5.2967,-5.3857,-5.5521,-5.7088,-5.8319,-5.9435,-6.0012,-5.9781,-5.9973,-6.0204,-6.0435,-6.0435,-6.055,-6.0781,-6.08,-6.08,-6.08,-6.08,-6.0933,-6.1206,-6.1206,-6.0811,-6.0022,-5.9397,-5.8538,-5.7445,-5.6879,-5.6606,-5.6547,-5.5689,-5.4812,-5.3936,-5.3064,-5.2192,-5.1318,-5.0505,-4.9511,-4.8476,-4.7832,-4.7051,-4.6308,0.0,-2.8945,-3.0137,-3.0137,-3.0566,-3.1309,-3.2519,-3.3535,-3.5174,-3.8023,-4.04,-4.2465,-4.4061,-4.515,-4.5753,-4.5753,-4.5753,-4.5597,-4.5226,-4.4953,-4.4953,-4.5324,-4.712,-4.8269,-4.864,-4.9109,-4.9774,-5.0631,-5.0631,-5.0906,-5.1394,-5.1394,-5.0653,-4.9325,-4.8954,-4.8076,-4.6827,-4.6456,-4.6294,-4.6264,-4.5757,-4.5494,-4.5345,-4.4365,-4.3724,-4.3133,-4.1583,-4.0857,-4.0461,-3.943,0.0,0.0,0.0,0.0,0.0,0.0,0.0,0.0,0.0,0.0,0.0,0.0,0.0,0.0,0.0,0.0,0.0,0.0,0.0,0.0,0.0,0.0,0.0,0.0,-5.3023,-5.545,-5.7024,-5.7712,-5.8531,-5.9896,-6.0492,-6.08,-6.08,-6.08,-6.08,-6.08,-6.08,-6.08,-6.08,-6.08,-6.08,-6.08,-6.08,-6.0901,-6.11,-6.1177,-6.0906,-6.0314,-5.9483,-5.8636,-5.7777,-5.6977,-5.6606,0.0,-5.6059,-5.5142,-5.3951,-5.345,-5.2518,0.0,0.0,0.0,0.0,0.0,-4.6738,-4.6308,0.0,-2.9766,-3.0898,-3.0898,-3.0898,-3.1465,-3.3144,-3.3476,-3.5077,-3.9334,-4.0598,-4.2056,-4.4574,-4.4841,-4.4894,-4.499,-4.499,-4.4719,-4.4036,-4.5539,-4.6788,-4.7567,-4.8466,-4.9306,-5.0085,-5.0202,-5.0631,-5.1394,-5.1394,-5.1394,-5.1394,-5.1394,-5.0926,-5.0065,-4.9286,-4.8505,-4.7684,-4.6905,-4.6528,-4.644,-4.644,-4.6336,-4.6206,-4.6192,-4.573,-4.5028,-4.4794,-4.3839,-4.2622,-4.2391,0.0,0.0,0.0,0.0,0.0,0.0,0.0,0.0,0.0,0.0,0.0,0.0,0.0,0.0,0.0,0.0,0.0,0.0,0.0,0.0,0.0,0.0,0.0,0.0,-5.5346,-5.6844,-5.9206,-5.9611,-5.9935,-6.0704,-6.08,-6.08,-6.08,-6.08,-6.08,-6.08,-6.08,-6.08,-6.08,0.0,0.0,0.0,0.0,-6.0856,-6.0993,-6.1124,-6.0909,-6.0336,-5.9505,-5.8695,-5.7914,-5.7016,-5.6606,-5.6606,-5.6606,-5.5611,-5.401,-5.401,-5.2962,-5.1391,-5.1305,-5.0291,-4.8709,-4.7051,-4.6387,0.0,0.0,-3.0195,-3.0898,-3.0898,-3.0898,-3.1465,-3.3144,-3.4004,-3.5761,-3.9412,-4.06,-4.1825,-4.3734,-4.3943,-4.4231,-4.4932,-4.499,-4.5226,-4.5753,-4.6768,-4.7411,-4.7586,-4.9031,-4.9928,-5.0104,-5.0789,-5.1238,-5.1394,-5.1394,-5.1394,-5.1394,-5.1394,-5.0926,-5.0085,-4.9928,-4.9364,-4.8564,-4.8388,-4.7914,-4.7279,-4.7279,-4.6843,-4.6206,-4.6203,-4.6108,-4.5855,-4.5117,-4.5094,-4.5328,-4.4579,-4.4237,-4.3941,-4.3066,-4.168,0.0,0.0,0.0,0.0,0.0,0.0,0.0,0.0,0.0,0.0,0.0,0.0,0.0,0.0,0.0,0.0,0.0,0.0,0.0,-5.5714,-5.7557,-5.9031,-6.0263,-6.0515,-6.0608,-6.0781,-6.08,-6.08,-6.08,-6.08,-6.08,-6.08,-6.08,-6.08,-6.08,-6.08,0.0,-6.08,-6.08,-6.0856,-6.0993,-6.1124,-6.122,-6.1237,0.0,0.0,-5.8792,-5.7289,-5.6606,-5.6606,-5.6606,-5.5611,-5.401,-5.401,-5.2962,-5.1333,-5.0699,-4.9803,-4.8768,-4.7734,-4.6894,-4.6308,-3.0156,-3.0605,-3.0898,-3.0898,-3.1269,-3.1973,-3.3203,-3.4141,-3.5781,-3.8847,-3.9607,-4.0502,-4.2219,-4.239,-4.2562,-4.301,-4.3458,-4.4626,-4.6807,-4.7352,-4.7977,-4.8816,-5.0065,-5.0752,-5.0757,-5.1182,-5.1396,-5.1402,-5.1396,-5.1394,-5.1394,-5.1394,-5.118,-5.0729,-5.028,-4.985,-4.9423,-4.8993,-4.8326,-4.7559,-4.7559,-4.703,-4.6245,-4.6211,-4.6211,-4.6197,-4.5724,-4.5841,-4.6177,-4.5713,-4.5554,-4.5474,-4.5046,-4.3987,-4.2813,0.0,0.0,0.0,0.0,0.0,0.0,0.0,0.0,0.0,0.0,0.0,0.0,0.0,0.0,-4.9984,0.0,0.0,-5.4938,-5.75,-5.8681,-5.9619,-6.052,-6.0741,-6.08,-6.08,-6.08,-6.08,-6.08,-6.08,-6.08,-6.08,-6.08,-6.08,-6.08,-6.08,-6.08,-6.08,-6.08,-6.0856,-6.0993,-6.1124,-6.1298,-6.1471,-5.9875,-5.9102,-5.9044,-5.7367,-5.6606,-5.6606,-5.6606,-5.5611,-5.3932,-5.3053,-5.2198,-5.1325,-5.0477,-4.9643,-4.8785,-4.7929,-4.705,-4.6308,-3.0762,-3.0898,-3.0957,-3.1113,-3.1738,-3.2539,-3.3496,-3.4258,-3.5586,-3.8027,-3.8358,-3.8924,-4.0447,-4.0601,-4.0812,-4.1319,-4.2156,-4.4063,-4.7373,-4.7742,-4.8505,-5.003,-5.0928,-5.1402,-5.1391,-5.1403,-5.1403,-5.1409,-5.1402,-5.1396,-5.1394,-5.1394,-5.1394,-5.1375,-5.067,-5.0358,-5.0319,-4.9599,-4.874,-4.782,-4.782,-4.7217,-4.6298,-4.6243,-4.624,-4.6286,-4.6238,-4.624,-4.6286,-4.6236,-4.6211,-4.6228,-4.6195,-4.5604,-4.4899,-4.4904,-4.3669,0.0,0.0,0.0,0.0,0.0,0.0,0.0,0.0,-4.8151,-4.8748,-5.1189,-5.2312,-5.356,-5.5773,-5.6156,-5.6836,-5.9027,-5.9459,-5.9786,-6.0521,-6.0717,-6.0788,-6.08,-6.08,-6.08,-6.08,-6.08,-6.08,-6.08,-6.08,-6.08,-6.08,-6.08,-6.08,-6.08,-6.08,-6.0853,-6.0954,-6.1095,-6.1259,-6.1422,-5.9817,-5.9073,-5.9044,-5.7367,-5.6606,-5.6586,-5.6235,-5.5298,-5.3854,-5.2117,-5.1394,-5.1316,-5.0447,-4.9594,-4.8778,-4.7925,-4.7048,-4.6307,0.0,-3.0898,-3.1133,-3.1914,-3.2148,-3.2734,-3.4316,-3.4648,-3.5351,-3.7207,-3.7441,-3.781,-3.8768,-3.8882,-3.9796,-4.2055,-4.305,-4.4707,-4.7412,-4.8271,-4.9095,-5.0059,-5.0939,-5.1391,-5.1397,-5.1396,-5.1394,-5.1409,-5.1408,-5.1403,-5.1394,-5.1394,-5.1394,-5.1394,-5.1297,-5.1258,-5.1258,-5.1141,-5.0165,-4.8662,-4.8662,-4.7725,-4.63,-4.6298,-4.6298,-4.6298,-4.6298,-4.6298,-4.6298,-4.6286,-4.6284,-4.6282,-4.6228,-4.5601,-4.4897,-4.4902,-4.3707,-4.2532,-4.3254,-4.3445,-4.4069,-4.6585,-4.6621,-4.7081,0.0,-5.1891,-5.2297,-5.4096,-5.5453,-5.6667,-5.7734,-5.8336,-5.9046,-6.0147,-6.0365,-6.0437,-6.066,-6.0697,-6.0722,-6.08,-6.08,-6.08,-6.08,-6.08,-6.08,-6.08,-6.08,-6.08,-6.08,-6.08,-6.08,-6.08,-6.08,-6.0812,-6.0827,-6.0954,-6.1087,-6.1214,-5.9659,-5.899,-5.9044,-5.7367,-5.6606,-5.6508,-5.4966,-5.4186,-5.3854,-5.2117,-5.1394,-5.1316,-5.0438,-4.9561,-4.8706,-4.7901,-4.7047,-4.6307,0.0,-3.0898,-3.1328,-3.2656,-3.2891,-3.3301,-3.4512,-3.5137,-3.5723,-3.6445,-3.6543,-3.6679,-3.705,-3.7987,-3.9822,-4.2885,-4.349,-4.4815,-4.7426,-4.8383,-4.9224,-5.0066,-5.0926,-5.1398,-5.1402,-5.14,-5.1399,-5.14,-5.1394,-5.1408,-5.1403,-5.1398,-5.1394,-5.1394,-5.1394,-5.1394,-5.1394,-5.1394,-5.0399,-4.8798,-4.8798,-4.7803,-4.63,-4.63,-4.63,-4.63,-4.63,-4.63,0.0,-4.6296,-4.5962,-4.5629,-4.6106,-4.5316,-4.439,-4.537,-4.4793,-4.4043,-4.4874,-4.5475,-4.6371,-4.8436,-4.906,-4.9898,-5.2723,-5.3316,-5.3891,-5.6076,-5.7287,-5.8322,-5.9601,-5.9946,-6.0112,0.0,-6.0472,-6.0525,-6.0578,-6.0648,-6.0505,-6.003,-6.0469,-6.08,-6.08,-6.08,-6.08,-6.08,-6.08,-6.08,-6.08,-6.08,-6.08,-6.08,-6.08,-6.0831,-6.0922,-6.1055,-6.1211,-6.1365,-5.9771,-5.9042,-5.9044,-5.7367,-5.6606,-5.6508,-5.4752,-5.401,-5.3854,-5.2117,-5.1394,-5.1258,-4.9872,-4.9111,-4.8702,-4.7894,-4.7043,-4.6305,0.0,-3.1269,-3.1797,-3.3476,-3.3769,-3.4043,-3.4922,-3.5586,-3.5996,-3.5996,-3.5996,-3.6094,-3.6328,-3.7695,-3.9785,-4.2733,-4.3201,-4.445,-4.7062,-4.8058,-4.9016,-5.0072,-5.0736,-5.1168,-5.1405,-5.1404,-5.1403,-5.1405,-5.1397,-5.1391,-5.1409,-5.14,-5.1394,-5.1394,-5.1394,-5.1394,-5.1375,-5.1141,-5.0165,-4.8779,-4.8564,-4.7608,-4.6261,-4.6027,-4.6085,-4.6261,-4.6027,-4.5948,-4.587,-4.5382,-4.4953,-4.4717,-4.51,-4.468,-4.4297,-4.5493,-4.5553,-4.54,-4.6024,-4.7014,-4.8261,-4.9937,-5.1183,-5.2411,-5.3927,-5.4613,-5.547,-5.7321,-5.8223,-5.9098,-6.0461,-6.0517,-6.0376,-6.0475,-6.0466,-6.0472,-6.0499,-6.0604,-6.0462,-5.9821,-6.0361,-6.08,-6.08,-6.08,-6.08,-6.08,-6.08,-6.08,-6.08,-6.08,-6.08,-6.08,-6.08,-6.0853,-6.0934,-6.1079,-6.1239,-6.1412,-5.9806,-5.907,-5.9044,-5.7367,-5.6606,-5.6508,-5.4752,-5.401,-5.3854,-5.2117,-5.1394,-5.1258,-4.9755,-4.9013,-4.8701,-4.7907,-4.7055,-4.6301,0.0,0.0,-3.2695,-3.4375,-3.4668,-3.4941,-3.582,-3.5976,-3.5996,-3.5996,-3.5996,-3.6328,-3.7168,-3.8066,-3.9297,-4.1033,-4.1951,-4.3551,-4.6164,-4.716,-4.8393,-5.0115,-5.0213,-5.0605,-5.1387,-5.1406,-5.1406,-5.1405,-5.1401,-5.1395,-5.1409,-5.14,-5.1394,-5.1394,-5.1394,-5.1394,-5.1336,-5.0494,-4.9616,-4.872,-4.7959,-4.71,-4.6202,-4.5363,-4.5558,-4.6183,-4.5343,-4.5049,-4.4776,-4.3099,-4.306,-4.3606,-4.2786,-4.3636,-4.4953,-4.4938,-4.552,-4.618,-4.6199,-4.7443,-4.9157,-5.0833,-5.2547,-5.4063,-5.4959,-5.6425,-5.7617,-5.7676,-5.8223,-5.8978,-5.9878,-5.9708,-5.97,-6.0558,-6.052,-6.0431,-6.0485,-6.0565,-6.061,-6.0666,-6.0746,-6.08,0.0,-6.08,-6.08,-6.08,-6.08,-6.08,-6.08,-6.08,-6.08,-6.08,-6.08,-6.0812,-6.0812,-6.0943,-6.107,-6.12,-5.9649,-5.8964,-5.9044,-5.7367,-5.6606,-5.6508,-5.4752,-5.401,-5.3854,-5.2117,-5.1394,-5.1316,-5.0416,-4.954,-4.8701,-4.79,-4.7047,-4.6294,0.0,0.0,0.0,-3.4414,-3.4707,-3.498,-3.5879,-3.5996,-3.6211,-3.6797,-3.7363,0.0,0.0,0.0,0.0,0.0,-4.2226,-4.3261,-4.5292,-4.6249,-4.7265,-4.8418,-4.9023,-4.9453,-4.9746,-5.0312,-5.0605,-5.0605,-5.1131,-5.1401,-5.1395,-5.1408,-5.1402,-5.1375,-5.0809,-5.0534,-5.0475,-4.9618,-4.9403,-4.9538,-4.8152,-4.7744,-4.7803,-4.6397,-4.5695,-4.5324,0.0,-4.4504,-4.4815,-4.3665,-4.3079,-4.2982,-4.386,-4.3345,-4.2633,-4.377,-4.5919,-4.7928,-4.7928,-4.9597,-5.1593,-5.2742,-5.3907,-5.4983,-5.586,-5.6507,-5.6896,-5.6896,-5.7079,-5.7281,-5.7444,-5.8172,-5.8797,-5.8954,-5.9779,-6.0403,-6.0431,-6.0525,-6.0393,-5.9843,-6.0376,0.0,0.0,0.0,0.0,-6.08,-6.08,-6.08,-6.08,-6.08,-6.08,-6.08,-6.08,-6.08,-6.08,-6.0933,-6.101,-6.1042,-5.9585,-5.8395,-5.7426,-5.686,-5.6274,-5.5669,-5.4517,-5.3678,-5.3053,-5.1882,-5.1394,-5.1316,-5.0436,-4.9577,-4.8701,-4.7899,-4.7043,-4.6305,0.0,0.0,0.0,0.0,0.0,0.0,0.0,0.0,0.0,0.0,0.0,0.0,0.0,0.0,0.0,0.0,0.0,-4.2871,-4.4004,-4.5176,-4.6211,-4.7109,-4.7969,-4.8437,-4.8437,-4.8984,-4.9277,-4.9277,-4.9784,-5.0193,-5.0503,-5.0476,-5.0468,-5.0461,-5.0204,-5.0104,-5.0046,-4.9169,-4.9111,-4.946,-4.7469,-4.6983,-4.7295,-4.589,-4.5226,0.0,-4.4016,-4.425,-4.4719,-4.2923,-4.2357,-4.2533,-4.3352,-4.3092,-4.2828,-4.4551,-4.6822,-4.8941,-4.9565,-5.1365,-5.328,-5.4153,-5.5026,-5.5801,-5.637,-5.6253,-5.5957,-5.5645,-5.5314,-5.5258,-5.5742,-5.6301,-5.7114,-5.8468,-5.9175,-5.9771,-6.0307,-6.0499,-6.0367,-5.9824,-6.0359,-6.0546,0.0,0.0,0.0,-6.08,-6.08,-6.08,-6.08,-6.08,-6.08,-6.08,-6.08,-6.08,-6.08,-6.0933,-6.0756,-6.0239,-5.933,-5.8083,-5.6606,-5.6606,-5.6118,-5.524,-5.4381,-5.3502,-5.2626,-5.1765,-5.1394,-5.1316,-5.0436,-4.9577,-4.8701,-4.7899,-4.7042,-4.6302,0.0,0.0,0.0,0.0,0.0,0.0,0.0,0.0,0.0,0.0,0.0,0.0,0.0,0.0,0.0,0.0,0.0,0.0,-4.2402,-4.3984,-4.5312,-4.6191,-4.7031,-4.7461,-4.7461,-4.7519,-4.7539,-4.7539,-4.7616,-4.8084,-4.8904,-4.8837,-4.8792,-4.8829,-4.9622,-4.9967,-4.9909,-4.8993,-4.8681,-4.8584,-4.6027,-4.5088,-4.509,-4.4172,-4.4328,-4.4894,-4.4055,-4.4231,-4.4366,-4.1108,-4.1166,-4.2454,-4.1576,-4.3092,-4.5501,-4.7108,-4.8257,-4.9352,-5.1029,-5.2711,-5.4215,-5.4995,-5.5857,-5.6487,-5.6448,-5.5762,-5.4881,-5.4004,-5.3093,-5.2995,-5.4686,-5.4263,-5.4955,-5.8882,-5.8796,-5.8741,-6.0209,-6.0472,-6.0525,0.0,0.0,0.0,0.0,0.0,0.0,-6.08,0.0,-6.08,-6.08,-6.08,-6.08,-6.08,-6.08,-6.08,-6.08,-6.0884,-6.0236,-5.8885,-5.8846,-5.804,-5.6606,-5.6547,-5.6059,-5.5181,-5.4303,-5.3444,-5.2567,-5.1746,-5.1394,-5.1316,-5.0436,-4.9577,-4.8701,-4.7899,-4.7042,-4.63,0.0,0.0,0.0,0.0,0.0,0.0,0.0,0.0,0.0,0.0,0.0,0.0,0.0,0.0,0.0,0.0,0.0,0.0,-4.2363,-4.3418,-4.4414,-4.5293,-4.5547,-4.5664,-4.5664,-4.6308,-4.6621,-4.6621,-4.793,-4.8671,-4.8904,-4.8884,-4.886,-4.8771,-4.8418,-4.8237,-4.8133,-4.661,-4.7061,-4.8584,-4.6027,-4.6144,-4.7666,-4.6202,-4.5363,-4.4971,-4.4758,-4.3977,-4.304,-4.2786,-4.386,-4.5148,-4.4289,-4.5771,-4.7916,-4.8341,-5.0013,-5.1801,-5.225,-5.4072,-5.5734,-5.531,-5.5868,-5.6328,-5.5688,-5.4866,-5.3985,-5.3112,-5.1729,-5.1008,-5.2099,-5.3544,-5.5126,-5.6818,-5.8761,0.0,-6.0642,-6.0616,0.0,-6.068,-6.0722,-6.0788,-6.08,-6.08,0.0,0.0,-6.08,-6.08,-6.08,-6.08,-6.08,-6.08,-6.08,-6.08,-6.08,-6.0195,-5.9504,-5.8739,-5.8084,-5.7376,-5.6586,-5.5923,-5.5162,-5.4283,-5.3405,-5.2546,-5.1707,-5.1492,-5.1394,-5.1316,-5.0436,-4.9577,-4.8701,-4.7899,-4.7042,-4.63,0.0,0.0,0.0,0.0,0.0,0.0,0.0,0.0,0.0,0.0,0.0,0.0,0.0,0.0,0.0,0.0,0.0,0.0,0.0,-4.3379,-4.4316,-4.4414,-4.5156,-4.5391,-4.5019,-4.5859,-4.6113,-4.5723,-4.709,-4.7754,-4.7753,-4.7752,-4.7731,-4.7706,-4.7622,-4.7596,-4.7535,-4.6554,-4.6962,0.0,0.0,-4.587,-4.7022,-4.6085,-4.5421,-4.5049,-4.5421,-4.4933,-4.4192,-4.468,-4.548,-4.6417,-4.704,-4.8211,-4.952,-5.0282,-5.1546,-5.2772,-5.3162,-5.4574,-5.5808,-5.5315,-5.5571,-5.5693,-5.4824,-5.3954,-5.2976,-5.1729,-5.0677,-5.0268,-5.1145,-5.2417,-5.4066,-5.6363,-5.8175,0.0,-6.0741,-6.0776,-6.0704,-6.0773,-6.0773,-6.0777,-6.08,-6.08,-6.08,0.0,-6.08,-6.08,-6.08,-6.08,-6.08,-6.08,-6.08,-6.08,-6.08,-5.9935,-5.9203,-5.8603,-5.7738,-5.7015,-5.6433,-5.5594,-5.4769,-5.3951,0.0,-5.2214,-5.1394,-5.1394,-5.1394,-5.1277,-5.0028,-4.9228,-4.8662,-4.7471,-4.6729,-4.63,0.0,0.0,0.0,0.0,0.0,0.0,0.0,0.0,0.0,0.0,0.0,0.0,0.0,0.0,0.0,0.0,0.0,0.0,0.0,0.0,0.0,-4.3906,-4.5312,-4.5762,-4.5019,-4.5742,-4.5762,-4.5,-4.5879,-4.6308,-4.6308,-4.6308,-4.6307,-4.6326,-4.7099,-4.7425,-4.7424,-4.7299,-4.7313,-4.7293,-4.5654,-4.5068,-4.5168,0.0,-4.5168,-4.5246,-4.5773,-4.6105,-4.628,-4.6163,-4.6358,-4.7042,-4.9362,-5.026,-5.0768,-5.239,-5.2958,-5.3212,-5.3971,-5.4765,-5.536,-5.5221,-5.5123,-5.4807,-5.3926,-5.2878,-5.1674,-5.0155,-4.9742,-4.9976,-5.095,-5.132,-5.2751,-5.6653,-5.7489,-5.8454,-6.0735,-6.0925,-6.0867,-6.0935,-6.0828,-6.0762,-6.0827,-6.0804,-6.08,-6.08,-6.08,-6.08,-6.08,-6.08,-6.08,-6.08,-6.08,-6.08,-6.08,-5.9838,-5.9064,-5.8498,-5.7492,-5.6767,-5.6273,-5.5353,-5.4596,-5.3932,0.0,0.0,-5.1394,-5.1394,-5.1394,-5.1238,-4.9481,-4.8798,-4.8603,-4.6924,-4.63,-4.63,0.0,0.0,0.0,0.0,0.0,0.0,0.0,0.0,0.0,0.0,-4.1289,-4.1562,0.0,0.0,0.0,0.0,0.0,0.0,0.0,0.0,0.0,-4.4785,-4.5058,-4.5156,-4.5,-4.5156,-4.5156,-4.5,-4.5879,-4.6308,-4.6308,-4.6308,-4.6308,-4.6307,-4.6459,-4.6532,-4.6488,-4.5757,-4.587,-4.6436,-4.5402,-4.5421,-4.6066,-4.6066,0.0,0.0,-4.4602,-4.507,-4.6183,-4.548,-4.6612,-4.8564,-4.9733,-5.1082,-5.2448,-5.3463,-5.4283,-5.489,-5.5025,-5.5706,-5.617,-5.5399,-5.4708,-5.3978,-5.3049,-5.1083,-4.9374,-4.9062,-4.8447,-4.8397,-4.9937,-5.1398,-5.3299,-5.6188,-5.769,-5.916,-6.1071,-6.117,-6.107,-6.1135,-6.1037,-6.0954,-6.0964,-6.0856,0.0,0.0,0.0,-6.08,-6.08,-6.08,-6.08,-6.08,-6.08,-6.08,-6.08,-5.9281,-5.8505,-5.8479,-5.6893,-5.6185,-5.6253,-5.473,-5.4011,-5.3912,0.0,0.0,-5.1394,-5.1394,-5.1394,-5.1238,-4.9481,-4.8798,-4.8603,-4.6924,-4.63,-4.63,0.0,0.0,0.0,0.0,0.0,0.0,0.0,-4.0371,-4.1816,-4.3535,-4.3418,-4.3301,-4.3652,-4.3691,-4.3691,0.0,0.0,0.0,0.0,0.0,0.0,0.0,-4.543,-4.5683,-4.5683,-4.6113,-4.5918,-4.5,0.0,-4.6504,-4.5625,0.0,0.0,0.0,-4.6305,-4.6301,-4.6278,-4.5856,-4.5929,-4.6222,-4.5343,-4.5246,0.0,0.0,0.0,0.0,-4.3489,-4.384,-4.4953,-4.4992,-4.6105,-4.7881,-5.0087,-5.1668,-5.2958,-5.4283,-5.4654,-5.4713,-5.5181,-5.5611,-5.5706,-5.4804,-5.3938,-5.2974,-5.1601,-5.0009,-4.8668,-4.8211,-4.8146,-4.8428,-4.9239,-5.0774,-5.2489,-5.4184,-5.5823,-5.7663,-5.9888,-6.0055,-6.03,-6.1231,-6.1211,-6.1112,-6.1112,-6.0974,0.0,0.0,0.0,0.0,-6.08,-6.08,-6.08,-6.08,-6.08,-6.0569,-6.0127,-5.8915,-5.8105,-5.7689,-5.6416,-5.5896,-5.6052,-5.4356,-5.3701,-5.381,0.0,0.0,-5.1394,-5.1394,-5.1394,-5.1238,-4.9481,-4.8798,-4.8603,-4.6924,-4.63,-4.63,0.0,0.0,0.0,0.0,0.0,0.0,0.0,-4.1055,-4.2598,-4.4961,-4.5273,-4.5098,-4.459,-4.4375,-4.4258,0.0,0.0,0.0,0.0,0.0,0.0,0.0,0.0,-4.6308,-4.6308,0.0,0.0,0.0,-4.6933,0.0,0.0,0.0,0.0,0.0,0.0,0.0,-4.6301,-4.6308,-4.63,0.0,0.0,0.0,0.0,0.0,0.0,0.0,0.0,-4.3801,-4.4543,-4.468,-4.5421,-4.6749,-4.9247,-5.1004,-5.2448,-5.401,-5.4244,-5.4186,-5.5064,-5.5435,-5.5376,-5.4498,-5.334,-5.1967,-5.023,-4.9008,-4.802,-4.7131,-4.7785,-4.8519,-4.8525,-4.9745,-5.1164,-5.2411,-5.3756,-5.5629,-5.8428,-5.8897,-5.9518,-6.1084,-6.1242,0.0,-6.1253,-6.1128,0.0,0.0,0.0,0.0,-6.08,-6.08,-6.08,-6.08,-6.08,-6.0377,-5.9511,-5.8704,-5.7857,-5.6983,-5.6107,-5.5682,-5.5586,-5.4089,-5.3435,-5.3394,0.0,0.0,0.0,-5.136,-5.1367,-5.1238,-4.9481,-4.8798,-4.8603,-4.6924,-4.63,-4.63,0.0,0.0,0.0,0.0,0.0,0.0,0.0,-4.2441,-4.4121,-4.5937,-4.6172,-4.6445,-4.7168,-4.6543,-4.6055,0.0,0.0,0.0,0.0,0.0,0.0,0.0,0.0,0.0,0.0,0.0,0.0,0.0,0.0,0.0,0.0,0.0,0.0,0.0,0.0,0.0,0.0,0.0,0.0,0.0,0.0,0.0,0.0,0.0,0.0,0.0,0.0,-4.6495,-4.6884,-4.4582,-4.4914,-4.6222,-4.5734,-4.7762,-5.0534,-5.1472,-5.2819,-5.4186,-5.5064,-5.5884,-5.6274,-5.5396,-5.3346,-5.1061,-4.9323,-4.7676,-4.6282,-4.5401,-4.6493,-4.7626,-4.7623,-4.8389,-4.98,-5.2216,-5.2723,-5.4027,-5.7435,-5.8597,-5.943,-6.0386,0.0,0.0,-6.1476,-6.1292,0.0,0.0,0.0,0.0,0.0,-6.08,-6.08,-6.08,-6.08,-6.0377,-5.9511,-5.8704,-5.7857,-5.6983,-5.6107,-5.5383,-5.4782,-5.3818,-5.3049,-5.2372,0.0,0.0,0.0,-5.1214,-5.1291,-5.1238,-4.9481,-4.8798,-4.8603,-4.6924,-4.63,-4.63,0.0,0.0,0.0,0.0,0.0,0.0,-4.0937,-4.2187,-4.373,-4.5996,-4.584,-4.6055,-4.7441,-4.7285,-4.707,-4.707,0.0,0.0,0.0,0.0,0.0,0.0,0.0,0.0,0.0,0.0,-4.7598,-4.7598,-4.8125,0.0,0.0,0.0,0.0,0.0,0.0,0.0,0.0,0.0,0.0,0.0,0.0,0.0,0.0,0.0,0.0,0.0,0.0,0.0,-4.4463,-4.4484,-4.4582,-4.4777,-4.4933,-4.5927,-4.7391,-4.9286,-5.1063,-5.2741,-5.4147,-5.5142,-5.5611,-5.4732,-5.2956,-5.0945,-4.9208,-4.7508,-4.6195,-4.5857,-4.6316,-4.6772,-4.6716,-4.7424,-4.8529,-5.0053,-5.0723,-5.206,-5.5037,-5.5746,-5.6888,-5.9323,-5.9845,0.0,0.0,0.0,0.0,0.0,0.0,0.0,0.0,-6.08,-6.08,-6.08,-6.0281,-5.9627,-5.88,-5.7934,-5.7069,-5.6214,-5.5376,-5.4851,-5.4526,-5.3128,-5.2387,-5.2126,0.0,0.0,0.0,-5.1178,-5.1222,-5.1115,-4.9452,-4.8798,-4.8603,-4.6924,-4.63,-4.63,0.0,0.0,0.0,0.0,0.0,-3.9101,-4.0586,-4.1933,-4.3535,-4.5644,-4.5605,-4.6055,-4.7793,-4.7754,-4.7812,-4.832,-4.7344,0.0,0.0,0.0,0.0,0.0,0.0,0.0,0.0,0.0,-4.8379,-4.8379,-4.8984,-4.8965,0.0,0.0,0.0,0.0,0.0,0.0,0.0,0.0,0.0,0.0,0.0,0.0,0.0,0.0,0.0,0.0,0.0,0.0,0.0,0.0,0.0,-4.4153,-4.4504,-4.4797,-4.5459,-4.7764,-4.9306,-5.0711,-5.2683,-5.3873,-5.4322,-5.3444,-5.2312,-5.0809,-4.8564,-4.7354,-4.6532,-4.6017,-4.611,-4.6299,-4.6242,-4.6936,-4.7785,-4.8661,-4.9496,-5.0844,-5.3194,-5.3743,-5.492,-5.7629,0.0,-5.8998,0.0,0.0,0.0,0.0,0.0,0.0,0.0,-6.08,-6.08,-6.08,-5.9954,-5.9108,-5.8319,-5.7434,-5.6445,-5.5338,-5.4761,-5.4222,-5.3683,-5.2462,-5.1809,0.0,0.0,0.0,0.0,-5.1067,-5.1152,-5.1031,-4.9405,-4.8786,-4.8603,-4.6924,-4.63,-4.63,0.0,0.0,0.0,0.0,0.0,0.0,-3.9785,-4.2051,-4.4004,-4.4902,-4.5762,-4.6953,-4.8691,-4.8125,-4.8281,-5.0019,-4.8594,0.0,0.0,0.0,0.0,0.0,0.0,0.0,0.0,0.0,-5.0176,-5.0176,-5.0176,-5.0176,-5.0156,-4.9297,-4.8437,0.0,0.0,0.0,0.0,0.0,0.0,0.0,0.0,0.0,0.0,0.0,0.0,0.0,0.0,0.0,0.0,0.0,0.0,0.0,0.0,-4.4309,-4.5342,-4.7098,-4.7625,-4.8191,-5.0731,-5.2058,-5.2528,-5.1648,-5.1414,-5.0516,-4.71,-4.6983,-4.7098,-4.5361,-4.5707,-4.6303,-4.6303,-4.6957,-4.78,-4.8659,-4.9533,-5.0695,-5.2372,-5.3366,-5.4231,0.0,0.0,-5.7209,0.0,0.0,0.0,0.0,0.0,0.0,0.0,-6.08,-6.08,-6.08,-5.9954,-5.9108,-5.8319,-5.7434,-5.6156,-5.4511,-5.4491,-5.3606,-5.1923,-5.1904,0.0,0.0,0.0,0.0,0.0,-5.0894,-5.1011,-5.1028,-4.9368,-4.873,-4.8603,-4.6924,-4.63,-4.63,0.0,0.0,0.0,0.0,0.0,0.0,0.0,-4.1465,-4.2715,-4.4746,-4.4726,-4.541,-4.7754,-4.8301,-4.8945,-5.0098,-4.9141,0.0,0.0,0.0,0.0,0.0,0.0,0.0,0.0,-4.9609,-5.0469,-5.1016,-5.1016,-5.1016,-5.0996,-5.0176,-4.9648,-4.9316,0.0,0.0,0.0,0.0,0.0,0.0,0.0,0.0,0.0,0.0,0.0,0.0,0.0,0.0,0.0,0.0,0.0,0.0,0.0,0.0,0.0,-4.6378,-4.7139,-4.7645,-4.7861,-4.8954,-4.9833,-4.9013,-4.9228,-4.9032,-4.6807,-4.6963,-4.7274,-4.6124,-4.6103,-4.6294,-4.6306,-4.6516,-4.7153,-4.858,-4.9025,-4.9799,-5.1479,0.0,0.0,-5.5915,-5.8386,0.0,0.0,0.0,0.0,0.0,0.0,0.0,0.0,0.0,-5.9915,-5.9915,-5.9108,-5.7992,-5.653,-5.5703,-5.4722,-5.3606,-5.301,-5.2423,-5.1885,-5.1337,0.0,0.0,0.0,0.0,0.0,-5.0866,-5.0586,-5.0008,-4.9065,-4.835,-4.7716,-4.6681,-4.63,-4.63,0.0,0.0,0.0,0.0,0.0,0.0,0.0,-4.125,-4.2344,-4.4258,-4.4316,-4.5058,-4.7344,-4.8379,-4.9258,-5.0117,-4.998,0.0,0.0,0.0,0.0,0.0,0.0,0.0,-4.8887,-5.0058,-5.0898,-5.1406,-5.1094,-5.1094,-5.1387,-5.0586,-5.0195,-5.0156,-4.9039,-4.8196,0.0,0.0,0.0,0.0,0.0,0.0,0.0,0.0,0.0,0.0,0.0,0.0,0.0,0.0,0.0,0.0,0.0,0.0,0.0,0.0,-4.6436,-4.6983,-4.6456,-4.6827,-4.7315,-4.7159,-4.7725,-4.7998,-4.6612,-4.6963,-4.7352,-4.6475,-4.63,-4.6298,-4.6292,-4.6564,-4.7125,-4.8145,-4.8864,-4.9642,0.0,0.0,0.0,-5.6285,0.0,0.0,0.0,0.0,0.0,0.0,0.0,0.0,0.0,0.0,-5.8742,-5.8088,-5.7588,-5.6799,-5.5703,-5.4587,-5.3568,-5.2692,-5.2154,-5.1731,-5.1433,0.0,0.0,0.0,0.0,0.0,0.0,-5.0437,-5.0046,-4.9504,-4.846,-4.7767,-4.7233,-4.6507,-4.6216,-4.6238,0.0,0.0,0.0,0.0,0.0,0.0,0.0,-4.1308,-4.2656,-4.3574,-4.4394,-4.5566,-4.7304,-4.834,-4.9238,-5.0039,0.0,0.0,0.0,0.0,0.0,0.0,0.0,0.0,-4.8984,-5.0566,-5.1406,-5.1406,-5.0644,-5.0664,-5.1387,-5.0586,-5.0234,-5.0273,-5.0035,-4.9094,0.0,0.0,0.0,0.0,0.0,0.0,0.0,0.0,0.0,0.0,0.0,0.0,0.0,0.0,0.0,0.0,0.0,0.0,0.0,0.0,0.0,0.0,0.0,-4.5578,-4.5187,-4.5929,-4.6827,-4.7274,-4.6417,-4.6924,0.0,-4.6475,-4.63,-4.6319,-4.6378,-4.7042,-4.7623,-4.7672,-4.9035,0.0,0.0,-5.2447,0.0,0.0,0.0,0.0,0.0,0.0,0.0,0.0,0.0,0.0,0.0,0.0,-5.7349,-5.5665,-5.5491,-5.5434,-5.5434,-5.3895,-5.2683,-5.1808,-5.1808,-5.1414,-5.0712,0.0,0.0,0.0,0.0,0.0,0.0,-4.976,-4.9446,-4.9332,-4.7642,-4.7043,-4.7012,-4.6333,-4.6095,-4.6128,0.0,0.0,0.0,0.0,0.0,0.0,0.0,0.0,0.0,0.0,-4.3844,-4.4647,-4.6334,-4.7947,-4.8984,0.0,0.0,0.0,0.0,0.0,0.0,0.0,0.0,0.0,-4.9883,-5.0879,-5.1406,-5.1406,-5.1211,-5.1211,-5.1387,-5.0586,-5.0527,-5.1034,-4.9058,-4.8309,0.0,0.0,0.0,0.0,0.0,0.0,0.0,0.0,0.0,0.0,0.0,-4.4956,0.0,0.0,0.0,0.0,0.0,0.0,0.0,0.0,-4.5192,-4.4318,-4.4312,0.0,-4.4894,-4.4426,-4.546,-4.6378,0.0,-4.6493,-4.7352,-4.6475,-4.63,-4.6495,-4.7178,-4.745,-4.8016,-4.9282,-4.9827,-5.0332,-5.1004,0.0,0.0,-5.9128,0.0,0.0,0.0,0.0,0.0,0.0,0.0,0.0,0.0,0.0,-5.5923,-5.4735,-5.346,-5.2788,-5.2788,-5.2404,-5.1798,-5.0971,-5.0971,-5.0875,-5.0712,0.0,0.0,0.0,0.0,0.0,-5.0635,-4.976,-4.9037,-4.836,-4.7384,-4.6646,-4.6106,-4.5997,-4.6005,-4.6102,0.0,0.0,0.0,0.0,0.0,0.0,0.0,0.0,0.0,0.0,0.0,0.0,0.0,0.0,0.0,0.0,0.0,0.0,0.0,0.0,0.0,0.0,0.0,-5.0195,-5.0195,-5.0996,-5.1406,-5.1406,-5.1035,-5.0859,-5.084,-5.0391,-5.043,-5.0761,-4.898,-4.8638,0.0,0.0,0.0,0.0,0.0,0.0,0.0,0.0,0.0,0.0,-4.457,-4.4105,0.0,-4.3773,-4.3444,-4.3155,0.0,0.0,0.0,0.0,-4.4745,-4.3695,-4.3707,-4.4036,-4.4387,-4.4309,-4.5304,-4.6183,-4.5695,-4.6027,-4.6163,-4.5285,-4.5421,-4.5968,-4.6846,-4.7332,-4.8016,-4.9306,-4.9831,0.0,0.0,0.0,-5.7014,-5.9997,0.0,0.0,0.0,0.0,0.0,0.0,0.0,0.0,0.0,0.0,-5.4844,-5.3848,-5.2544,-5.1864,-5.1904,-5.1529,-5.1125,-5.0712,-5.0712,-5.0712,-5.0712,0.0,0.0,0.0,0.0,0.0,-5.001,-4.8759,-4.7971,-4.748,-4.667,-4.6094,-4.5719,-4.5829,-4.5914,-4.6028,0.0,0.0,0.0,0.0,0.0,0.0,0.0,0.0,0.0,0.0,0.0,0.0,0.0,0.0,0.0,0.0,0.0,0.0,0.0,0.0,0.0,0.0,-5.0371,-5.0371,-5.0371,-5.1055,-5.1406,-5.1406,-5.0723,-5.0371,-5.0371,-5.0117,-4.9863,-4.9589,-4.9097,-4.9262,0.0,0.0,0.0,0.0,0.0,0.0,0.0,0.0,0.0,0.0,0.0,0.0,0.0,-4.2804,-4.2923,-4.3353,-4.362,0.0,0.0,0.0,0.0,0.0,-4.3668,-4.3881,-4.4231,-4.4855,-4.5656,-4.63,-4.63,-4.5636,-4.4797,-4.4055,-4.4484,-4.5265,-4.6144,-4.712,-4.8057,-4.8876,0.0,0.0,-5.4674,-5.5277,-5.6543,0.0,0.0,0.0,0.0,0.0,0.0,0.0,0.0,0.0,0.0,0.0,0.0,-5.3105,-5.2129,-5.1642,-5.1702,-5.1048,-5.0712,-5.0712,-5.0712,-5.0712,-5.0712,-5.0712,0.0,0.0,0.0,0.0,-4.9086,-4.7548,-4.6904,-4.6817,-4.5932,-4.5594,-4.5612,-4.5719,-4.5816,-4.592,0.0,0.0,0.0,0.0,0.0,0.0,0.0,0.0,0.0,0.0,0.0,0.0,0.0,0.0,0.0,0.0,0.0,0.0,0.0,0.0,0.0,-5.1211,-5.1211,-5.1211,-5.1211,-5.1348,-5.1406,-5.1406,-5.1289,-5.1211,-5.1172,-4.9766,-4.8319,-4.6948,-4.8231,-4.8886,-4.8993,-4.8857,0.0,0.0,0.0,0.0,0.0,0.0,0.0,0.0,0.0,0.0,0.0,-4.3294,-4.2653,-4.1835,-4.3256,0.0,0.0,0.0,0.0,0.0,-4.3494,-4.4777,-4.5753,-4.5148,-4.5656,-4.63,-4.63,-4.5636,-4.4951,-4.4836,-4.4912,-4.5265,-4.6144,-4.7569,-4.8896,-4.9753,0.0,-5.2741,0.0,0.0,0.0,0.0,0.0,0.0,0.0,0.0,0.0,0.0,0.0,0.0,0.0,0.0,0.0,-5.2955,-5.1529,-5.0795,-5.0805,-5.0721,-5.0712,-5.0712,-5.0712,-5.0712,-5.0712,-5.0712,-5.0308,0.0,0.0,-4.8971,-4.824,-4.7298,-4.6904,-4.6817,-4.5932,-4.5594,-4.5594,-4.562,-4.5735,-4.593,0.0,0.0,0.0,0.0,0.0,0.0,0.0,0.0,0.0,0.0,0.0,0.0,0.0,0.0,0.0,0.0,0.0,0.0,0.0,0.0,-5.1406,-5.1406,-5.1406,-5.1406,-5.1406,-5.1406,-5.1406,-5.1406,-5.1406,-5.1172,-5.0723,-4.9961,-4.8924,-4.7747,-4.8462,-4.8807,-4.8798,-4.8798,-4.9032,0.0,0.0,0.0,0.0,0.0,0.0,0.0,0.0,0.0,0.0,0.0,-4.2128,-4.1973,-4.2751,0.0,0.0,0.0,0.0,0.0,-4.219,-4.357,-4.4797,-4.4406,-4.5987,-4.7412,-4.6515,-4.5636,-4.4875,-4.4387,-4.468,-4.5265,-4.6144,-4.7666,-4.9384,-5.1219,0.0,-5.3173,0.0,0.0,0.0,0.0,0.0,0.0,0.0,0.0,0.0,0.0,0.0,0.0,0.0,0.0,0.0,0.0,-5.1108,-5.054,-5.0603,-5.0623,-5.0653,-5.0712,-5.0712,-5.0712,-5.0693,-5.0212,-4.9779,0.0,0.0,-4.7817,-4.7394,-4.6547,-4.6201,-4.6163,-4.5768,-4.5594,-4.5603,-4.5684,-4.5766,-4.5871,0.0,0.0,0.0,0.0,0.0,0.0,0.0,0.0,0.0,0.0,0.0,0.0,0.0,0.0,0.0,0.0,0.0,0.0,0.0,0.0,-5.1191,-5.1387,-5.1406,-5.1308,-5.1113,-5.1308,-5.1308,-5.1113,-5.1308,-5.0996,-5.0195,-5.0194,-4.9626,-4.8607,-4.8951,-4.8983,-4.8798,-4.8798,-4.8798,0.0,0.0,0.0,0.0,0.0,0.0,0.0,0.0,0.0,0.0,0.0,0.0,0.0,0.0,0.0,0.0,-4.2164,-4.1772,-4.1145,-4.1354,-4.2539,-4.3705,-4.3705,-4.5812,-4.7686,-4.6807,-4.5773,-4.4875,-4.4406,-4.4836,-4.5441,-4.5909,-4.753,0.0,-5.1726,-5.2605,0.0,0.0,0.0,0.0,0.0,0.0,0.0,0.0,0.0,0.0,0.0,0.0,0.0,0.0,0.0,0.0,0.0,-5.086,-5.0446,-5.0562,-5.0572,-5.0623,-5.0712,-5.0712,-5.0712,-5.0673,-4.9798,-4.9298,-4.9009,-4.7548,-4.6778,-4.6547,-4.5883,-4.5594,-4.5594,-4.5594,-4.5594,-4.5612,-4.5749,-4.5807,-4.5808,0.0,0.0,0.0,0.0,0.0,0.0,0.0,0.0,0.0,0.0,0.0,0.0,0.0,0.0,0.0,0.0,0.0,0.0,0.0,0.0,-5.0625,-5.1367,-5.1406,-5.1055,-5.0293,-5.1016,-5.1035,-5.0293,-5.1035,-5.0996,-5.0195,-5.0194,-4.9294,-4.7766,-4.9303,-4.9568,-4.8798,-4.8798,-4.8798,-4.872,-4.7998,0.0,0.0,0.0,0.0,0.0,0.0,0.0,0.0,0.0,0.0,0.0,0.0,0.0,-4.1367,-4.2167,-4.1774,-4.1282,-4.2097,-4.2988,-4.3705,-4.3705,-4.4484,-4.5673,-4.7176,-4.62,-4.5207,-4.5968,-4.6163,-4.5987,-4.5226,-4.712,-4.913,-5.0124,-5.2312,0.0,0.0,0.0,0.0,0.0,0.0,0.0,0.0,0.0,0.0,0.0,0.0,0.0,0.0,0.0,0.0,0.0,0.0,-5.0412,-5.0412,-5.0478,-5.0563,-5.0712,-5.0712,-5.0712,-5.0673,-4.9798,-4.8952,-4.8144,-4.7278,-4.6432,-4.5691,-4.5633,-4.5594,-4.5594,-4.5594,-4.5594,-4.5612,-4.5749,-4.5807,-4.5808,0.0,0.0,0.0,0.0,0.0,0.0,0.0,0.0,0.0,0.0,0.0,0.0,0.0,0.0,0.0,0.0,0.0,0.0,0.0,-4.8789,-4.9766,-5.0625,-5.0644,-5.0254,-4.9414,-5.0215,-5.0234,-4.9394,-4.9707,-4.9961,-5.0195,-5.0154,-4.9799,-4.9172,-4.9824,-4.9913,-4.9577,-4.9032,-4.8798,-4.872,-4.7918,0.0,0.0,0.0,0.0,0.0,0.0,0.0,0.0,0.0,-4.1191,-4.125,-4.1562,-4.1445,-4.1269,-4.1562,-4.1033,-4.0521,-4.1379,-4.223,-4.2884,-4.2884,-4.3957,-4.5304,-4.6515,-4.671,-4.6845,-4.7686,-4.7842,-4.7744,-4.7412,-4.8154,-4.9267,-5.0672,0.0,0.0,0.0,0.0,0.0,0.0,0.0,0.0,0.0,0.0,0.0,0.0,0.0,0.0,0.0,0.0,0.0,0.0,0.0,-5.0367,-5.0401,-5.0435,-5.0489,-5.0593,-5.0593,-5.0315,-4.9807,-4.8923,-4.8097,-4.7317,-4.6451,-4.5893,-4.5594,-4.5594,-4.5594,-4.5594,-4.5594,-4.5594,-4.5603,-4.5651,-4.5676,-4.5684,0.0,0.0,0.0,0.0,0.0,0.0,0.0,0.0,0.0,0.0,0.0,0.0,0.0,0.0,0.0,0.0,0.0,0.0,-4.5918,-4.7266,-4.8476,-4.9336,-4.9648,-4.9375,-4.8516,-4.9062,-4.9219,-4.8906,-4.8906,-4.9355,-5.0195,-4.9879,-4.9719,-4.9737,-4.9996,-4.9811,-4.9265,-4.8662,-4.8427,-4.8349,-4.753,-4.5792,0.0,0.0,0.0,0.0,0.0,0.0,0.0,0.0,-4.0566,-4.084,-4.1113,-4.1191,-4.1191,-4.1191,-4.0955,-4.0697,-4.0716,-4.1548,-4.2396,-4.2396,-4.3509,-4.4953,-4.6397,-4.7178,-4.782,-4.8623,-4.8603,-4.8505,-4.8759,-4.8798,0.0,0.0,0.0,0.0,0.0,0.0,0.0,0.0,0.0,0.0,0.0,0.0,0.0,0.0,0.0,0.0,0.0,0.0,0.0,0.0,0.0,0.0,-5.0379,-5.0379,-5.0267,-5.0063,-5.0063,-4.978,-4.9268,-4.8116,-4.7367,-4.6846,-4.597,-4.5594,-4.5594,-4.5594,-4.5594,-4.5594,-4.5594,-4.5594,-4.5594,-4.5594,-4.5594,-4.5594,0.0,0.0,0.0,0.0,0.0,0.0,0.0,0.0,0.0,0.0,0.0,0.0,0.0,0.0,0.0,0.0,0.0,0.0,-4.4961,-4.5781,-4.668,-4.7558,-4.8418,-4.8476,-4.7617,-4.7598,-4.8027,-4.8887,-4.8887,-4.9336,-5.0176,-4.9293,-4.8899,-4.8957,-4.9742,-4.9167,-4.7606,-4.7586,-4.7586,-4.7528,-4.6632,-4.5246,-4.3705,0.0,0.0,0.0,0.0,0.0,0.0,0.0,-3.918,-4.0039,-4.0918,-4.1191,-4.1191,-4.1191,-4.1756,-4.2024,-4.0345,-4.1119,-4.2396,-4.2396,-4.306,-4.4387,-4.6981,-4.7586,-4.784,-4.8662,-4.8174,-4.7859,-4.8662,-4.8818,0.0,0.0,0.0,0.0,0.0,0.0,0.0,0.0,0.0,0.0,0.0,0.0,0.0,0.0,0.0,0.0,0.0,0.0,0.0,0.0,0.0,0.0,-5.0283,-5.0283,-4.9882,-4.9091,-4.9091,-4.9149,-4.9229,-4.7559,-4.6819,-4.6827,-4.597,-4.5594,-4.5594,-4.5594,-4.5594,-4.5594,-4.5594,-4.5594,-4.5594,-4.5594,-4.5594,-4.5594,0.0,0.0,0.0,0.0,0.0,0.0,0.0,0.0,0.0,0.0,0.0,0.0,0.0,0.0,0.0,0.0,0.0,0.0,-4.3162,-4.3962,-4.5137,-4.6621,-4.6933,-4.7246,-4.7598,-4.7598,-4.7734,-4.7988,-4.7988,-4.875,-5.0176,-4.8687,-4.8605,-4.9737,-4.9353,-4.8915,-4.8369,-4.7198,-4.7042,-4.7469,-4.5987,-4.4719,-4.3705,0.0,0.0,0.0,0.0,0.0,0.0,0.0,0.0,0.0,-4.0019,-4.0703,-4.1074,-4.0469,-4.0898,-4.1306,-4.0209,-4.0673,-4.1621,-4.224,-4.3528,-4.4816,-4.5595,-4.7159,-4.8857,-5.0321,-4.995,-4.9421,-4.9675,-4.9714,0.0,0.0,0.0,0.0,0.0,0.0,0.0,0.0,0.0,0.0,0.0,0.0,0.0,0.0,0.0,0.0,0.0,0.0,0.0,0.0,0.0,0.0,-4.8533,-4.8533,-4.8418,-4.8181,-4.757,-4.7308,-4.7392,-4.6934,-4.6426,-4.5906,-4.5692,-4.5594,-4.5594,-4.5594,-4.5594,-4.5594,-4.5594,-4.5594,-4.5594,-4.5594,-4.5594,-4.5594,0.0,0.0,0.0,0.0,0.0,0.0,0.0,0.0,0.0,0.0,-4.4759,-4.4874,0.0,0.0,0.0,0.0,0.0,0.0,0.0,-4.2651,-4.3808,-4.5215,-4.5605,-4.6191,-4.7051,-4.7754,-4.7949,-4.7598,-4.7598,-4.8144,-4.914,-4.8452,-4.8662,-4.9617,-4.941,-4.8759,-4.7744,-4.6729,-4.6202,-4.5968,-4.4914,-4.3957,-4.3178,0.0,0.0,0.0,0.0,0.0,0.0,0.0,0.0,0.0,-3.8809,-3.9473,-4.0059,-3.9531,-4.0233,-4.1051,-4.0519,-4.1237,-4.2343,-4.3216,-4.421,-4.5185,-4.5869,-4.7217,-4.8701,-5.0087,-4.9696,-4.9304,-4.9987,-4.9811,0.0,0.0,0.0,0.0,0.0,0.0,0.0,0.0,0.0,0.0,0.0,0.0,0.0,0.0,0.0,0.0,0.0,0.0,0.0,0.0,0.0,0.0,-4.7788,-4.7788,-4.7635,-4.7272,-4.6748,-4.6339,-4.6094,-4.6146,-4.5928,-4.5504,-4.5568,-4.5594,-4.5594,-4.5594,-4.5594,-4.5594,-4.5594,-4.5594,-4.5594,-4.5594,-4.5594,-4.5594,0.0,0.0,0.0,0.0,0.0,0.0,0.0,0.0,0.0,0.0,-4.4239,-4.4259,0.0,0.0,0.0,0.0,0.0,0.0,0.0,0.0,-4.2773,-4.3652,-4.4687,-4.5644,-4.6523,-4.8008,-4.8398,-4.7598,-4.7598,-4.7636,-4.7732,-4.8295,-4.8622,-4.879,-4.9309,-4.8271,-4.6163,-4.5929,-4.4953,-4.3567,-4.351,-4.2942,-4.2162,-4.2249,0.0,0.0,0.0,0.0,0.0,0.0,0.0,0.0,-3.7519,-3.7891,-3.8574,-3.8495,-3.9722,-4.1086,-4.1003,-4.2267,-4.3803,-4.4758,-4.5068,-4.5537,-4.7118,-4.7489,-4.7723,-4.8623,-4.8213,-4.8172,-4.9694,-4.9325,0.0,0.0,0.0,0.0,0.0,0.0,0.0,0.0,0.0,0.0,0.0,0.0,0.0,0.0,0.0,0.0,0.0,0.0,0.0,0.0,0.0,0.0,-4.7559,-4.7559,-4.7169,0.0,-4.6385,-4.6003,-4.5307,-4.5359,-4.5448,-4.5504,-4.5568,-4.5594,-4.5594,-4.5594,-4.5594,-4.5594,-4.5594,-4.5594,-4.5594,-4.5594,-4.5594,-4.5594,0.0,0.0,0.0,0.0,0.0,0.0,0.0,0.0,0.0,0.0,0.0,0.0,0.0,0.0,0.0,0.0,0.0,0.0,0.0,0.0,-4.2727,-4.3652,-4.5859,-4.7441,-4.832,-4.8047,-4.7793,-4.7598,-4.7598,-4.7949,-4.8572,-4.6713,-4.6572,-4.7796,-4.5914,-4.5148,-4.5148,-4.3099,-4.2396,-4.2611,-4.1927,-4.1147,-4.0424,-4.1116,-4.0455,0.0,0.0,0.0,0.0,0.0,0.0,0.0,-3.7148,-3.7891,-3.8476,-3.7773,-3.9257,-4.0953,-4.0324,-4.1393,-4.3048,-4.4603,-4.5519,-4.6124,-4.6495,-4.6573,-4.7002,-4.8486,-4.8662,-4.8642,-4.9013,0.0,0.0,0.0,0.0,0.0,0.0,0.0,0.0,0.0,0.0,0.0,0.0,0.0,0.0,0.0,0.0,0.0,0.0,0.0,0.0,0.0,0.0,-4.5831,-4.5831,-4.5831,-4.5736,0.0,-4.5564,-4.5468,-4.5307,-4.5359,-4.5448,-4.5504,-4.5568,-4.5594,-4.5594,-4.5594,-4.5594,-4.5594,-4.5594,-4.5594,-4.5594,-4.5594,-4.5594,-4.5594,0.0,0.0,0.0,0.0,0.0,0.0,0.0,0.0,0.0,0.0,0.0,0.0,0.0,0.0,0.0,0.0,0.0,0.0,0.0,-4.1326,-4.2271,-4.3633,-4.6191,-4.7422,-4.7031,-4.6992,-4.6777,-4.6367,-4.5937,-4.6386,-4.7633,-4.6695,-4.6729,-4.7536,-4.6189,-4.5112,-4.425,-4.2474,-4.1283,-4.0542,-4.0094,-3.9626,-3.9274,-3.9726,-3.9358,-3.8481,-3.761,0.0,0.0,0.0,0.0,0.0,0.0,0.0,-3.7344,-3.7304,-3.8533,-3.9995,-4.0361,-4.1724,-4.3437,-4.5189,-4.5968,-4.63,-4.63,-4.63,-4.6554,-4.7412,-4.7608,-4.7725,0.0,0.0,0.0,0.0,0.0,0.0,0.0,0.0,0.0,0.0,0.0,0.0,0.0,0.0,0.0,0.0,0.0,0.0,0.0,0.0,0.0,0.0,-4.5507,-4.5307,-4.5307,-4.5307,-4.5307,-4.5307,-4.5307,-4.5307,-4.5307,-4.5359,-4.5409,-4.5448,-4.5495,-4.5531,-4.5594,-4.5568,-4.5568,-4.5594,-4.5594,-4.5594,-4.5594,-4.5594,-4.5594,-4.5594,0.0,0.0,0.0,0.0,0.0,0.0,0.0,0.0,0.0,0.0,0.0,0.0,0.0,0.0,0.0,0.0,0.0,0.0,0.0,-4.0938,-4.2025,-4.3827,-4.5976,-4.6523,-4.5254,-4.5644,-4.5566,-4.5,-4.3984,-4.4433,-4.6303,-4.6735,-4.7082,-4.7354,-4.6894,-4.5507,-4.3391,-4.224,-4.0444,-3.8376,-3.8376,-3.8298,-3.8162,-3.8318,-3.8279,-3.8064,-3.7329,-3.7549,-3.7923,-3.6482,0.0,0.0,0.0,0.0,-3.6113,-3.6678,-3.7574,-3.8645,-3.987,-4.1816,-4.3899,-4.5636,-4.6183,-4.63,-4.63,-4.63,-4.63,-4.63,-4.63,0.0,0.0,0.0,0.0,0.0,0.0,0.0,0.0,0.0,0.0,0.0,0.0,0.0,0.0,0.0,0.0,0.0,0.0,0.0,0.0,0.0,-4.5579,-4.5317,-4.5307,-4.5307,-4.5307,-4.5307,-4.5307,-4.5307,-4.5307,-4.5307,-4.5307,-4.5348,-4.539,-4.54,-4.54,-4.5485,-4.5586,-4.5522,-4.555,-4.5594,-4.5594,-4.5594,-4.5594,-4.5594,-4.5586,-4.5586,0.0,0.0,0.0,0.0,0.0,0.0,0.0,0.0,0.0,0.0,-4.3104,-4.3104,-4.3104,-4.1027,0.0,0.0,0.0,0.0,-3.9599,0.0,0.0,-4.465,-4.5061,-4.5539,-4.6113,-4.4766,-4.4355,-4.5,-4.3379,-4.3847,-4.6267,-4.4861,-4.5031,-4.6378,-4.4103,-4.2891,-4.2415,-4.0094,-3.8474,-3.7477,-3.7477,-3.7028,-3.6422,-3.7184,-3.7009,-3.6325,-3.6217,-3.6258,-3.6319,-3.6088,-3.6072,0.0,0.0,0.0,0.0,-3.5233,-3.6207,-3.7356,-3.6825,-3.9571,-4.2982,-4.4738,-4.5734,-4.63,-4.63,-4.63,-4.63,0.0,0.0,0.0,0.0,0.0,0.0,0.0,0.0,0.0,0.0,0.0,0.0,0.0,0.0,0.0,0.0,0.0,0.0,0.0,0.0,0.0,0.0,-4.5703,-4.5579,-4.5317,-4.5307,-4.5307,-4.5307,-4.5307,-4.5307,-4.5307,-4.5307,-4.5307,-4.5307,-4.5307,-4.535,-4.54,-4.54,-4.5485,-4.5586,-4.5522,-4.555,-4.5594,-4.5594,-4.5594,-4.5594,-4.5594,-4.5568,-4.5513,0.0,0.0,0.0,0.0,0.0,0.0,0.0,0.0,0.0,0.0,0.0,-4.2374,-4.2374,-4.0527,0.0,0.0,0.0,0.0,-3.8792,-4.0521,0.0,-4.2731,-4.3702,-4.3982,-4.3457,-4.2695,-4.248,-4.2871,-4.1113,-4.2343,-4.6268,-4.4529,-4.5149,-4.7635,-4.5022,-4.3594,-4.2923,-3.9899,-3.8103,-3.7262,-3.6774,-3.6931,-3.7399,-3.6794,-3.6931,-3.7264,-3.5802,-3.5591,-3.5926,-3.544,-3.5601,-3.5995,-3.5993,0.0,0.0,0.0,-3.5248,-3.6181,-3.7718,-3.9861,-4.2201,-4.4445,-4.5285,-4.5695,-4.6183,-4.63,-4.63,0.0,0.0,0.0,0.0,0.0,0.0,0.0,0.0,0.0,0.0,0.0,0.0,0.0,0.0,0.0,0.0,0.0,0.0,0.0,0.0,0.0,-4.5717,-4.5623,-4.549,-4.5317,-4.5307,0.0,-4.5307,-4.5307,-4.5307,-4.5307,-4.5307,-4.5307,-4.5307,-4.5307,-4.5348,-4.54,-4.537,-4.541,-4.555,-4.5476,-4.5504,-4.5594,-4.5594,-4.5594,-4.5605,-4.5559,-4.5541,-4.5504,0.0,0.0,0.0,0.0,0.0,0.0,0.0,0.0,0.0,0.0,0.0,-4.1788,-4.1788,0.0,0.0,0.0,0.0,0.0,-3.7933,0.0,0.0,0.0,0.0,-4.2031,-4.0566,-4.0547,-4.0547,-4.0547,-3.9238,-4.1015,-4.5624,-4.4549,-4.5873,-4.9087,-4.6488,-4.4727,-4.3491,-4.027,-3.8531,-3.7867,-3.7009,-3.7438,-3.8494,-3.7633,-3.8102,-3.8923,-3.6542,-3.6115,-3.649,-3.5396,-3.546,-3.5954,-3.5737,0.0,0.0,0.0,0.0,-3.4419,-3.7635,-3.9136,-4.0424,-4.304,-4.4014,-4.4621,0.0,0.0,-4.6027,0.0,0.0,0.0,0.0,0.0,0.0,0.0,0.0,0.0,0.0,0.0,0.0,0.0,0.0,0.0,0.0,0.0,0.0,0.0,0.0,0.0,-4.5717,-4.5571,-4.5447,-4.5307,-4.5307,-4.5307,-4.5307,-4.5307,-4.5307,-4.5307,-4.5307,-4.5307,-4.5307,-4.5307,-4.5328,-4.5359,-4.5317,-4.537,-4.5476,-4.5429,-4.5467,-4.5577,-4.5577,-4.5577,-4.5568,-4.5513,-4.5485,-4.5477,0.0,0.0,0.0,0.0,0.0,0.0,0.0,0.0,0.0,0.0,0.0,0.0,-4.1788,-3.9565,-3.8065,-3.8065,-3.6561,0.0,0.0,0.0,0.0,0.0,0.0,0.0,-3.875,-3.873,-3.873,-3.873,-3.8633,-4.0391,-4.3848,-4.4586,-4.6769,-4.9933,-4.7369,-4.5293,-4.353,-4.0873,-3.9702,-3.9605,-3.8786,-3.8513,-3.8767,-4.027,-4.0894,-4.0738,-3.9021,-3.8435,-3.8201,-3.6501,-3.596,-3.5868,-3.5028,-3.4738,-3.4389,0.0,0.0,0.0,-3.4237,-3.5603,-3.6871,-3.9429,-4.1303,-4.2982,0.0,0.0,0.0,0.0,0.0,0.0,0.0,0.0,0.0,0.0,0.0,0.0,0.0,0.0,0.0,0.0,0.0,0.0,0.0,0.0,0.0,0.0,0.0,0.0,-4.5717,-4.5571,-4.5447,-4.5307,-4.5307,-4.5307,-4.5307,-4.5307,-4.5307,-4.5307,-4.5307,-4.5307,-4.5307,-4.5307,-4.5307,-4.5307,-4.5307,-4.535,-4.54,-4.539,-4.5429,-4.5504,-4.5504,-4.5504,-4.5504,-4.5504,-4.5458,-4.5399,0.0,0.0,0.0,0.0,0.0,0.0,0.0,0.0,0.0,0.0,0.0,0.0,0.0,-3.9181,-3.8007,-3.8007,-3.6504,0.0,0.0,0.0,0.0,0.0,0.0,0.0,-3.7724,-3.8252,-3.8277,-3.7773,-3.7207,-3.8965,-4.2851,-4.2613,-4.4055,-4.6789,-4.5862,-4.5737,-4.5929,-4.1615,-4.0112,-4.0561,-3.9702,-4.0034,-4.1049,-4.109,-4.1792,-4.2476,-4.019,-3.937,-3.9195,-3.8043,-3.7307,-3.6685,-3.5802,-3.4771,-3.3525,-3.1783,-3.1837,-3.2674,-3.3611,-3.4919,-3.648,-3.8512,-3.9897,-4.1186,-4.2923,-4.3762,0.0,0.0,0.0,0.0,0.0,0.0,0.0,0.0,0.0,0.0,0.0,0.0,0.0,0.0,0.0,0.0,0.0,0.0,0.0,0.0,0.0,0.0,-4.571,-4.5481,-4.5341,-4.5307,-4.5307,-4.5307,-4.5307,-4.5307,-4.5307,-4.5307,-4.5307,-4.5307,-4.5307,-4.5307,-4.5307,-4.5307,-4.5307,-4.5348,-4.539,-4.5389,-4.5409,-4.5438,-4.5485,-4.5457,-4.5429,-4.5429,-4.5429,-4.5379,0.0,0.0,0.0,0.0,0.0,0.0,0.0,0.0,-4.0496,-4.0496,0.0,0.0,0.0,0.0,-3.8207,-3.7656,-3.6626,-3.5899,-3.5621,-3.6207,0.0,0.0,0.0,0.0,-3.7203,-3.8022,-3.8055,-3.7235,-3.6675,-3.8005,-4.1091,-4.0815,-4.2079,-4.4492,-4.3619,-4.4532,-4.6474,-4.2708,-4.1264,-4.1498,-4.0912,-4.1361,-4.2435,-4.2728,-4.3569,-4.427,-4.1947,-4.1108,-4.0893,-3.9489,-3.8612,-3.7834,-3.6112,-3.4161,-3.2309,-3.1133,-3.1835,-3.291,-3.2616,-3.3806,-3.5543,-3.7282,-3.8121,-3.9195,-4.181,0.0,0.0,0.0,0.0,0.0,0.0,0.0,0.0,0.0,0.0,0.0,0.0,0.0,0.0,0.0,0.0,0.0,0.0,0.0,0.0,0.0,0.0,0.0,-4.571,-4.5456,-4.5307,-4.5307,-4.5307,-4.5307,-4.5307,-4.5307,-4.5307,-4.5307,-4.5307,-4.5144,-4.4857,-4.4857,-4.4723,-4.4456,-4.4456,-4.4812,-4.5378,-4.5378,-4.537,-4.5381,-4.5132,-4.5007,-4.494,-4.4633,-4.4518,-4.4526,0.0,0.0,0.0,0.0,0.0,0.0,0.0,0.0,-4.0573,-4.0573,0.0,0.0,0.0,0.0,0.0,-3.7011,-3.6863,-3.653,-3.5689,-3.5703,0.0,0.0,0.0,0.0,-3.7127,-3.7948,-3.7968,-3.7108,-3.7145,-3.7593,-3.8473,-3.9383,-4.1132,-4.3378,-4.0861,-4.1637,-4.4774,-4.3917,-4.3116,-4.2433,-4.2375,-4.2394,-4.2746,-4.5283,-4.6278,-4.6064,-4.4385,-4.3743,-4.3352,-4.0815,-3.9897,-3.9234,-3.5818,-3.2949,-3.0839,-3.0839,-3.1465,-3.1934,0.0,0.0,0.0,-3.5465,0.0,0.0,0.0,0.0,0.0,0.0,0.0,0.0,0.0,0.0,0.0,0.0,0.0,0.0,0.0,0.0,0.0,0.0,0.0,0.0,0.0,0.0,0.0,0.0,0.0,-4.5764,-4.5703,-4.5428,-4.5307,-4.5307,-4.5307,-4.5307,-4.5307,-4.5307,-4.5288,-4.5269,-4.5269,-4.4819,-4.3968,-4.3968,-4.3529,-4.2794,-4.2794,-4.3711,-4.5231,-4.5231,-4.5262,-4.5245,-4.4384,-4.4048,-4.3953,-4.3101,-4.2805,-4.2794,0.0,0.0,0.0,0.0,0.0,-4.397,-4.397,-4.3066,-4.2374,0.0,0.0,0.0,-4.1508,-4.0681,-3.9746,-3.8695,-3.8602,-3.8001,-3.6562,-3.6483,-3.6234,-3.5679,-3.7331,-3.7866,-3.7055,-3.7891,-3.7918,-3.7108,-3.6498,-3.6621,-3.7483,-3.7701,-3.8838,-4.0698,-4.0618,-4.0754,-4.1041,-4.0165,-4.1146,-4.3164,-4.1883,-4.2485,-4.4211,-4.4935,-4.5549,-4.5955,-4.5563,-4.5033,-4.4395,-4.3771,-4.2298,-4.0132,-3.6716,-3.3846,-3.1738,-3.1738,-3.2363,-3.2713,-3.121,0.0,0.0,0.0,0.0,0.0,0.0,0.0,0.0,0.0,0.0,0.0,0.0,0.0,0.0,0.0,0.0,0.0,0.0,0.0,0.0,0.0,0.0,0.0,0.0,0.0,0.0,0.0,-4.5892,-4.5735,-4.5555,-4.539,-4.5307,-4.5307,-4.5307,-4.5307,-4.5307,-4.5307,-4.4972,-4.435,-4.435,-4.394,-4.3138,-4.3138,-4.3004,-4.2794,-4.2794,-4.3061,-4.3482,-4.3482,-4.3492,-4.3493,-4.3264,-4.3159,-4.3129,-4.29,-4.2805,-4.2794,0.0,0.0,0.0,-4.5806,-4.4874,-4.4297,-4.4297,-4.3624,-4.3104,0.0,0.0,0.0,-4.2412,-4.1566,-4.07,-3.9881,-3.9492,-3.8575,-3.6862,-3.6774,-3.6421,-3.5584,-3.725,-3.798,-3.7506,-3.801,-3.8035,-3.7566,-3.6324,-3.5986,-3.6476,-3.6456,-3.7183,-3.8456,-3.8243,-3.8438,-3.8831,-3.7267,-3.8656,-4.1949,-4.1984,-4.2895,-4.4292,-4.4993,-4.5526,-4.591,-4.5992,-4.5737,-4.5303,-4.5011,-4.2967,-4.0093,-3.7399,-3.5252,-3.3573,-3.2851,-3.3513,-3.4099,-3.2362,-3.2889,-3.3905,-3.3768,0.0,0.0,0.0,-3.6911,0.0,0.0,0.0,0.0,0.0,0.0,0.0,0.0,0.0,0.0,0.0,0.0,0.0,0.0,0.0,0.0,0.0,0.0,0.0,0.0,-4.5886,-4.5532,-4.491,-4.4489,-4.4265,-4.4265,-4.4265,-4.4265,-4.4265,-4.4265,-4.3997,-4.3491,-4.3491,-4.3061,-4.2259,-4.2259,-4.2068,-4.1762,-4.1762,-4.1762,-4.1762,-4.1762,-4.2163,-4.2756,-4.2412,-4.2269,-4.223,-4.1868,-4.1772,-4.1762,0.0,0.0,-4.7355,-4.5864,-4.496,-4.447,-4.4566,-4.3989,-4.3528,0.0,-4.3355,-4.3278,-4.3374,-4.2604,-4.1777,-4.0997,-4.0189,-3.8931,-3.7123,-3.6958,-3.6497,-3.5547,-3.7128,-3.8048,-3.8028,-3.8144,-3.8144,-3.8028,-3.6499,-3.5684,-3.5587,-3.5657,-3.6008,-3.6533,-3.4983,-3.5507,-3.743,-3.5353,-3.6456,-3.9772,-4.2034,-4.3179,-4.3684,-4.5179,-4.5795,-4.5867,-4.5878,-4.5964,-4.594,-4.5067,-4.2749,0.0,-3.823,-3.704,-3.5947,-3.4312,-3.4938,-3.5797,-3.4138,-3.4315,-3.5135,-3.5719,0.0,0.0,-3.7361,-3.6891,0.0,0.0,0.0,0.0,0.0,0.0,0.0,0.0,0.0,0.0,0.0,0.0,0.0,0.0,0.0,0.0,0.0,0.0,-4.6172,-4.586,-4.5611,-4.5009,-4.3922,-4.3195,-4.2794,-4.2794,-4.2794,-4.2794,-4.2794,-4.2794,-4.2756,-4.266,-4.266,-4.2202,-4.1361,-4.1361,-4.0979,-4.0301,-4.0301,-4.0301,-4.0301,-4.0301,-4.1189,-4.245,-4.1667,-4.1361,-4.1285,-4.0559,-4.0301,-4.0301,0.0,-4.5864,-4.5979,-4.5671,-4.546,-4.5586,-4.6297,-4.6259,-4.6163,-4.6163,-4.4932,-4.4335,-4.5037,-4.4335,-4.3739,-4.3566,-4.2816,-4.1335,-3.895,-3.8149,-3.7093,-3.5567,-3.6505,-3.7064,-3.707,-3.7765,-3.7784,-3.707,-3.673,-3.6202,-3.5514,-3.5521,-3.5258,-3.4719,-3.436,-3.4501,-3.4994,-3.5853,-3.7427,-3.9404,-3.9959,-4.182,-4.4318,-4.4654,-4.5138,-4.5673,-4.5787,-4.5848,-4.5725,-4.4904,-4.3772,-4.2419,0.0,0.0,0.0,-3.6803,-3.6774,-3.6813,-3.5778,-3.613,-3.6501,0.0,0.0,0.0,-3.4587,-3.4686,0.0,0.0,0.0,0.0,0.0,0.0,0.0,0.0,0.0,0.0,0.0,0.0,0.0,0.0,0.0,0.0,0.0,0.0,-4.5883,-4.4863,-4.3914,-4.3283,-4.3042,-4.2889,-4.2794,-4.2794,-4.2794,-4.2794,-4.2794,-4.2794,-4.245,-4.1743,-4.1743,-4.1323,-4.053,-4.053,-4.0454,-4.0301,-4.0301,-4.0301,-4.0301,-4.0301,-4.0492,-4.0759,-4.0587,-4.053,-4.0511,-4.0358,-4.0301,-4.0301,-4.5691,-4.5951,-4.6105,-4.5691,-4.5594,-4.5748,-4.6182,-4.624,-4.6413,-4.6827,-4.6144,-4.5605,-4.5594,-4.4816,-4.4297,-4.4297,-4.3162,-4.1739,-4.0015,-3.87,-3.7437,-3.615,-3.6562,-3.7006,-3.7443,-3.7443,-3.7443,-3.7443,-3.6568,-3.5707,-3.4867,-3.5302,-3.5269,-3.4834,-3.4391,-3.4661,-3.5449,-3.5449,-3.668,-3.8803,-4.0559,-4.2517,-4.4454,-4.4882,-4.5277,-4.5603,-4.5676,-4.5742,-4.5615,-4.442,-4.3733,0.0,-4.1434,-4.061,-3.9992,0.0,-3.8748,-3.8868,-3.7542,-3.756,0.0,-3.6854,0.0,0.0,0.0,0.0,-3.4822,0.0,0.0,0.0,0.0,0.0,0.0,0.0,0.0,0.0,0.0,0.0,0.0,0.0,0.0,0.0,0.0,0.0,-4.5156,-4.3937,-4.2808,-4.2144,-4.2144,-4.1762,-4.1552,-4.1552,-4.1552,-4.1552,-4.1552,-4.1552,-4.1342,-4.0903,-4.0903,-4.0692,-4.0301,-4.0301,-4.0301,-4.0301,-4.0301,-4.0301,-4.0301,-4.0301,-4.0301,-4.0301,-4.0301,-4.0301,-4.0301,-4.0301,-4.0301,-4.0301,-4.5671,-4.6163,-4.6432,-4.5729,-4.5594,-4.5671,-4.5825,-4.5845,-4.6163,-4.7028,-4.7135,-4.6855,-4.6163,-4.5451,-4.5028,-4.5028,-4.3508,-4.2162,-4.1285,-3.9508,-3.8161,-3.7469,-3.7004,-3.7198,-3.8064,-3.7236,-3.7043,-3.7602,-3.6348,-3.5218,-3.4225,-3.5084,-3.5404,-3.5231,-3.468,-3.5295,-3.6615,-3.5257,-3.6257,-3.8969,0.0,-4.3239,-4.3932,-4.496,-4.5344,-4.5364,-4.5537,-4.5668,-4.5546,-4.4065,-4.3577,-4.3266,-4.1551,-4.1484,0.0,0.0,0.0,0.0,0.0,0.0,0.0,0.0,0.0,-3.6726,0.0,0.0,0.0,-3.5426,0.0,0.0,0.0,0.0,0.0,0.0,0.0,0.0,0.0,0.0,0.0,0.0,0.0,0.0,0.0,0.0,-4.3835,-4.2986,-4.1761,-4.1103,-4.1266,-4.0654,-4.0301,-4.0301,-4.0301,-4.0301,-4.0301,-4.0301,-4.0301,-4.0301,-4.0301,-4.0301,-4.0301,-4.0301,-4.0301,-4.0301,-4.0301,-4.0301,-4.0301,-4.0301,-4.0301,-4.0301,-4.0301,-4.0301,-4.0301,-4.0301,-4.0301,-4.0301,-4.5325,-4.5691,-4.5729,-4.5614,-4.5594,-4.5864,-4.6624,-4.6759,-4.7048,-4.7855,-4.7971,-4.7932,-4.7836,-4.774,-4.7663,-4.7663,-4.6144,-4.4806,-4.3932,-4.1574,-4.0169,-4.0073,-3.7918,-3.713,-3.7995,-3.7168,-3.6411,-3.5795,-3.6315,-3.5757,-3.4225,-3.5084,-3.5084,-3.4379,-3.5045,-3.5846,-3.6692,-3.65,-3.8327,-4.1404,-4.1788,-4.2,0.0,-4.3835,-4.4451,-4.4547,-4.5325,-4.5603,-4.5475,0.0,-4.4201,-4.3917,0.0,-4.1835,-4.1762,-4.0893,0.0,0.0,0.0,0.0,0.0,0.0,-3.8856,0.0,0.0,0.0,-3.5446,-3.3982,0.0,0.0,0.0,0.0,0.0,0.0,0.0,0.0,0.0,0.0,0.0,0.0,0.0,0.0,0.0,0.0,0.0,-4.1917,-4.0356,-3.9678,-4.0406,-4.0339,-4.0301,-4.0301,-4.0301,-4.0301,-4.0301,-4.0301,-4.0301,-4.0301,-4.0301,-4.0301,-4.0301,-4.0301,-4.0301,-4.0301,-4.0301,-4.0301,-4.0301,-4.0301,-4.0301,-4.0301,-4.0301,-4.0301,-4.0301,-4.0301,-4.0301,-4.0301,-4.3912,-4.4528,-4.4701,-4.422,-4.496,-4.5556,-4.5413,-4.6644,-4.7721,-4.8067,-4.8105,-4.8105,-4.8105,-4.7682,-4.7586,-4.8067,-4.7028,-4.597,-4.5114,-4.3143,-4.1777,-4.1277,-3.9296,-3.8373,-3.8738,-3.7411,-3.6519,-3.6192,-3.6077,-3.5391,-3.4225,-3.5084,-3.5538,-3.568,-3.6019,-3.7199,-3.8834,-3.7873,-3.8565,0.0,0.0,0.0,0.0,-4.4028,-4.5056,-4.5094,-4.5479,-4.5594,-4.5479,0.0,-4.3989,0.0,0.0,0.0,0.0,0.0,0.0,0.0,0.0,0.0,0.0,0.0,0.0,0.0,-3.654,0.0,-3.5797,0.0,0.0,0.0,0.0,0.0,0.0,0.0,0.0,0.0,0.0,0.0,0.0,0.0,0.0,0.0,0.0,0.0,0.0,0.0,0.0,-3.9457,-4.0272,-4.0301,-4.0301,-4.0301,-4.0301,-4.0301,-4.0301,-4.0301,-4.0301,-4.0301,-4.0301,-4.0301,-4.0301,-4.0301,-4.0014,-3.9565,-4.0072,-4.0014,-3.9584,-4.0091,-4.0301,-4.0301,-4.0301,-4.0301,-4.0301,-4.0301,-4.0301,-4.0301,-4.2624,-4.3412,-4.3855,-4.3489,-4.4432,-4.5182,-4.5047,-4.6778,-4.8202,-4.8432,-4.8663,-4.8817,-4.8817,-4.8298,-4.8182,-4.8759,-4.8067,-4.7221,-4.6336,-4.472,-4.3508,-4.2874,-4.1008,-3.9988,-3.9988,-3.8065,-3.6942,-3.6692,-3.5885,-3.5045,-3.4225,-3.5084,-3.5808,-3.6385,-3.6846,-3.8334,-4.0419,-3.92,-3.945,-4.0708,-4.1073,-4.1497,-4.2132,-4.4402,-4.5402,-4.5594,-4.5594,-4.5594,-4.5479,-4.4586,-4.3912,0.0,-4.3585,0.0,0.0,0.0,0.0,0.0,-4.0797,0.0,0.0,0.0,0.0,0.0,0.0,0.0,0.0,0.0,0.0,0.0,0.0,0.0,0.0,-3.3826,0.0,0.0,0.0,0.0,0.0,0.0,0.0,0.0,0.0,0.0,0.0,0.0,0.0,0.0,-4.0234,-4.0301,-4.0301,-4.0301,-4.0301,-4.0301,-4.0301,-4.0301,-4.0186,-3.9938,-3.9938,-3.9823,-3.9603,-3.9603,-3.924,-3.8686,-3.9317,-3.924,-3.8686,-3.9336,-3.9603,-3.9603,-3.9603,-3.9603,-3.9623,-3.9862,-3.9938,-3.9938,-4.1846,-4.2547,-4.3374,-4.4124,-4.4316,-4.4893,-4.6567,-4.7548,-4.8394,-4.924,-5.0087,-5.0616,-5.0616,-5.0596,-5.0596,-5.0616,-4.9817,-4.8952,-4.8086,-4.6451,-4.5518,-4.5479,-4.3066,-4.1712,-4.1712,-3.9258,-3.7546,-3.6692,-3.5885,-3.5045,-3.4225,-3.5084,-3.5519,-3.5615,-3.7238,-3.8892,-4.0496,-4.0439,-4.1862,-4.4066,-4.3316,-4.3989,-4.5364,0.0,-4.4874,-4.5594,-4.5594,0.0,0.0,-4.4586,-4.4278,0.0,0.0,0.0,0.0,0.0,0.0,0.0,0.0,0.0,0.0,-3.8543,0.0,0.0,0.0,0.0,-3.6989,0.0,0.0,0.0,0.0,0.0,-3.6618,-3.492,-3.4686,0.0,0.0,0.0,0.0,0.0,0.0,0.0,0.0,0.0,0.0,0.0,0.0,0.0,-4.0177,-4.0301,-4.0301,-4.0301,-4.0301,-4.0301,-4.0301,-4.0301,-3.9881,-3.9049,-3.9049,-3.861,-3.7769,-3.7769,-3.7769,-3.7731,-3.7769,-3.7769,-3.7731,-3.7769,-3.7769,-3.7769,-3.7769,-3.7769,-3.7884,-3.8725,-3.9049,-3.9049,-4.2662,-4.2893,-4.3008,-4.2701,-4.3566,-4.4893,-4.6635,-4.7135,-4.7817,-4.9221,-4.9663,-5.026,-5.1375,-5.101,-5.0914,-5.1452,-5.0741,-4.9894,-4.9029,-4.7894,-4.7259,-4.7259,-4.4816,-4.3451,-4.3451,-4.095,-3.9238,-3.8411,-3.7565,-3.7007,-3.6699,-3.643,-3.6596,-3.718,-3.7757,-3.9258,-4.1354,-4.1354,0.0,0.0,0.0,-4.4105,-4.5575,0.0,0.0,-4.5594,-4.5594,-4.5594,0.0,-4.5267,-4.4778,-4.4201,-4.3624,-4.2701,-4.1731,-4.145,-4.095,0.0,0.0,0.0,-4.0235,-3.9162,0.0,0.0,0.0,0.0,0.0,0.0,0.0,0.0,0.0,-3.7737,-3.6789,-3.5617,-3.502,-3.4198,0.0,0.0,0.0,0.0,0.0,0.0,0.0,0.0,0.0,0.0,0.0,0.0,0.0,-4.0301,-4.0301,-4.0301,-3.9728,-3.9451,-3.9451,-3.8877,-3.8438,-3.8132,-3.8132,-3.798,-3.7693,-3.7693,-3.7406,-3.6939,-3.7464,-3.7406,-3.6948,-3.7483,-3.7693,-3.7693,-3.7693,-3.7368,-3.7005,-3.7827,-3.8495,-3.9011,-4.3585,-4.3528,-4.3355,-4.2797,-4.3835,-4.524,-4.6682,-4.7135,-4.7952,-4.9644,-5.0106,0.0,-5.2212,0.0,-5.1798,0.0,-5.1606,-5.0644,-4.9471,-4.8875,0.0,-4.7702,-4.6374,-4.5374,0.0,0.0,-4.115,-3.9727,-3.8873,-3.8296,-3.7988,-3.7123,-3.7,-3.7546,-3.7853,-3.9084,-4.0969,-4.1873,-4.2758,0.0,0.0,-4.4652,0.0,0.0,-4.5594,-4.5594,0.0,-4.5594,-4.5594,-4.5594,-4.5229,-4.4662,-4.4066,-4.3124,-4.2143,-4.1527,-4.0931,-4.0496,-4.0496,-4.0496,0.0,0.0,-3.8907,0.0,-3.7488,0.0,0.0,0.0,0.0,0.0,0.0,0.0,-3.7598,-3.6427,-3.5321,-3.3908,0.0,0.0,0.0,0.0,0.0,0.0,0.0,0.0,-3.5981,-3.7336,0.0,0.0,0.0,0.0,-3.9976,-4.0282,-3.9451,-3.9011,-3.9011,-3.8132,-3.7559,-3.7273,-3.7273,-3.712,-3.6814,-3.6814,-3.6528,-3.6061,-3.6585,-3.6528,-3.608,-3.6604,-3.6814,-3.6814,-3.6814,-3.6489,-3.6137,-3.6967,-3.7636,-3.8209,-4.4586,-4.4451,-4.4489,-4.4489,-4.5075,-4.5836,0.0,0.0,-4.8663,0.0,-5.1375,-5.225,-5.3164,-5.326,-5.326,-5.326,-5.2423,-5.1212,-4.9625,-4.9452,0.0,0.0,-4.774,-4.7355,-4.5768,0.0,0.0,0.0,-3.9823,-3.8969,-3.8104,-3.7199,-3.675,-3.6788,-3.7623,-3.8469,-3.9477,-4.2027,-4.3585,-4.4432,-4.5267,-4.5594,-4.5594,-4.5594,0.0,-4.5594,-4.5594,-4.5594,-4.5594,-4.5594,-4.5594,-4.5306,-4.3624,-4.3104,-4.2758,-4.1016,-4.0496,-4.0496,-4.0496,-4.0496,-4.0323,-3.9554,0.0,0.0,0.0,0.0,-3.9321,0.0,0.0,0.0,0.0,0.0,-3.9019,-3.7277,-3.5585,-3.3631,-3.1141,0.0,0.0,0.0,0.0,0.0,0.0,-3.3557,-3.4073,-3.6309,-3.5032,-3.5549,0.0,0.0,0.0,-4.0205,-3.9393,-3.8935,-3.8935,-3.8037,-3.7196,-3.6443,-3.6443,-3.6003,-3.5209,-3.5209,-3.5209,-3.5209,-3.5209,-3.5209,-3.5209,-3.5209,-3.5209,-3.5209,-3.5209,-3.5209,-3.5305,-3.6175,-3.6462,-3.6672,-4.6144,-4.6721,-4.7124,-4.7124,-4.574,-4.5143,0.0,0.0,0.0,0.0,-5.101,-5.2481,-5.3991,-5.4164,-5.4164,-5.4164,-5.2779,0.0,0.0,0.0,0.0,-4.9721,-4.8682,-4.7894,-4.7471,-4.6009,-4.4344,-4.2431,0.0,-4.0719,-3.9823,-3.8354,-3.768,-3.768,-3.7892,-3.8469,-3.9477,-4.2027,-4.3932,-4.5287,-4.5518,-4.5594,0.0,0.0,-4.5594,-4.5594,-4.5594,-4.5594,-4.5594,-4.5594,-4.5594,-4.5306,-4.3624,-4.3104,-4.2758,-4.1016,-4.0496,-4.0496,-4.0496,-4.0496,-4.0458,-4.0246,-3.9746,-3.9246,0.0,0.0,0.0,0.0,0.0,0.0,0.0,0.0,0.0,-3.7193,-3.5514,-3.4183,-3.3518,0.0,0.0,0.0,0.0,0.0,0.0,0.0,-3.4094,-3.4695,0.0,0.0,0.0,0.0,0.0,-3.9317,-3.8495,-3.8037,-3.8037,-3.6585,-3.5744,-3.5526,-3.5526,-3.5411,-3.5209,-3.5209,-3.5209,-3.5209,-3.5209,-3.5209,-3.5209,-3.5209,-3.5209,-3.5209,-3.5209,-3.5209,-3.5305,-3.6175,-3.608,-3.5774,-4.7394,-4.7798,-4.8221,-4.8606,0.0,0.0,-4.7336,-4.7432,0.0,-4.9221,-5.0856,0.0,-5.378,-5.4587,-5.5011,-5.5011,-5.3472,0.0,-5.1923,0.0,0.0,-5.0125,-4.9548,-4.8875,-4.8125,-4.7182,0.0,-4.3104,0.0,-4.1546,-3.9958,-3.8623,-3.7796,-3.745,-3.7834,-3.8277,-3.8911,-4.1854,-4.3855,-4.5056,-4.546,0.0,0.0,-4.5594,-4.5594,-4.5594,-4.5594,-4.5594,-4.5594,-4.5594,-4.5594,-4.5306,-4.3624,-4.3104,-4.2758,-4.1016,-4.0496,-4.0496,-4.0496,-4.0496,-4.0496,-4.0496,-4.0169,-3.9823,-3.9823,-3.9823,-3.9823,0.0,0.0,0.0,0.0,0.0,0.0,-3.6054,-3.4928,-3.4172,0.0,0.0,0.0,0.0,0.0,0.0,0.0,0.0,0.0,0.0,0.0,0.0,0.0,0.0,0.0,0.0,-3.8151,-3.7693,-3.7693,-3.605,-3.5209,-3.5209,-3.5209,-3.5209,-3.5209,-3.5209,-3.5209,-3.5209,-3.5209,-3.5209,-3.5209,-3.5209,-3.5209,-3.5209,-3.5209,-3.5209,-3.5267,-3.5755,-3.5621,-3.5439,-4.8394,-4.8452,-4.8798,0.0,0.0,0.0,0.0,-4.8606,0.0,-4.9779,0.0,-5.2558,-5.3433,-5.4838,-5.5703,-5.5703,0.0,-5.2876,-5.2115,-5.1202,-5.0366,-4.9606,-5.0308,-4.9933,-4.8317,-4.8163,-4.6509,0.0,0.0,-4.1797,-3.9284,-3.8411,-3.7526,-3.6731,-3.7603,0.0,0.0,-4.1835,-4.3624,-4.4528,-4.5306,-4.5594,-4.5594,-4.5594,-4.5594,-4.5594,-4.5594,-4.5594,-4.5594,-4.5594,-4.5594,-4.5306,-4.3624,-4.3104,-4.2758,-4.1016,-4.0496,-4.0496,-4.0496,-4.0496,-4.0496,-4.0496,-4.0496,-4.0496,-4.0496,-4.0496,-4.0496,-4.0496,-4.0496,0.0,0.0,0.0,0.0,0.0,0.0,0.0,0.0,0.0,0.0,0.0,0.0,0.0,0.0,0.0,0.0,0.0,0.0,0.0,0.0,0.0,0.0,0.0,-3.7999,0.0,-3.7693,0.0,-3.5209,-3.5209,-3.5209,-3.5209,-3.5209,-3.5209,-3.5209,-3.5209,-3.5209,-3.5209,-3.5209,-3.5209,-3.5209,-3.5209,-3.5209,-3.5209,-3.5209,-3.5209,-3.5209,-3.542,-4.9067,-5.0298,-5.1068,-5.0548,0.0,-5.1404,-5.125,-5.1231,-5.1538,-5.2414,-5.3414,-5.4357,-5.5164,-5.5511,-5.5703,-5.5703,-5.4164,0.0,0.0,0.0,0.0,-5.0481,-5.0616,-5.0231,-4.9183,-4.8471,-4.6778,0.0,0.0,-4.1797,-3.9284,-3.8411,-3.7526,-3.6731,0.0,0.0,-4.2258,-4.2854,0.0,-4.5383,-4.5537,-4.5594,-4.5594,-4.5594,-4.5594,-4.5594,-4.5594,-4.5594,-4.5594,-4.5594,-4.5594,-4.5306,-4.3624,-4.3104,-4.2758,-4.1016,-4.0496,-4.0496,-4.0496,-4.0496,-4.0496,-4.0496,-4.0496,-4.0496,-4.0496,-4.0496,-4.0496,-4.0496,-4.0496,-4.0035,-3.8507,0.0,0.0,0.0,0.0,0.0,0.0,0.0,0.0,0.0,0.0,0.0,0.0,0.0,0.0,0.0,0.0,0.0,0.0,0.0,0.0,0.0,0.0,0.0,0.0,0.0,0.0,-3.5209,-3.5209,-3.5209,-3.5209,-3.5209,-3.5209,-3.5209,-3.5209,-3.5209,-3.5209,-3.5209,-3.5209,-3.5209,-3.5209,-3.5209,-3.5209,-3.5209,-3.5209,-3.5335,-5.1298,-5.1664,-5.1873,-5.1757,0.0,0.0,0.0,-5.3364,0.0,-5.2624,-5.328,-5.3972,-5.4357,-5.5184,-5.5703,-5.5703,-5.4164,-5.3203,-5.3203,-5.1625,-5.0712,-5.0712,-5.0712,-5.0289,-4.9413,-4.8548,-4.6855,-4.4297,0.0,0.0,-3.8623,-3.82,-3.7526,-3.675,0.0,-4.0065,0.0,0.0,0.0,-4.4979,-4.5421,-4.5594,-4.5594,-4.5594,-4.5594,-4.5594,-4.5594,-4.5594,-4.5594,-4.5594,-4.5594,-4.5383,-4.4124,-4.3431,-4.2854,-4.1546,-4.0854,-4.0496,-4.0496,-4.0496,-4.0496,-4.0496,-4.0496,-4.0496,-4.0496,-4.0496,-4.0496,-4.0496,-4.0169,-3.9361,-3.7642,-3.6327,0.0,0.0,0.0,0.0,0.0,0.0,0.0,0.0,0.0,0.0,0.0,0.0,0.0,0.0,0.0,0.0,0.0,0.0,0.0,0.0,0.0,0.0,0.0,0.0,0.0,-3.5209,-3.5209,-3.5209,-3.5209,-3.5209,-3.5209,-3.5182,-3.5089,-3.5046,-3.5018,-3.4898,-3.4841,-3.4841,-3.4841,-3.4917,-3.5037,-3.4898,-3.4926,-3.5177,-5.3015,-5.2582,0.0,0.0,-5.2973,0.0,-5.383,-5.4625,-5.46,-5.2931,-5.3257,-5.3669,-5.3731,-5.4914,-5.5626,-5.5453,-5.4068,-5.3126,-5.2953,-5.1529,-5.0712,-5.0712,-5.0712,-5.0385,-4.9683,-4.8644,-4.7028,0.0,0.0,0.0,0.0,-3.8354,0.0,0.0,0.0,0.0,0.0,0.0,-4.3835,-4.4643,-4.5325,-4.5594,-4.5594,-4.5594,-4.5594,-4.5594,-4.5594,-4.5594,-4.5594,-4.5594,-4.5594,-4.546,-4.4566,-4.3874,-4.3143,-4.2104,-4.1316,-4.0746,-4.0554,-4.0496,-4.0496,-4.0496,-4.0496,-4.0496,-4.0496,-4.0496,-4.0458,-4.0285,-3.9457,-3.8334,-3.6942,-3.6038,0.0,0.0,0.0,0.0,0.0,0.0,0.0,0.0,0.0,0.0,0.0,0.0,0.0,0.0,0.0,0.0,-3.2642,-3.3788,0.0,0.0,0.0,0.0,-3.7158,0.0,-3.5209,0.0,-3.5209,-3.5209,-3.5201,-3.5168,-3.5132,-3.5124,-3.4908,-3.4803,-3.4793,-3.4582,-3.4508,-3.4508,-3.4508,-3.4632,-3.4783,-3.4572,-3.4643,-3.4945,0.0,0.0,0.0,0.0,0.0,0.0,0.0,-5.4286,-5.4974,-5.5303,-5.5197,-5.5195,-5.5432,-5.5607,-5.5415,-5.4684,-5.376,-5.2856,-5.2077,-5.1183,-5.0712,-5.0712,-5.0712,-5.0654,-5.0577,-4.8952,-4.7625,0.0,0.0,0.0,0.0,0.0,0.0,0.0,0.0,0.0,0.0,-4.3835,-4.4682,-4.5498,-4.5575,-4.5594,-4.5594,-4.5594,-4.5594,-4.5594,-4.5594,-4.5594,-4.5594,-4.5594,-4.5594,-4.546,-4.4566,-4.4239,-4.3874,-4.2277,-4.1731,-4.1508,-4.0708,-4.0496,-4.0496,-4.0496,-4.0496,-4.0496,-4.0496,-4.0496,-4.0285,-3.9554,-3.8104,-3.6885,-3.6731,-3.6038,-3.55,0.0,0.0,0.0,0.0,0.0,-3.6734,-3.6493,0.0,0.0,0.0,0.0,0.0,0.0,0.0,0.0,0.0,-3.2164,0.0,-3.5362,0.0,-3.4617,-3.5439,-3.5286,0.0,-3.5209,-3.5209,-3.5209,-3.5182,-3.5019,-3.4936,-3.4908,-3.4653,-3.454,-3.454,-3.4518,-3.4508,-3.4508,-3.4508,-3.4518,-3.454,-3.4518,-3.4518,-3.454,0.0,0.0,0.0,0.0,0.0,0.0,0.0,-5.4269,-5.4651,-5.5086,-5.5064,-5.5037,-5.5145,-5.5159,-5.4848,-5.4027,-5.315,-5.2372,-5.1702,-5.087,-5.0493,-5.0683,-5.0712,-5.0712,-5.0712,-4.899,-4.7721,0.0,0.0,0.0,0.0,0.0,0.0,0.0,0.0,-4.272,-4.3835,-4.4162,-4.4797,-4.5594,-4.5594,-4.5594,-4.5594,-4.5594,-4.5594,-4.5594,-4.5594,-4.5594,-4.5594,-4.5594,-4.5594,-4.5537,-4.519,-4.472,-4.4162,-4.3508,-4.2585,-4.1712,-4.1373,-4.0893,-4.0496,-4.0496,-4.0496,-4.0496,-4.0496,-4.0496,-4.0265,-3.9477,-3.7916,-3.6548,-3.6022,-3.5624,-3.5372,0.0,0.0,0.0,0.0,0.0,0.0,-3.7332,0.0,-3.5078,0.0,0.0,0.0,0.0,0.0,0.0,0.0,0.0,0.0,-3.4426,0.0,-3.4685,-3.5028,-3.5028,-3.5028,-3.5028,-3.5132,-3.5132,-3.5019,-3.4945,-3.4752,-3.4469,-3.4379,-3.4232,-3.4087,-3.4087,-3.4087,-3.4087,-3.4087,-3.4172,-3.4291,-3.4136,-3.4184,-3.4291,-5.4511,0.0,-5.3698,0.0,-5.3842,-5.3717,-5.4102,-5.4142,-5.4246,-5.4479,-5.4511,-5.4576,-5.4776,-5.4791,-5.4465,-5.3631,-5.2793,-5.2023,-5.1402,-5.0563,-5.019,-5.0429,-5.044,0.0,-5.044,-4.9074,-4.7972,-4.7146,-4.5502,0.0,0.0,0.0,0.0,0.0,-4.3066,-4.3778,-4.4316,-4.4566,-4.5037,-4.5594,-4.5594,-4.5594,-4.5594,-4.5594,-4.5594,-4.5594,-4.5594,-4.5594,-4.5594,-4.5594,-4.5586,-4.5568,-4.5568,-4.5145,-4.4607,-4.4359,-4.3427,-4.2409,-4.1909,-4.1314,-4.0784,-4.0534,-4.0476,-4.0476,-4.0476,-4.0265,-3.9784,-3.8727,-3.7321,-3.6101,-3.5487,-3.533,-3.5308,0.0,0.0,0.0,0.0,0.0,0.0,0.0,-3.6555,-3.5081,-3.3318,0.0,0.0,0.0,0.0,0.0,0.0,0.0,0.0,0.0,0.0,0.0,0.0,0.0,-3.486,-3.4783,-3.5,-3.4991,-3.4773,-3.4713,-3.4469,-3.4086,-3.4086,-3.3972,-3.3807,-3.3807,-3.3807,-3.3807,-3.3807,-3.3908,-3.4061,-3.3868,-3.3921,-3.4061,-5.3813,-5.3794,-5.3794,-5.3794,-5.3794,-5.3794,-5.3813,-5.3813,-5.3813,-5.3794,-5.3813,-5.4054,-5.4731,-5.4791,-5.445,-5.3579,-5.276,-5.1926,-5.1059,-5.0258,-4.9817,0.0,0.0,-4.9817,-4.9817,-4.9274,-4.8552,-4.7693,0.0,0.0,-4.4239,0.0,0.0,-4.3124,-4.3932,-4.4297,-4.4355,-4.5229,-4.5594,-4.5594,-4.5594,-4.5594,-4.5594,-4.5594,-4.5594,-4.5594,-4.5594,-4.5594,-4.5594,-4.5594,-4.5559,-4.5504,-4.5504,-4.5485,-4.5322,-4.446,-4.4192,-4.3809,-4.2141,-4.1681,-4.147,-4.0618,-4.0407,-4.0407,-4.0407,-3.9744,-3.8632,-3.6991,-3.5929,-3.5308,-3.5308,-3.5308,-3.5308,-3.5308,0.0,0.0,0.0,0.0,0.0,0.0,-3.5537,-3.4014,-3.3995,0.0,0.0,0.0,0.0,0.0,0.0,0.0,0.0,-3.3543,-3.3418,0.0,-3.3314,-3.4366,-3.4763,-3.4508,-3.4773,-3.4763,-3.4508,-3.4309,-3.4061,-3.3788,-3.3788,-3.3788,-3.3807,-3.3807,-3.3807,-3.3807,-3.3807,-3.3788,-3.3788,-3.3807,-3.3788,-3.3788,-5.3696,-5.3734,-5.3735,-5.3793,-5.3813,-5.3813,-5.3813,-5.3813,-5.3813,-5.3813,-5.3813,-5.3889,-5.4089,-5.4125,-5.3788,0.0,-5.2648,-5.2001,0.0,-5.0493,-5.0183,-4.9822,-4.9803,-4.9803,-4.9803,-4.9048,-4.8523,-4.8239,0.0,0.0,0.0,-4.4921,-4.4806,-4.4825,-4.5075,-4.519,-4.521,-4.5479,-4.5594,-4.5605,-4.5559,-4.5522,-4.5522,-4.5485,-4.5495,-4.5541,-4.5485,-4.5513,-4.5586,-4.5495,-4.5485,-4.5485,-4.5458,-4.5419,-4.539,-4.5103,-4.4633,-4.3943,-4.2812,-4.2122,-4.1489,-4.0618,-4.0407,-4.0407,-4.0407,-3.9725,-3.8786,-3.7712,-3.6768,-3.594,-3.5404,-3.5266,-3.5433,-3.6026,0.0,0.0,0.0,0.0,0.0,0.0,-3.5982,-3.4595,0.0,-3.4254,0.0,0.0,0.0,0.0,0.0,0.0,0.0,0.0,-3.341,0.0,-3.3026,-3.3968,-3.4379,-3.4309,-3.4526,-3.4516,-3.4286,-3.403,-3.3868,-3.3807,-3.3807,-3.3807,-3.3807,-3.3807,-3.3807,-3.3807,-3.3807,-3.3807,-3.3807,-3.3807,-3.3807,-3.3807,-5.3598,-5.3617,-5.3637,-5.3678,-5.3697,-5.3716,-5.3736,-5.3774,-5.3755,-5.3793,-5.3813,-5.3813,-5.3813,-5.3813,0.0,-5.3069,-5.2697,-5.1992,-5.0866,-5.0491,-5.0013,-4.9389,-4.9352,-4.9352,-4.9352,0.0,0.0,-4.8239,-4.6947,-4.6146,-4.5812,-4.5611,-4.5522,-4.5522,-4.5522,-4.5522,-4.5522,-4.5522,-4.5522,-4.5513,-4.5485,-4.5457,-4.5467,-4.5419,-4.5429,-4.5467,-4.5419,-4.5448,-4.5513,-4.5429,-4.5429,-4.5458,-4.5409,-4.538,-4.5361,-4.5361,-4.5016,-4.4422,-4.3542,-4.2737,-4.1895,-4.1024,-4.0584,-4.0278,-3.9952,-3.9444,-3.8831,-3.8008,-3.7351,-3.6703,-3.5892,-3.5723,-3.587,-3.6405,0.0,-3.7884,-3.8438,0.0,0.0,0.0,0.0,0.0,0.0,-3.5753,0.0,0.0,0.0,0.0,0.0,0.0,0.0,-3.2836,-3.3616,0.0,-3.3247,-3.3889,-3.4148,-3.4049,-3.4184,-3.4172,-3.4049,-3.3868,-3.3807,-3.3807,-3.3807,-3.3807,-3.3807,-3.3807,-3.3807,-3.3807,-3.3807,-3.3807,-3.3807,-3.3807,-3.3807,-3.3807,-5.3573,-5.3518,0.0,0.0,-5.3499,0.0,-5.3656,-5.3694,-5.3715,-5.3774,-5.3793,-5.3793,-5.3793,-5.3756,-5.3736,-5.3675,0.0,0.0,0.0,-5.0434,-4.9603,-4.8716,-4.8698,0.0,-4.8605,-4.8903,-4.866,-4.7804,-4.6803,-4.6269,-4.6159,-4.5672,-4.5438,-4.5362,-4.5362,-4.5362,-4.5362,-4.5362,-4.5362,-4.5362,-4.539,-4.54,-4.54,-4.54,-4.54,-4.54,-4.539,-4.54,-4.54,-4.54,-4.54,-4.5408,-4.5379,-4.5348,-4.5307,-4.5307,-4.5307,-4.5105,-4.4236,-4.3452,-4.266,-4.1724,-4.0903,-4.0091,-3.9279,-3.9088,-3.8839,-3.796,-3.7789,-3.754,-3.6729,-3.6576,-3.6596,-3.6653,-3.7311,-3.7789,-3.7789,0.0,0.0,0.0,0.0,0.0,0.0,-3.7432,-3.6971,0.0,0.0,0.0,0.0,0.0,-3.2713,-3.4129,-3.3934,-3.3807,-3.3807,-3.4049,-3.4049,-3.3807,-3.3807,-3.3807,-3.3807,-3.3807,-3.3807,-3.3807,-3.3807,-3.3807,-3.3807,-3.3807,-3.3807,-3.3807,-3.3807,-3.3807,-3.3807,-3.3807,-3.3807,-3.3807,0.0,0.0,-5.338,-5.3481,-5.3499,-5.3519,-5.3539,-5.3558,-5.3539,-5.3579,-5.3579,-5.3579,-5.3579,-5.3481,-5.342,-5.3418,-5.3391,-5.2969,-5.2077,-5.1819,-5.1062,-4.9584,-4.9529,-4.9233,-4.8605,-4.8678,-4.8427,-4.7804,-4.7551,-4.6901,-4.5904,-4.5957,-4.5684,-4.5096,-4.5096,-4.5096,-4.5096,-4.5096,-4.5096,-4.5107,-4.531,-4.5409,-4.538,-4.5339,-4.5369,-4.5399,-4.5339,-4.5361,-4.539,-4.533,-4.5359,-4.5398,-4.5338,-4.5317,-4.5307,-4.5307,-4.5307,-4.5105,-4.4236,-4.3854,-4.3357,-4.1877,-4.0903,-4.0244,-4.0034,-3.9995,-3.9728,-3.8877,-3.8686,-3.8438,-3.7578,-3.7426,-3.7636,-3.8304,-3.8572,-3.8686,-3.8686,0.0,0.0,0.0,-3.6321,-3.6187,-3.6166,-3.7258,-3.713,0.0,0.0,0.0,0.0,0.0,-3.3061,-3.3858,-3.3829,-3.3807,-3.3807,-3.3855,-3.3855,-3.3807,-3.3807,-3.3807,-3.3807,-3.3807,-3.3807,-3.3807,-3.3807,-3.3807,-3.3807,-3.3807,-3.3807,-3.3807,-3.3807,-3.3807,-3.3807,-3.3807,-3.3807,-3.3807,-5.4375,-5.3805,-5.3274,-5.3355,-5.3375,-5.3357,-5.34,-5.34,-5.342,-5.3499,-5.3499,-5.3499,-5.3499,-5.344,-5.338,-5.3318,-5.3416,-5.3105,-5.2215,-5.216,-5.1442,-4.9784,-4.971,-4.9323,-4.8476,-4.8458,-4.8329,-4.8027,-4.7811,-4.7341,-4.6615,-4.6519,-4.6239,-4.5817,-4.5817,-4.5817,-4.5798,-4.542,-4.5281,-4.5243,-4.5038,-4.5023,-4.5132,-4.5098,-4.5194,-4.5348,-4.5317,-4.5319,-4.5341,-4.5298,-4.5328,-4.5338,-4.5307,-4.5307,-4.5307,-4.5307,-4.5307,-4.5201,-4.4723,-4.4293,-4.3605,-4.1915,-4.117,-4.075,-4.0377,-4.0301,-4.0167,-3.969,-3.9603,-3.9336,-3.8457,-3.8285,-3.8411,-3.8766,-3.8832,-3.8774,-3.8664,-3.7914,0.0,-3.6575,-3.6505,-3.6443,-3.6314,-3.7367,-3.72,-3.5077,0.0,0.0,-3.3389,-3.3302,-3.3473,-3.3788,-3.3807,-3.3807,-3.3807,-3.3807,-3.3807,-3.3807,-3.3807,-3.3807,-3.3807,-3.3807,-3.3807,-3.3807,-3.3807,-3.3807,-3.3807,-3.3807,-3.3807,-3.3807,-3.3807,-3.3807,-3.3807,-3.3807,-3.378,-3.3753,-5.4748,-5.4032,-5.339,-5.339,-5.3277,-5.3227,-5.3295,-5.3277,-5.3318,-5.3439,-5.3459,-5.3459,-5.3459,-5.3459,-5.3418,-5.3297,-5.323,-5.2913,-5.2215,-5.2179,-5.1518,-5.0033,-4.9959,-4.9554,-4.871,-4.8563,-4.8434,-4.8306,-4.7903,-4.7637,-4.7525,-4.7111,-4.6855,-4.6742,-4.6742,-4.6742,-4.6686,-4.6008,-4.5727,-4.5652,-4.5012,-4.4834,-4.4947,-4.5117,-4.5174,-4.5192,-4.539,-4.533,-4.5173,-4.5256,-4.5275,-4.5216,-4.5216,-4.5216,-4.5216,-4.5216,-4.5216,-4.5235,-4.5297,-4.4626,-4.3592,-4.2171,-4.1598,-4.1205,-4.0509,-4.0262,-4.0176,-4.0176,-4.0176,-3.9948,-3.9204,-3.9071,-3.9004,-3.8822,-3.8769,-3.8617,-3.8315,0.0,-3.6937,-3.6789,-3.6759,-3.674,-3.6703,-3.7279,-3.7005,-3.5459,-3.5137,0.0,0.0,-3.3807,-3.3807,-3.3807,-3.3807,-3.3807,-3.3807,-3.3807,-3.3807,-3.3807,-3.3807,-3.3807,-3.3807,-3.3807,-3.3807,-3.3807,-3.3807,-3.3807,-3.3807,-3.3807,-3.3807,-3.3807,-3.3807,-3.3807,-3.3807,-3.3793,-3.3753,-3.3698,-5.629,-5.5244,-5.4216,-5.4216,-5.3665,-5.3206,-5.3227,-5.3227,-5.3227,-5.3248,-5.3248,-5.3248,-5.3248,-5.3248,-5.3248,-5.3227,-5.3206,-5.3148,-5.3023,-5.3023,-5.2601,-5.1665,-5.1628,-5.1242,-5.0435,-4.9738,-4.904,-4.8306,-4.8235,-4.7831,-4.7169,-4.7378,-4.7103,-4.6469,-4.6469,-4.6469,-4.645,-4.6339,-4.6283,-4.628,-4.6394,-4.6054,-4.558,-4.6541,-4.5923,-4.4699,-4.5879,-4.5554,-4.4617,-4.5129,-4.5109,-4.4879,-4.4879,-4.4879,-4.4879,-4.4879,-4.4879,-4.4946,-4.5224,-4.4508,-4.3596,-4.3331,-4.203,-4.0804,-4.066,-4.0119,-3.9623,-3.9623,-3.9623,-3.9585,-3.9453,-3.9416,-3.9474,-3.9662,-3.9516,-3.9171,0.0,0.0,-3.6672,-3.5752,-3.5653,-3.5565,-3.5316,-3.6053,-3.6135,-3.5147,-3.5032,-3.4656,-3.3844,-3.3807,-3.3807,-3.3807,-3.3807,-3.3807,-3.3807,-3.3807,-3.3807,-3.3807,-3.3807,-3.3807,-3.3807,-3.3807,-3.3807,-3.3807,-3.3807,-3.3807,-3.3807,-3.3807,-3.3807,-3.3807,-3.3807,-3.3807,-3.3775,-3.3739,-3.3712,-3.3684,-5.673,-5.5849,-5.4913,-5.4473,-5.4087,-5.3702,-5.328,-5.3185,-5.3185,-5.3185,-5.3185,-5.3185,-5.3185,-5.3185,-5.3185,-5.3185,-5.3185,-5.3185,-5.3185,-5.3185,-5.2839,-5.2032,-5.1995,-5.161,-5.082,-5.0014,-4.9408,-4.9003,-4.8526,-4.8122,-4.7755,-4.7905,-4.7776,-4.7425,-4.7425,-4.7425,-4.7388,-4.6964,-4.678,-4.676,-4.6434,-4.6208,-4.6088,-4.663,-4.6348,-4.5712,-4.5948,-4.5868,-4.5613,-4.501,-4.4997,-4.5162,-4.4717,-4.4585,-4.4585,-4.4585,-4.4807,-4.5109,-4.5256,-4.4779,-4.4144,-4.3708,-4.2794,-4.1772,-4.089,-4.0415,-4.0015,-3.9596,-3.9514,-3.9514,-3.9514,-3.9514,-3.9483,-3.9458,-3.9376,0.0,0.0,-3.7221,-3.6274,-3.5296,-3.5172,-3.4971,-3.4412,-3.5114,-3.5243,-3.4417,-3.4344,-3.4192,-3.3825,-3.3807,-3.3807,-3.3807,-3.3807,-3.3807,-3.3807,-3.3807,-3.3807,-3.3807,-3.3807,-3.3807,-3.3807,-3.3807,-3.3807,-3.3807,-3.3807,-3.3807,-3.3807,-3.3766,-3.3766,-3.3775,-3.3726,-3.3996,-3.4422,-3.4329,-3.456,-3.4925,-5.7079,-5.6436,-5.5666,-5.5078,-5.4803,-5.4473,-5.3849,-5.361,-5.3482,-5.3482,-5.3314,-5.3185,-5.3185,-5.3185,-5.3185,-5.3185,-5.3185,-5.3185,-5.3185,-5.3185,-5.2931,-5.2307,-5.227,-5.1903,-5.1096,-5.0453,-4.9978,-4.961,-4.893,-4.8508,-4.8306,-4.8306,-4.8306,-4.8306,-4.8306,-4.8306,-4.8269,-4.7626,-4.7369,-4.7333,-4.6709,-4.6506,-4.6584,-4.6854,-4.6818,-4.6545,-4.6285,-4.6353,-4.6396,-4.5115,-4.5058,-4.5361,-4.4566,-4.4303,-4.4303,-4.4303,-4.4688,-4.5087,-4.5087,-4.4862,-4.4479,-4.3844,-4.3313,-4.259,-4.1344,-4.0933,-4.0555,-3.976,-3.9591,-3.9535,-3.9362,-3.9311,-3.9272,-3.9129,0.0,0.0,0.0,-3.7132,-3.6266,-3.5389,-3.5133,-3.4674,-3.388,-3.4362,-3.4454,-3.3844,-3.3807,-3.3807,-3.3807,-3.3807,-3.3807,-3.3807,-3.3807,-3.3807,-3.3807,-3.399,-3.4082,-3.4082,-3.4082,-3.4082,-3.4082,-3.3899,-3.3807,-3.3807,-3.3793,-3.378,-3.378,-3.3698,-3.3712,-3.3758,-3.3848,-3.4333,-3.4971,-3.5027,-3.5344,-3.569,-5.7905,-5.7262,-5.6693,-5.6638,-5.6014,-5.5504,-5.5449,-5.4785,-5.4308,-5.4308,-5.3665,-5.3185,-5.3185,-5.3185,-5.3185,-5.3185,-5.3185,-5.3185,-5.3185,-5.3185,-5.3167,-5.3115,-5.3115,-5.2729,-5.1922,-5.1848,-5.1098,-4.961,-4.9537,-4.9077,-4.8306,-4.8306,-4.8306,-4.8306,-4.8306,-4.8306,-4.8306,-4.8251,-4.8214,-4.8214,-4.8159,-4.7682,-4.7169,-4.8231,-4.7513,-4.6136,-4.7442,-4.7094,-4.5915,-4.5608,-4.5383,-4.5095,-4.4278,-4.4017,-4.4017,-4.4017,-4.4236,-4.4471,-4.4471,-4.4265,-4.4045,-4.3989,-4.3164,-4.2316,-4.2206,-4.1618,-4.0845,-4.0034,-3.9868,-3.9648,-3.8912,-3.8765,-3.8837,-3.9059,0.0,0.0,-3.8957,-3.8073,-3.7107,-3.6303,-3.5481,-3.4674,-3.388,-3.3844,-3.3862,-3.3807,-3.3807,-3.3807,-3.3807,-3.3807,-3.3807,-3.3807,-3.3807,-3.3807,-3.3807,-3.4546,-3.4912,-3.4912,-3.4912,-3.4912,-3.4894,-3.4137,-3.3807,-3.3807,-3.3739,-3.3712,-3.3698,-3.3647,-3.3619,-3.3692,-3.4426,-3.4754,-3.4885,-3.556,-3.5366,-3.4785,-5.7997,-5.7758,-5.7391,-5.6895,-5.6547,-5.618,-5.5688,-5.5335,-5.5133,-5.5133,-5.4436,-5.4124,-5.4638,-5.3812,-5.3387,-5.3904,-5.35,-5.3185,-5.3185,-5.3185,-5.3185,-5.3185,-5.3185,-5.3078,-5.2747,-5.2252,-5.1683,-5.1098,-5.0582,-4.9921,-4.9095,-4.9095,-4.882,-4.8306,-4.8306,-4.8306,-4.8306,-4.8306,-4.8306,-4.8306,-4.8306,-4.8122,-4.7884,-4.8329,-4.8034,-4.7407,-4.746,-4.7444,-4.7224,-4.6165,-4.6055,-4.6154,-4.4845,-4.4438,-4.4346,-4.383,-4.3744,-4.3839,-4.3839,-4.3905,-4.4005,-4.4005,-4.3527,-4.291,-4.2415,-4.2066,-4.1479,-4.0157,-3.99,-3.9643,-3.8854,-3.8707,-3.8719,-3.8855,0.0,-3.8569,-3.8169,-3.775,-3.7199,-3.6395,-3.6009,-3.5697,-3.5385,-3.4857,-3.4546,-3.4546,-3.4082,-3.3807,-3.3807,-3.3807,-3.3807,-3.3807,-3.427,-3.4289,-3.3807,-3.4601,-3.5004,-3.5004,-3.5004,-3.4976,-3.4911,-3.4106,-3.3712,-3.3671,-3.3643,-3.3647,-3.3629,-3.3563,-3.3563,-3.3609,-3.3837,-3.4593,-3.5578,-3.5768,-3.63,-3.6855,-5.7997,-5.7997,-5.7831,-5.7281,-5.7189,-5.6987,-5.6436,-5.6124,-5.5978,-5.5978,-5.528,-5.4987,-5.5559,-5.4601,-5.4069,-5.4363,-5.3904,-5.3482,-5.3203,-5.3185,-5.3185,-5.3185,-5.3185,-5.3185,-5.3185,-5.2656,-5.2252,-5.1995,-5.1444,-5.0765,-4.9978,-4.9721,-4.928,-4.8691,-4.8416,-4.8306,-4.8306,-4.8306,-4.8306,-4.8306,-4.8306,-4.8306,-4.8306,-4.8306,-4.8306,-4.8233,-4.7663,-4.7828,-4.8104,-4.6728,-4.6636,-4.6819,-4.5205,-4.4544,-4.4213,-4.3644,-4.3515,-4.3515,-4.3515,-4.3666,-4.3846,-4.3846,-4.3666,-4.3368,-4.28,-4.2671,-4.2286,-4.0928,-4.0451,-4.0029,-3.9239,-3.8872,-3.8707,-3.8707,-3.8707,-3.8505,-3.7936,-3.7878,-3.7584,-3.6776,-3.667,-3.6593,-3.6321,-3.5771,-3.5298,-3.5023,-3.4491,-3.4192,-3.4192,-3.3935,-3.4045,-3.4578,-3.4839,-3.4844,-3.4518,-3.5371,-3.5775,-3.5775,-3.5746,-3.5699,-3.5619,-3.453,-3.4012,-3.397,-3.3686,-3.3577,-3.3563,-3.3509,-3.3655,-3.3902,-3.3818,-3.4649,-3.5957,-3.6105,-3.6576,-3.7096,-5.7997,-5.7997,-5.7997,-5.7997,-5.7997,-5.7997,-5.7997,-5.7317,-5.6822,-5.6822,-5.6106,-5.5614,-5.5611,-5.5614,-5.5262,-5.4491,-5.4418,-5.4069,-5.324,-5.3185,-5.3185,-5.3185,-5.3185,-5.3185,-5.3185,-5.3185,-5.2821,-5.1995,-5.1995,-5.1591,-5.0802,-4.9996,-4.961,-4.9555,-4.8691,-4.8306,-4.8306,-4.8306,-4.8306,-4.8306,-4.8306,-4.8306,-4.8306,-4.8306,-4.8306,-4.8306,-4.8306,-4.8306,-4.8196,-4.7369,-4.7113,-4.6837,-4.5205,-4.4158,-4.3515,-4.3515,-4.3515,-4.3515,-4.3515,-4.3515,-4.3515,-4.3515,-4.3515,-4.3515,-4.3515,-4.3515,-4.3276,-4.247,-4.168,-4.0857,-4.0047,-3.9239,-3.8707,-3.8707,-3.8707,-3.8707,-3.8707,-3.8707,-3.8395,-3.7603,-3.7511,-3.7199,-3.6395,-3.6303,-3.5954,-3.5078,-3.5023,-3.5023,-3.5023,-3.4252,-3.4578,-3.6248,-3.5463,-3.5365,-3.6095,-3.7026,-3.7492,-3.7511,-3.7351,-3.7287,-3.7217,-3.5535,-3.4794,-3.4739,-3.3866,-3.3509,-3.3477,-3.3422,-3.3882,-3.4606,-3.4606,-3.5098,-3.5894,-3.6705,-3.5983,-3.4733,-5.7997,-5.7997,-5.7997,-5.7997,-5.7997,-5.7997,-5.7997,-5.7795,-5.7648,-5.7648,-5.695,-5.6657,-5.7207,-5.6271,-5.5721,-5.6069,-5.506,-5.4069,-5.324,-5.3185,-5.3185,-5.3185,-5.3185,-5.3185,-5.3185,-5.3185,-5.3096,-5.2839,-5.2839,-5.2435,-5.161,-5.082,-5.0141,-4.9555,-4.8691,-4.8306,-4.8306,-4.8306,-4.8306,-4.8306,-4.8306,-4.8306,-4.8306,-4.8306,-4.8306,-4.8306,-4.8306,-4.8306,-4.8269,-4.8012,-4.7938,-4.7645,-4.6049,-4.4984,-4.4232,-4.3663,-4.3515,-4.3515,-4.3515,-4.3515,-4.3515,-4.3515,-4.3515,-4.3515,-4.3515,-4.3515,-4.3276,-4.247,-4.2121,-4.1515,-4.0139,-3.9698,-3.935,-3.8799,-3.8707,-3.8707,-3.8707,-3.8707,-3.8615,-3.8377,-3.834,-3.8248,-3.801,-3.7459,-3.7033,-3.6762,-3.6229,-3.5917,-3.5917,-3.5679,-3.5771,-3.6266,-3.6487,-3.6717,-3.6939,-3.7226,-3.7339,-3.7293,-3.6678,-3.6374,-3.6258,-3.4626,-3.3855,-3.3796,-3.3546,-3.3422,-3.3459,-3.4009,-3.4389,-3.4606,-3.4606,-3.5439,-3.6526,-3.5639,-3.5729,-3.6146,-5.7997,-5.7997,-5.7997,-5.7997,-5.7997,-5.7997,-5.7997,-5.7997,-5.7997,-5.7997,-5.7574,-5.7464,-5.7941,-5.7116,-5.662,-5.6804,-5.5335,-5.4069,-5.324,-5.3185,-5.3185,-5.3185,-5.3185,-5.3185,-5.3185,-5.3185,-5.3185,-5.3185,-5.3185,-5.2968,-5.2454,-5.1646,-5.0839,-5.0051,-4.9187,-4.8618,-4.8306,-4.8306,-4.8306,-4.8306,-4.8306,-4.8306,-4.8306,-4.8306,-4.8306,-4.8306,-4.8306,-4.8306,-4.8306,-4.8306,-4.8104,-4.7645,-4.6691,-4.5608,-4.4617,-4.4121,-4.3736,-4.3515,-4.3515,-4.3515,-4.3515,-4.3515,-4.3515,-4.3515,-4.3515,-4.3515,-4.3368,-4.2873,-4.2525,-4.1992,-4.102,-4.0598,-4.0102,-3.9313,-3.9166,-3.9056,-3.8744,-3.8707,-3.8707,-3.8707,-3.8707,-3.8707,-3.8707,-3.8267,-3.7841,-3.7529,-3.6758,-3.6431,-3.6758,-3.6468,-3.6564,-3.7158,-3.7244,-3.7439,-3.7687,-3.7705,-3.7705,-3.7653,-3.6838,-3.6573,-3.678,-3.4842,-3.409,-3.4335,-3.4009,-3.3882,-3.3936,-3.4736,-3.5258,-3.5512,-3.5204,-3.5856,-3.6886,-3.591,-3.5765,-3.5946,-5.7997,-5.7997,-5.7997,-5.7997,-5.7997,-5.7997,-5.7997,-5.7997,-5.7997,-5.7997,-5.7997,-5.7997,-5.7997,-5.7997,-5.7703,-5.6969,-5.5445,-5.4179,-5.3371,-5.3243,-5.3185,-5.3185,-5.3185,-5.3185,-5.3185,-5.3185,-5.3185,-5.3185,-5.3185,-5.3185,-5.3167,-5.238,-5.161,-5.0875,-5.0088,-4.926,-4.8526,-4.8526,-4.8526,-4.8526,-4.8526,-4.8489,-4.8416,-4.8416,-4.8379,-4.8306,-4.8306,-4.8306,-4.8306,-4.8306,-4.781,-4.7186,-4.7113,-4.6085,-4.4911,-4.4837,-4.4232,-4.3625,-4.3625,-4.3551,-4.3515,-4.3515,-4.3515,-4.3515,-4.3515,-4.3515,-4.3515,-4.3515,-4.291,-4.2396,-4.2304,-4.1699,-4.093,-4.0139,-3.9937,-3.9643,-3.8909,-3.8762,-3.8707,-3.8707,-3.8707,-3.8707,-3.8707,-3.8707,-3.8395,-3.7643,-3.6909,-3.6817,-3.7551,-3.6894,-3.7088,-3.8439,-3.7765,-3.7687,-3.8289,-3.829,-3.8285,-3.8257,-3.7394,-3.7328,-3.7891,-3.5634,-3.4989,-3.5659,-3.4989,-3.4715,-3.4769,-3.5569,-3.6345,-3.6941,-3.62,-3.6399,-3.7085,-3.6941,-3.6001,-3.4914,-5.7997,-5.7997,-5.7997,-5.7997,-5.7997,-5.7997,-5.7997,-5.7997,-5.7997,-5.7997,-5.7997,-5.7997,-5.7997,-5.7997,-5.7923,-5.7758,-5.6271,-5.4987,-5.4197,-5.3555,-5.3185,-5.3185,-5.3185,-5.3185,-5.3185,-5.3185,-5.3185,-5.3185,-5.3185,-5.3185,-5.3167,-5.238,-5.1903,-5.1701,-5.0894,-5.0435,-5.027,-5.027,-5.027,-5.027,-5.027,-4.9884,-4.9335,-4.9335,-4.8893,-4.8306,-4.8306,-4.8306,-4.8306,-4.8306,-4.8196,-4.792,-4.7296,-4.6856,-4.6452,-4.5828,-4.5076,-4.4452,-4.4452,-4.3975,-4.3515,-4.3515,-4.3515,-4.3515,-4.3515,-4.3515,-4.3515,-4.3515,-4.3368,-4.3039,-4.2415,-4.2158,-4.1791,-4.0967,-4.0304,-3.9827,-3.9662,-3.9093,-3.8707,-3.8707,-3.8707,-3.8707,-3.8707,-3.8707,-3.8585,-3.8303,-3.812,-3.8071,-3.8191,-3.8045,-3.8099,-3.8396,-3.8204,-3.8158,-3.8307,-3.8259,-3.7916,-3.7295,-3.6467,-3.5835,-3.5364,-3.4842,-3.4715,-3.4881,-3.5333,-3.5532,-3.5587,-3.6399,-3.685,-3.6977,-3.6814,-3.723,-3.7792,-3.6526,-3.6236,-3.6325,-5.7997,-5.7997,-5.7997,-5.7997,-5.7997,-5.7997,-5.7997,-5.7997,-5.7997,-5.7997,-5.7997,-5.7997,-5.7997,-5.7997,-5.785,-5.7464,-5.6308,-5.5244,-5.4454,-5.3665,-5.3185,-5.3185,-5.3185,-5.3185,-5.3185,-5.3185,-5.3185,-5.3185,-5.3185,-5.3185,-5.3185,-5.2766,-5.2362,-5.1977,-5.1555,-5.1151,-5.0802,-5.0802,-5.0802,-5.0802,-5.0802,-5.0545,-5.0123,-4.9757,-4.9335,-4.8857,-4.8453,-4.8306,-4.8306,-4.8306,-4.8306,-4.8233,-4.781,-4.7406,-4.7021,-4.6599,-4.5902,-4.5186,-4.48,-4.4397,-4.3975,-4.3606,-4.3515,-4.3515,-4.3515,-4.3515,-4.3515,-4.3515,-4.3515,-4.3369,-4.2947,-4.2873,-4.2598,-4.1809,-4.1001,-4.0469,-4.0469,-3.946,-3.8836,-3.9239,-3.8927,-3.8707,-3.8707,-3.8643,-3.8575,-3.851,-3.8478,-3.843,-3.8399,-3.8399,-3.8401,-3.8336,-3.8323,-3.829,-3.8241,-3.8225,-3.781,-3.6995,-3.6562,-3.6345,-3.629,-3.553,-3.5385,-3.5765,-3.6182,-3.6363,-3.6435,-3.7249,-3.7575,-3.7575,-3.7575,-3.7828,-3.81,-3.725,-3.6961,-3.6777,-5.7997,-5.7997,-5.7997,-5.7997,-5.7997,-5.7997,-5.7997,-5.7997,-5.7997,-5.7997,-5.7997,-5.7997,-5.7997,-5.7997,-5.7721,-5.706,-5.6271,-5.5464,-5.4656,-5.3849,-5.3332,-5.3203,-5.3185,-5.3185,-5.3185,-5.3185,-5.3185,-5.3185,-5.3185,-5.3185,-5.3185,-5.3185,-5.2839,-5.2197,-5.2197,-5.183,-5.1206,-5.1206,-5.1206,-5.1206,-5.1206,-5.1132,-5.093,-5.0271,-4.9922,-4.9702,-4.882,-4.8434,-4.8306,-4.8306,-4.8306,-4.8306,-4.8306,-4.7828,-4.7314,-4.7314,-4.6746,-4.5938,-4.5131,-4.48,-4.4525,-4.3699,-4.3515,-4.3515,-4.3515,-4.3515,-4.3515,-4.3515,-4.3515,-4.3515,-4.3515,-4.3515,-4.3277,-4.2598,-4.1827,-4.1297,-4.1297,-4.0031,-3.9368,-4.0029,-3.9386,-3.8854,-3.8707,-3.8575,-3.851,-3.8494,-3.8415,-3.8385,-3.8368,-3.8368,-3.8336,-3.829,-3.829,-3.8257,-3.8209,-3.8209,-3.7865,-3.7212,-3.7212,-3.7412,-3.7739,-3.6562,-3.6363,-3.7013,-3.7158,-3.7212,-3.7267,-3.7919,-3.8209,-3.8209,-3.8209,-3.8209,-3.8209,-3.8209,-3.7701,-3.6796,-5.7997,-5.7997,-5.7997,-5.7997,-5.7997,-5.7997,-5.7997,-5.7997,-5.7997,-5.7997,-5.7997,-5.7997,-5.7997,-5.7997,-5.796,-5.785,-5.7097,-5.6308,-5.5482,-5.4675,-5.394,-5.3222,-5.3185,-5.3185,-5.3185,-5.3185,-5.3185,-5.3185,-5.3185,-5.3185,-5.3185,-5.3185,-5.313,-5.3041,-5.3041,-5.2986,-5.2873,-5.2873,-5.2873,-5.2873,-5.2873,-5.2454,-5.183,-5.172,-5.1242,-5.0527,-4.9721,-4.893,-4.8306,-4.8306,-4.8306,-4.8306,-4.8306,-4.8233,-4.8141,-4.8141,-4.7571,-4.6746,-4.5957,-4.5241,-4.4525,-4.3699,-4.3515,-4.3515,-4.3515,-4.3515,-4.3515,-4.3515,-4.3515,-4.3515,-4.3515,-4.3515,-4.346,-4.3368,-4.2653,-4.2139,-4.2139,-4.1352,-4.082,-4.0912,-4.023,-3.946,-3.8781,-3.8575,-3.8478,-3.8415,-3.8354,-3.829,-3.8224,-3.8242,-3.8224,-3.8225,-3.8225,-3.8209,-3.8209,-3.8209,-3.8154,-3.8046,-3.8046,-3.7359,-3.613,-3.6616,-3.6904,-3.7049,-3.7738,-3.8046,-3.8064,-3.8172,-3.8209,-3.8209,-3.8209,-3.8209,-3.8209,-3.8209,-3.7701,-3.6868,-5.7997,-5.7997,-5.7997,-5.7997,-5.7997,-5.7997,-5.7997,-5.7997,-5.7997,-5.7997,-5.7997,-5.7997,-5.7997,-5.7997,-5.7997,-5.7997,-5.7262,-5.6657,-5.629,-5.5519,-5.4711,-5.3922,-5.3867,-5.3665,-5.3203,-5.3185,-5.3185,-5.3185,-5.3185,-5.3185,-5.3185,-5.3185,-5.3185,-5.3185,-5.3185,-5.3185,-5.3185,-5.3185,-5.3185,-5.3185,-5.3185,-5.3004,-5.2619,-5.216,-5.1775,-5.1353,-5.0563,-4.9719,-4.9022,-4.9022,-4.8691,-4.8306,-4.8306,-4.8306,-4.8306,-4.8306,-4.8048,-4.759,-4.6782,-4.6305,-4.5737,-4.4488,-4.4176,-4.4048,-4.3606,-4.3515,-4.3515,-4.3515,-4.3515,-4.3515,-4.3515,-4.3515,-4.3515,-4.3515,-4.2818,-4.2451,-4.291,-4.1832,-4.0976,-4.0944,-4.0231,-3.9591,-3.9244,-3.8707,-3.8387,-3.8354,-3.829,-3.8242,-3.8209,-3.8209,-3.8209,-3.8209,-3.8209,-3.8209,-3.8209,-3.8209,-3.8209,-3.8209,-3.8209,-3.7846,-3.7142,-3.752,-3.7665,-3.7701,-3.8064,-3.8209,-3.8209,-3.8209,-3.8209,-3.8209,-3.8209,-3.8209,-3.8209,-3.8209,-3.7991,-3.7557]},{"header":{"parameterUnit":"m.s-1","parameterCategory":1,"la1":30.6,"la2":28.766,"lo1":-90.7593,"lo2":-88.6598,"dy":0.0162,"dx":0.0183,"nx":116,"ny":114,"refTime":"2024-06-01T12:00:00:Z","depth":0,"parameterNumber":3,"parameterNumberName":"V-component_of_WINDS"},"data":[0.0,0.0,0.0,0.0,0.0,0.0,0.0,0.0,0.0,0.0,0.0,0.0,0.0,0.0,0.0,0.0,0.0,0.0,0.0,0.0,0.0,0.0,0.0,0.0,0.0,0.0,0.0,0.0,0.0,0.0,0.0,0.0,0.0,0.0,0.0,0.0,0.0,0.0,0.0,0.0,0.0,0.0,0.0,0.0,0.0,0.0,0.0,0.0,0.0,0.0,0.0,0.0,0.0,0.0,0.0,0.0,0.0,0.0,0.0,0.0,0.0,0.0,0.0,0.0,0.0,0.0,0.0,0.0,0.0,0.0,0.0,0.0,0.0,0.0,0.0,0.0,0.0,0.0,0.0,0.0,0.0,0.0,0.0,0.0,0.0,0.0,0.0,0.0,0.0,0.0,0.0,0.0,0.0,0.0,0.0,0.0,0.0,0.0,0.0,0.0,0.0,0.0,0.0,0.0,0.0,0.0,0.0,0.0,0.0,0.0,0.0,0.0,0.0,0.0,0.0,0.0,0.0,0.0,0.0,0.0,0.0,0.0,0.0,0.0,0.0,0.0,0.0,0.0,0.0,0.0,0.0,0.0,0.0,0.0,0.0,0.0,0.0,0.0,0.0,0.0,0.0,0.0,0.0,0.0,0.0,0.0,0.0,0.0,0.0,0.0,0.0,0.0,0.0,0.0,0.0,0.0,0.0,0.0,0.0,0.0,0.0,0.0,0.0,0.0,0.0,0.0,0.0,0.0,0.0,0.0,0.0,0.0,0.0,0.0,0.0,0.0,0.0,0.0,0.0,0.0,0.0,0.0,0.0,0.0,0.0,0.0,0.0,0.0,0.0,0.0,0.0,0.0,0.0,0.0,0.0,0.0,0.0,0.0,0.0,0.0,0.0,0.0,0.0,0.0,0.0,0.0,0.0,0.0,0.0,0.0,0.0,0.0,0.0,0.0,0.0,0.0,0.0,0.0,0.0,0.0,0.0,0.0,0.0,0.0,0.0,0.0,0.0,0.0,0.0,0.0,0.0,0.0,0.0,0.0,0.0,0.0,0.0,0.0,0.0,0.0,0.0,0.0,0.0,0.0,0.0,0.0,0.0,0.0,0.0,0.0,0.0,0.0,0.0,0.0,0.0,0.0,0.0,0.0,0.0,0.0,0.0,0.0,0.0,0.0,0.0,0.0,0.0,0.0,0.0,0.0,0.0,0.0,0.0,0.0,0.0,0.0,0.0,0.0,0.0,0.0,0.0,0.0,0.0,0.0,0.0,0.0,0.0,0.0,0.0,0.0,0.0,0.0,0.0,0.0,0.0,0.0,0.0,0.0,0.0,0.0,0.0,0.0,0.0,0.0,0.0,0.0,0.0,0.0,0.0,0.0,0.0,0.0,0.0,0.0,0.0,0.0,0.0,0.0,0.0,0.0,0.0,0.0,0.0,0.0,0.0,0.0,0.0,0.0,0.0,0.0,0.0,0.0,0.0,0.0,0.0,0.0,0.0,0.0,0.0,0.0,0.0,0.0,0.0,0.0,0.0,0.0,0.0,0.0,0.0,0.0,0.0,0.0,0.0,0.0,0.0,0.0,0.0,0.0,0.0,0.0,0.0,0.0,0.0,0.0,0.0,0.0,0.0,0.0,0.0,0.0,0.0,0.0,0.0,0.0,0.0,0.0,0.0,0.0,0.0,0.0,0.0,0.0,0.0,0.0,0.0,0.0,0.0,0.0,0.0,0.0,0.0,0.0,0.0,0.0,0.0,0.0,0.0,0.0,0.0,0.0,0.0,0.0,0.0,0.0,0.0,0.0,0.0,0.0,0.0,0.0,0.0,0.0,0.0,0.0,0.0,0.0,0.0,0.0,0.0,0.0,0.0,0.0,0.0,0.0,0.0,0.0,0.0,0.0,0.0,0.0,0.0,0.0,0.0,0.0,0.0,0.0,0.0,0.0,0.0,0.0,0.0,0.0,0.0,0.0,0.0,0.0,0.0,0.0,0.0,0.0,0.0,0.0,0.0,0.0,0.0,0.0,0.0,0.0,0.0,0.0,0.0,0.0,0.0,0.0,0.0,0.0,0.0,0.0,0.0,0.0,0.0,0.0,0.0,0.0,0.0,0.0,0.0,0.0,0.0,0.0,0.0,0.0,0.0,0.0,0.0,0.0,0.0,0.0,0.0,0.0,0.0,0.0,0.0,0.0,0.0,0.0,0.0,0.0,0.0,0.0,0.0,0.0,0.0,0.0,0.0,0.0,0.0,0.0,0.0,0.0,0.0,0.0,0.0,0.0,0.0,0.0,0.0,0.0,0.0,0.0,0.0,0.0,0.0,0.0,0.0,0.0,0.0,0.0,0.0,0.0,0.0,0.0,0.0,0.0,0.0,0.0,0.0,0.0,0.0,0.0,0.0,0.0,0.0,0.0,0.0,0.0,0.0,0.0,0.0,0.0,0.0,0.0,0.0,0.0,0.0,0.0,0.0,0.0,0.0,0.0,0.0,0.0,0.0,0.0,0.0,0.0,0.0,0.0,0.0,0.0,0.0,0.0,0.0,0.0,0.0,0.0,0.0,0.0,0.0,0.0,0.0,0.0,0.0,0.0,0.0,0.0,0.0,0.0,0.0,0.0,0.0,0.0,0.0,0.0,0.0,0.0,0.0,0.0,0.0,0.0,0.0,0.0,0.0,0.0,0.0,0.0,0.0,0.0,0.0,0.0,0.0,0.0,0.0,0.0,0.0,0.0,0.0,0.0,0.0,0.0,0.0,0.0,0.0,0.0,0.0,0.0,0.0,0.0,0.0,0.0,0.0,0.0,0.0,0.0,0.0,0.0,0.0,0.0,0.0,0.0,0.0,0.0,0.0,0.0,0.0,0.0,0.0,0.0,0.0,0.0,0.0,0.0,0.0,0.0,0.0,0.0,0.0,0.0,0.0,0.0,0.0,0.0,0.0,0.0,0.0,0.0,0.0,0.0,0.0,0.0,0.0,0.0,0.0,0.0,0.0,0.0,0.0,0.0,0.0,0.0,0.0,0.0,0.0,0.0,0.0,0.0,0.0,0.0,0.0,0.0,0.0,0.0,0.0,0.0,0.0,0.0,0.0,0.0,0.0,0.0,0.0,0.0,0.0,0.0,0.0,0.0,0.0,0.0,0.0,0.0,0.0,0.0,0.0,0.0,0.0,0.0,0.0,0.0,0.0,0.0,0.0,0.0,0.0,0.0,0.0,0.0,0.0,0.0,0.0,0.0,0.0,0.0,0.0,0.0,0.0,0.0,0.0,0.0,0.0,0.0,0.0,0.0,0.0,0.0,0.0,0.0,0.0,0.0,0.0,0.0,0.0,0.0,0.0,0.0,0.0,0.0,0.0,0.0,0.0,0.0,0.0,0.0,0.0,0.0,0.0,0.0,0.0,0.0,0.0,0.0,0.0,0.0,0.0,0.0,0.0,0.0,0.0,0.0,0.0,0.0,0.0,0.0,0.0,0.0,0.0,0.0,0.0,0.0,0.0,0.0,0.0,0.0,0.0,0.0,0.0,0.0,0.0,0.0,0.0,0.0,0.0,0.0,0.0,0.0,0.0,0.0,0.0,0.0,0.0,0.0,0.0,0.0,0.0,0.0,0.0,0.0,0.0,0.0,0.0,0.0,0.0,0.0,0.0,0.0,0.0,0.0,0.0,0.0,0.0,0.0,0.0,0.0,0.0,0.0,0.0,0.0,0.0,0.0,0.0,0.0,0.0,0.0,0.0,0.0,0.0,0.0,0.0,0.0,0.0,0.0,0.0,0.0,0.0,0.0,0.0,0.0,0.0,0.0,0.0,0.0,0.0,0.0,0.0,0.0,0.0,0.0,0.0,0.0,0.0,0.0,0.0,0.0,0.0,0.0,0.0,0.0,0.0,0.0,0.0,0.0,0.0,0.0,0.0,0.0,0.0,0.0,0.0,0.0,0.0,0.0,0.0,0.0,0.0,0.0,0.0,0.0,0.0,0.0,0.0,0.0,0.0,0.0,0.0,0.0,0.0,0.0,0.0,0.0,0.0,0.0,0.0,0.0,0.0,0.0,0.0,0.0,0.0,0.0,0.0,0.0,0.0,0.0,0.0,0.0,0.0,0.0,0.0,0.0,0.0,0.0,0.0,0.0,0.0,0.0,0.0,0.0,0.0,0.0,0.0,0.0,0.0,0.0,0.0,0.0,0.0,0.0,0.0,0.0,0.0,0.0,0.0,0.0,0.0,0.0,0.0,0.0,0.0,0.0,0.0,0.0,0.0,0.0,0.0,0.0,0.0,0.0,0.0,0.0,0.0,0.0,0.0,0.0,0.0,0.0,0.0,0.0,0.0,0.0,0.0,0.0,0.0,0.0,0.0,0.0,0.0,0.0,0.0,0.0,0.0,0.0,0.0,0.0,0.0,0.0,0.0,0.0,0.0,0.0,0.0,0.0,0.0,0.0,0.0,0.0,0.0,0.0,0.0,0.0,0.0,0.0,0.0,0.0,0.0,0.0,0.0,0.0,0.0,0.0,0.0,0.0,0.0,0.0,0.0,0.0,0.0,0.0,0.0,0.0,0.0,0.0,0.0,0.0,0.0,0.0,0.0,0.0,0.0,0.0,0.0,0.0,0.0,0.0,0.0,0.0,0.0,0.0,0.0,0.0,0.0,0.0,0.0,0.0,0.0,0.0,0.0,0.0,0.0,0.0,0.0,0.0,0.0,0.0,0.0,0.0,0.0,0.0,0.0,0.0,0.0,0.0,0.0,0.0,0.0,0.0,0.0,0.0,0.0,0.0,0.0,0.0,0.0,0.0,0.0,0.0,0.0,0.0,0.0,0.0,0.0,0.0,0.0,0.0,0.0,0.0,0.0,0.0,0.0,0.0,0.0,0.0,0.0,0.0,0.0,0.0,0.0,0.0,0.0,0.0,0.0,0.0,0.0,0.0,0.0,0.0,0.0,0.0,0.0,0.0,0.0,0.0,0.0,0.0,0.0,0.0,0.0,0.0,0.0,0.0,0.0,0.0,0.0,0.0,0.0,0.0,0.0,0.0,0.0,0.0,0.0,0.0,0.0,0.0,0.0,0.0,0.0,0.0,0.0,0.0,0.0,0.0,0.0,0.0,0.0,0.0,0.0,0.0,0.0,0.0,0.0,0.0,0.0,0.0,0.0,0.0,0.0,0.0,0.0,0.0,0.0,0.0,0.0,0.0,0.0,0.0,0.0,0.0,0.0,0.0,0.0,0.0,0.0,0.0,0.0,0.0,0.0,0.0,0.0,0.0,0.0,0.0,0.0,0.0,0.0,0.0,0.0,0.0,0.0,0.0,0.0,0.0,0.0,0.0,0.0,0.0,0.0,0.0,0.0,0.0,0.0,0.0,0.0,0.0,0.0,0.0,0.0,0.0,0.0,0.0,0.0,0.0,0.0,0.0,0.0,0.0,0.0,0.0,0.0,0.0,0.0,0.0,0.0,0.0,0.0,0.0,0.0,0.0,0.0,0.0,0.0,0.0,0.0,0.0,0.0,0.0,0.0,0.0,0.0,0.0,0.0,0.0,0.0,0.0,0.0,0.0,0.0,0.0,0.0,0.0,0.0,0.0,0.0,0.0,0.0,0.0,0.0,0.0,0.0,0.0,0.0,0.0,0.0,0.0,0.0,0.0,0.0,0.0,0.0,0.0,0.0,0.0,0.0,0.0,0.0,0.0,0.0,0.0,0.0,0.0,0.0,0.0,0.0,0.0,0.0,0.0,0.0,0.0,0.0,0.0,0.0,0.0,0.0,0.0,0.0,0.0,0.0,0.0,0.0,0.0,0.0,0.0,0.0,0.0,0.0,0.0,0.0,0.0,0.0,0.0,0.0,0.0,0.0,0.0,0.0,0.0,0.0,0.0,0.0,0.0,0.0,0.0,0.0,0.0,0.0,0.0,0.0,0.0,0.0,0.0,0.0,0.0,0.0,0.0,0.0,0.0,0.0,0.0,0.0,0.0,0.0,0.0,0.0,0.0,0.0,0.0,0.0,0.0,0.0,0.0,0.0,0.0,0.0,0.0,0.0,0.0,0.0,0.0,0.0,0.0,0.0,0.0,0.0,0.0,0.0,0.0,0.0,0.0,0.0,0.0,0.0,0.0,0.0,0.0,0.0,0.0,0.0,0.0,0.0,0.0,0.0,0.0,0.0,0.0,0.0,0.0,0.0,0.0,0.0,0.0,0.0,0.0,0.0,0.0,0.0,0.0,0.0,0.1318,0.1369,0.1428,0.1433,0.144,0.1456,0.0,0.0,0.0,0.0,0.0,0.1302,0.1301,0.1307,0.1362,0.1362,0.1337,0.1366,0.135,0.1303,0.1272,0.0,0.0,0.0,0.0,0.0,0.0,0.0,0.0,0.0,0.0,0.0,0.0,0.0,0.0,0.0,0.0,0.0,0.0,0.0,0.0,0.0,0.0,0.0,0.0,0.0,0.0,0.0,0.0,0.0,0.0,0.0,0.0,0.0,0.0,0.0,0.0,0.0,0.0,0.0,0.0,0.0,0.0,0.0,0.0,0.0,0.0,0.0,0.0,0.0,0.0,0.0,0.0,0.0,0.0,0.0,0.0,0.0,0.0,0.0,0.0,0.0,0.0,0.0,0.0,0.0,0.0,0.0,0.0,0.0,0.0,0.0,0.0,0.0,0.0,0.0,0.0,0.0,0.0,0.0,0.0,0.0,0.0,0.0,0.0,0.0,0.0,0.0,0.0,0.0,0.0,0.0,0.0,0.0,0.1241,0.13,0.1358,0.1416,0.1483,0.1489,0.1486,0.1481,0.1457,0.0,0.0,0.0,0.1384,0.1313,0.1318,0.1331,0.1398,0.1408,0.1427,0.1406,0.1401,0.1393,0.1344,0.1328,0.0,0.0,0.0,0.0,0.0,0.0,0.0,0.0,0.0,0.0,0.0,0.0,0.0,0.0,0.0,0.0,0.0,0.0,0.0,0.0,0.0,0.0,0.0,0.0,0.0,0.0,0.0,0.0,0.0,0.0,0.0,0.0,0.0,0.0,0.0,0.0,0.0,0.0,0.0,0.0,0.0,0.0,0.0,0.0,0.0,0.0,0.0,0.0,0.0,0.0,0.0,0.0,0.0,0.0,0.0,0.0,0.0,0.0,0.0,0.0,0.0,0.0,0.0,0.0,0.1152,0.0823,0.0566,0.0311,0.0104,0.0049,0.0,0.0,0.0,0.0,0.0,0.0,0.0,0.0,0.0,0.0,0.0,0.0,0.0,0.0,0.0,0.0,0.0,0.0,0.0,0.0,0.0,0.0,0.1211,0.1288,0.1371,0.1425,0.1513,0.152,0.1509,0.1483,0.1477,0.0,0.0,0.1385,0.1415,0.1385,0.1366,0.1381,0.1385,0.1436,0.151,0.1466,0.1487,0.148,0.1487,0.1408,0.137,0.1361,0.0,0.0,0.0,0.0,0.0,0.0,0.0,0.0,0.0,0.0,0.0,0.0,0.0,0.0,0.0,0.0,0.0,0.0,0.0,0.0,0.0,0.0,0.0,0.0,0.0,0.0,0.0,0.0,0.0,0.0,0.0,0.0,0.0,0.0,0.0,0.0,0.0,0.0,0.0,0.0,0.0,0.778,0.7884,0.0,0.0,0.0,0.0,0.0,0.0,0.0,0.0,0.0,0.0,0.0,0.0,0.0,0.0,0.4191,0.5558,0.5048,0.271,0.2866,0.2808,0.2598,0.1162,0.0495,0.0434,0.0108,0.0,0.0,0.0,0.0,0.0,0.0,0.0,0.0,0.0,0.0,0.0,0.0,0.0,0.0,0.0,0.0,0.0,0.0,0.0,0.0,0.0,0.0,0.0,0.0,0.1403,0.1471,0.1545,0.1551,0.1546,0.1533,0.15,0.1475,0.1461,0.1399,0.1437,0.1441,0.1454,0.1478,0.1512,0.1555,0.1577,0.1577,0.1564,0.1564,0.1575,0.1517,0.1463,0.1412,0.1356,0.0,0.0,0.0,0.0,0.0,0.0,0.0,0.0,0.0,0.0,0.0,0.0,0.0,0.0,0.0,0.0,0.0,0.0,0.0,0.0,0.0,0.0,0.0,0.0,0.0,0.0,0.0,0.0,0.0,0.0,0.0,0.0,0.0,0.0,0.0,0.0,0.0,0.0,0.0,0.7865,0.8184,0.817,0.8258,0.8218,0.0,0.0,0.0,0.0,0.0,0.0,0.0,0.0,0.0,0.8321,0.7814,0.6671,0.4987,0.504,0.4151,0.2364,0.2438,0.2321,0.2075,0.1326,0.08,0.0506,0.0338,0.0165,0.0,0.0,0.0,0.0,0.0,0.0,0.0,0.0,0.0,0.0,0.0,0.0,0.0,0.0,0.0,0.0,0.0,0.0,0.0,0.0,0.0,0.0,0.133,0.1441,0.1508,0.1577,0.1583,0.158,0.1621,0.1522,0.1489,0.1481,0.1452,0.145,0.148,0.1496,0.153,0.1583,0.1613,0.1628,0.1628,0.1628,0.1628,0.1627,0.1596,0.1545,0.1432,0.1433,0.1357,0.1305,0.0,0.0,0.0,0.0,0.0,0.0,0.0,0.0,0.0,0.0,0.0,0.0,0.0,0.0,0.0,0.0,0.0,0.0,0.0,0.0,0.0,0.0,0.0,0.0,0.0,0.0,0.0,0.0,0.0,0.0,0.0,0.0,0.0,0.0,0.0,0.0,0.0,0.8258,0.8516,0.8448,0.8635,0.8638,0.0,0.0,0.0,0.0,0.0,0.0,0.8981,0.9069,0.9087,0.9165,0.8374,0.7195,0.5611,0.4779,0.3527,0.1919,0.1919,0.1796,0.1551,0.1491,0.1182,0.0757,0.0637,0.0399,0.0111,0.0053,0.0,0.0,0.0,0.0,0.0,0.0,0.0,0.0,0.0,0.0,0.0,0.0,0.0,0.0,0.0,0.0,0.0,0.0,0.0,0.1354,0.1458,0.1478,0.1517,0.1607,0.1614,0.1602,0.1622,0.1541,0.1511,0.1482,0.1452,0.145,0.148,0.1585,0.1583,0.1614,0.1645,0.1712,0.1712,0.1712,0.1712,0.1711,0.1628,0.1612,0.1602,0.1513,0.1456,0.1372,0.1371,0.0,0.0,0.0,0.0,0.0,0.0,0.0,0.0,0.0,0.0,0.0,0.0,0.0,0.0,0.0,0.0,0.0,0.0,0.0,0.0,0.0,0.0,0.0,0.0,0.0,0.0,0.0,0.0,0.0,0.0,0.0,0.0,0.0,0.0,0.0,0.0,0.0,0.0,0.8834,0.8861,0.0,0.0,0.0,0.0,0.9303,0.9255,0.9306,0.9741,0.9646,0.9703,0.9923,0.9881,0.8693,0.6199,0.6081,0.4709,0.2011,0.2011,0.1998,0.1972,0.1663,0.1466,0.1443,0.1066,0.0699,0.0458,0.0111,0.0,0.0,0.0,0.0,0.0,0.0,0.0,0.0,0.0,0.0,0.0,0.0,0.0,0.0,0.0,0.035,0.0615,0.0627,0.1077,0.137,0.1444,0.1504,0.156,0.1612,0.1617,0.1612,0.1601,0.1536,0.151,0.1586,0.1472,0.1468,0.1586,0.1579,0.1615,0.1646,0.1709,0.1724,0.1689,0.1689,0.168,0.1714,0.1651,0.1635,0.1613,0.1562,0.1499,0.1386,0.138,0.1481,0.0,0.0,0.0,0.0,0.0,0.0,0.0,0.0,0.0,0.0,0.0,0.0,0.0,0.0,0.0,0.0,0.0,0.0,0.0,0.0,0.0,0.0,0.0,0.0,0.0,0.0,0.0,0.0,0.0,0.0,0.0,0.0,0.0,0.0,0.0,0.0,0.0,0.934,0.9478,0.0,0.9517,0.9507,0.9551,0.9656,0.9703,0.9798,0.9899,1.0015,1.009,1.0195,0.9391,0.8063,0.6234,0.5388,0.3999,0.2018,0.2018,0.2004,0.1977,0.1853,0.1715,0.1507,0.1305,0.1051,0.0746,0.0393,0.0164,0.0,0.0,0.0,0.0,0.0,0.0,0.0,0.0,0.0,0.0,0.0,0.0,0.0,0.0,0.0355,0.0625,0.0642,0.1069,0.141,0.1414,0.1529,0.1583,0.1614,0.1617,0.1617,0.1617,0.1551,0.1577,0.1619,0.1513,0.1514,0.1585,0.1617,0.1647,0.1676,0.174,0.1754,0.172,0.172,0.1704,0.1676,0.1719,0.1645,0.1615,0.1595,0.1546,0.1478,0.1448,0.14,0.1423,0.0,0.0,0.0,0.0,0.0,0.0,0.0,0.0,0.0,0.0,0.0,0.0,0.0,0.0,0.0,0.0,0.0,0.0,0.0,0.0,0.0,0.0,0.0,0.0,0.0,0.0,0.0,0.0,0.0,0.0,0.0,0.0,0.0,0.0,0.0,0.9452,0.9656,0.9944,1.0066,0.9914,0.9944,0.9995,1.0042,1.0141,1.0222,1.0209,1.0371,1.0429,1.0429,0.9605,0.8225,0.6259,0.54,0.3983,0.2034,0.2034,0.2014,0.1977,0.1977,0.1904,0.1641,0.1615,0.1354,0.1042,0.0854,0.0504,0.011,0.0053,0.0,0.0,0.0,0.0,0.0,0.0,0.0,0.0,0.0,0.0,0.0,0.0,0.0323,0.06,0.0686,0.1101,0.1427,0.1469,0.1554,0.1585,0.1614,0.1617,0.1617,0.1617,0.1588,0.1619,0.1619,0.1622,0.1588,0.1618,0.1648,0.1677,0.1705,0.179,0.1804,0.1806,0.1806,0.1788,0.1703,0.1676,0.1646,0.1617,0.1617,0.16,0.1619,0.154,0.1492,0.1525,0.0,0.0,0.0,0.0,0.0,0.0,0.0,0.0,0.0,0.0,0.0,0.0,0.0,0.0,0.0,0.0,0.0,0.0,0.0,0.0,0.0,0.0,0.0,0.0,0.0,0.0,0.0,0.0,0.0,0.0,0.0,0.0,0.0,0.8777,0.9371,0.9832,0.9839,1.011,1.0236,1.0021,1.0205,1.0351,1.0487,1.05,1.0565,1.0711,1.0721,1.0721,1.0721,1.0721,0.931,0.6433,0.6433,0.4961,0.213,0.2128,0.2034,0.1978,0.1977,0.1977,0.1975,0.1945,0.1735,0.1412,0.139,0.1025,0.0392,0.011,0.0,0.0,0.0,0.0,0.0,0.0,0.0,0.0,0.0,0.0,0.0,0.0,0.0219,0.0459,0.0687,0.1,0.1243,0.1473,0.1573,0.1608,0.1616,0.1617,0.1617,0.1617,0.1568,0.1538,0.1538,0.1602,0.1693,0.165,0.1678,0.1707,0.1791,0.18,0.1816,0.1782,0.1782,0.1755,0.1704,0.1696,0.1665,0.1617,0.1617,0.1713,0.1903,0.1866,0.1984,0.2147,0.0,0.0,0.0,0.0,0.0,0.0,0.0,0.0,0.0,0.0,0.0,0.0,0.0,0.0,0.0,0.0,0.0,0.0,0.0,0.0,0.0,0.0,0.0,0.0,0.0,0.0,0.0,0.0,0.0,0.0,0.0,0.0,0.9697,0.9496,0.9727,1.0066,1.0283,1.048,1.0582,1.0541,1.0575,1.0616,1.0656,1.0656,1.0677,1.0717,1.0721,1.0721,1.0721,1.0721,0.931,0.6433,0.6433,0.4986,0.2096,0.2074,0.2044,0.2006,0.1986,0.1977,0.1975,0.1945,0.1854,0.1766,0.1505,0.1253,0.1008,0.0496,0.0162,0.0,0.0,0.0,0.0,0.0,0.0,0.0,0.0,0.0,0.0,0.0,0.0183,0.0384,0.0539,0.0882,0.1158,0.1346,0.1527,0.1598,0.1598,0.1598,0.1592,0.1579,0.157,0.157,0.1583,0.1645,0.1738,0.1752,0.1769,0.1738,0.1823,0.1823,0.1778,0.1795,0.1795,0.1769,0.1722,0.171,0.1679,0.1635,0.1622,0.1768,0.202,0.1998,0.2185,0.2426,0.2471,0.2722,0.3063,0.3592,0.4024,0.4431,0.4841,0.0,0.0,0.0,0.0,0.0,0.0,0.0,0.0,0.0,0.0,0.0,0.0,0.0,0.0,0.0,0.0,0.0,0.0,0.0,0.0,0.0,0.0,0.0,0.0,1.0247,1.034,1.0312,1.0241,1.0321,1.0561,1.0666,1.0721,1.0721,1.0721,1.0721,1.0721,1.0721,1.0721,1.0721,1.0721,1.0721,1.0721,1.0721,0.9646,0.7367,0.67,0.5262,0.3029,0.2402,0.2048,0.2018,0.199,0.1977,0.0,0.1958,0.1926,0.1884,0.1691,0.149,0.0,0.0,0.0,0.0,0.0,0.0,0.0,0.0,0.0,0.0,0.0,0.0,0.0,0.0,0.0146,0.0306,0.0386,0.0797,0.1101,0.1167,0.1419,0.1568,0.162,0.162,0.1562,0.1538,0.159,0.1634,0.1713,0.1692,0.1722,0.1804,0.1808,0.1823,0.1795,0.1795,0.1795,0.1795,0.1795,0.1778,0.1803,0.1721,0.1694,0.1717,0.1638,0.1777,0.2028,0.2028,0.2175,0.2422,0.2674,0.2547,0.2508,0.387,0.4028,0.3823,0.4924,0.0,0.0,0.0,0.0,0.0,0.0,0.0,0.0,0.0,0.0,0.0,0.0,0.0,0.0,0.0,0.0,0.0,0.0,0.0,0.0,0.0,0.0,0.0,0.0,1.0884,1.0856,1.0973,1.0712,1.0568,1.0704,1.0721,1.0721,1.0721,1.0721,1.0721,1.0721,1.0721,1.0721,1.0721,0.0,0.0,0.0,0.0,1.0047,0.864,0.7167,0.5664,0.4285,0.2793,0.205,0.2022,0.1991,0.1977,0.1977,0.1977,0.1942,0.1886,0.1886,0.1676,0.1234,0.0616,0.0384,0.0372,0.0103,0.0,0.0,0.0,0.0,0.0,0.0,0.0,0.0,0.0,0.0037,0.0156,0.0387,0.0664,0.0958,0.1193,0.1391,0.1545,0.1618,0.162,0.1579,0.1598,0.1633,0.1707,0.1714,0.1766,0.1798,0.1804,0.1774,0.1789,0.1795,0.1795,0.1795,0.1795,0.1795,0.1778,0.1804,0.1798,0.1724,0.1696,0.169,0.183,0.2064,0.2064,0.2199,0.2422,0.2472,0.2416,0.2403,0.2661,0.2709,0.2723,0.3117,0.3239,0.3265,0.3437,0.383,0.0,0.0,0.0,0.0,0.0,0.0,0.0,0.0,0.0,0.0,0.0,0.0,0.0,0.0,0.0,0.0,0.0,0.0,0.0,1.1335,1.1384,1.1274,1.1169,1.0875,1.0687,1.0717,1.0721,1.0721,1.0721,1.0721,1.0721,1.0721,1.0721,1.0721,1.0721,1.0721,0.0,1.0721,1.0721,1.0047,0.864,0.7167,0.5693,0.4282,0.0,0.0,0.2053,0.2001,0.1977,0.1977,0.1977,0.1942,0.1886,0.1886,0.1676,0.1232,0.0608,0.038,0.0372,0.0104,0.0,0.0,0.0,0.0,0.0,0.0,0.0,0.0,0.0,0.0,0.0039,0.017,0.0432,0.0663,0.0783,0.1017,0.1161,0.122,0.128,0.1412,0.1635,0.1705,0.1728,0.1758,0.1803,0.1717,0.1551,0.1731,0.1739,0.157,0.1739,0.1795,0.1795,0.1795,0.1787,0.1827,0.1811,0.1795,0.1726,0.1711,0.1793,0.1921,0.1921,0.1951,0.2019,0.2321,0.2321,0.2219,0.2296,0.2302,0.2218,0.2496,0.2537,0.2582,0.2854,0.3172,0.3416,0.0,0.0,0.0,0.0,0.0,0.0,0.0,0.0,0.0,0.0,0.0,0.0,0.0,0.0,0.9603,0.0,0.0,1.1615,1.196,1.1739,1.1521,1.149,1.1052,1.0721,1.0721,1.0721,1.0721,1.0721,1.0721,1.0721,1.0721,1.0721,1.0721,1.0721,1.0721,1.0721,1.0721,1.0721,1.0047,0.864,0.7167,0.57,0.4298,0.2811,0.2128,0.2126,0.2003,0.1977,0.1977,0.1977,0.1942,0.1883,0.1853,0.1709,0.1512,0.1046,0.0758,0.0639,0.0314,0.0205,0.0202,0.0,0.0,0.0,0.0,0.0,0.0,0.0,0.0,0.0,0.0,0.0251,0.0382,0.0397,0.062,0.0801,0.0856,0.1012,0.1298,0.1654,0.1719,0.1694,0.1692,0.1723,0.157,0.1234,0.1514,0.1514,0.129,0.157,0.1739,0.1795,0.1795,0.1795,0.1794,0.1825,0.1814,0.1812,0.1732,0.1702,0.1722,0.1722,0.1649,0.1667,0.207,0.212,0.197,0.217,0.212,0.197,0.2221,0.2321,0.2372,0.2623,0.2689,0.2697,0.2943,0.2958,0.0,0.0,0.0,0.0,0.0,0.0,0.0,0.0,0.5433,0.6201,0.6512,0.7935,0.9263,0.9646,1.0916,1.2081,1.2479,1.203,1.1689,1.1696,1.1185,1.0787,1.0721,1.0721,1.0721,1.0721,1.0721,1.0721,1.0721,1.0721,1.0721,1.0721,1.0721,1.0721,1.0721,1.0721,1.0183,0.9042,0.7569,0.6101,0.4699,0.32,0.2386,0.2126,0.2003,0.1977,0.1976,0.1964,0.1931,0.1881,0.182,0.1795,0.1792,0.1486,0.1245,0.1011,0.0627,0.0462,0.0354,0.0,0.0,0.0,0.0,0.0,0.0,0.0,0.0,0.0,0.0,0.0245,0.0412,0.0381,0.0594,0.0825,0.1147,0.1174,0.1317,0.1656,0.1686,0.1607,0.1365,0.1334,0.1234,0.0953,0.1009,0.1121,0.129,0.1346,0.1514,0.1795,0.1795,0.1795,0.1795,0.1791,0.179,0.179,0.1786,0.1752,0.1699,0.1699,0.1667,0.1617,0.1667,0.1667,0.1667,0.1667,0.1667,0.1667,0.197,0.2021,0.2071,0.2372,0.239,0.2402,0.2648,0.2673,0.2695,0.3025,0.3086,0.313,0.3258,0.3311,0.3447,0.0,0.4768,0.5612,0.5686,0.7917,0.9865,1.0115,1.1471,1.2483,1.2374,1.2281,1.2022,1.138,1.1181,1.1049,1.0721,1.0721,1.0721,1.0721,1.0721,1.0721,1.0721,1.0721,1.0721,1.0721,1.0721,1.0721,1.0721,1.0721,1.0654,1.0452,0.9042,0.7636,0.6164,0.4695,0.3285,0.2126,0.2003,0.1977,0.1973,0.1919,0.1892,0.1881,0.182,0.1795,0.1792,0.1761,0.1677,0.1541,0.0941,0.0616,0.0404,0.0,0.0,0.0,0.0,0.0,0.0,0.0,0.0,0.0,0.0,0.008,0.016,0.0162,0.0249,0.0391,0.0702,0.0712,0.088,0.119,0.1214,0.1182,0.1092,0.1056,0.0897,0.0617,0.0785,0.0841,0.0785,0.1121,0.1346,0.1514,0.1683,0.1795,0.1795,0.1795,0.1795,0.1795,0.1795,0.176,0.1704,0.1704,0.1669,0.1617,0.1617,0.1617,0.1617,0.1617,0.1617,0.0,0.1718,0.1756,0.1793,0.2063,0.2226,0.2375,0.2676,0.2838,0.2935,0.3089,0.318,0.3243,0.3387,0.3431,0.3489,0.3687,0.4138,0.4537,0.466,0.6337,0.8132,0.9107,1.0503,1.1753,0.0,1.2441,1.2177,1.1912,1.1446,1.1146,1.0923,1.0798,1.0721,1.0721,1.0721,1.0721,1.0721,1.0721,1.0721,1.0721,1.0721,1.0721,1.0721,1.0721,1.0316,0.9513,0.8038,0.6569,0.5166,0.3656,0.2642,0.2126,0.2003,0.1977,0.1973,0.1912,0.1886,0.1881,0.182,0.1795,0.179,0.1742,0.1715,0.1648,0.1254,0.0872,0.0606,0.0,0.0,0.0,0.0,0.0,0.0,0.0,0.0,0.0,0.0,0.0,0.0,0.0,0.0,0.0087,0.0373,0.0377,0.0533,0.0873,0.0891,0.0856,0.0765,0.0775,0.0614,0.028,0.0505,0.0561,0.0393,0.0953,0.1234,0.129,0.1627,0.1795,0.1795,0.1795,0.1795,0.1794,0.1786,0.1752,0.1703,0.1696,0.1662,0.1615,0.1607,0.1609,0.1615,0.1607,0.1605,0.1602,0.1585,0.157,0.161,0.1821,0.2048,0.2273,0.2583,0.2886,0.3125,0.3168,0.3288,0.3375,0.3492,0.3579,0.3665,0.383,0.3819,0.3879,0.4008,0.5222,0.6668,0.7759,0.945,1.0986,1.2029,1.2371,1.2441,1.2309,1.178,1.1274,1.1087,1.0847,1.0721,1.0721,1.0721,1.0721,1.0721,1.0721,1.0721,1.0721,1.0721,1.0721,1.0721,1.0721,1.0183,0.9175,0.7702,0.6301,0.4833,0.3396,0.245,0.2126,0.2003,0.1977,0.1973,0.1912,0.1886,0.1881,0.182,0.1795,0.179,0.1737,0.1712,0.1701,0.1464,0.1181,0.0859,0.0,0.0,0.0,0.0,0.0,0.0,0.0,0.0,0.0,0.0,0.0,0.0,0.0,0.0,0.0129,0.0358,0.0412,0.0523,0.0856,0.0875,0.0739,0.0437,0.0438,0.0276,0.0,0.0,0.0168,0.0393,0.0729,0.1065,0.129,0.1627,0.1795,0.1795,0.1795,0.1795,0.1793,0.1818,0.1787,0.1701,0.1675,0.1645,0.1613,0.1584,0.1591,0.1613,0.1583,0.1622,0.1613,0.1505,0.1504,0.1523,0.1494,0.1762,0.2061,0.2355,0.2784,0.3179,0.318,0.3318,0.3437,0.3555,0.3674,0.384,0.3903,0.3946,0.3966,0.397,0.5222,0.6329,0.6359,0.8657,1.0661,1.0746,1.1901,1.2638,1.2375,1.1978,1.1644,1.1244,1.0916,1.0721,0.0,1.0721,1.0721,1.0721,1.0721,1.0721,1.0721,1.0721,1.0721,1.0721,1.0721,1.0654,1.0654,0.9244,0.7769,0.6297,0.4825,0.3413,0.2126,0.2003,0.1977,0.1973,0.1912,0.1886,0.1881,0.182,0.1795,0.1792,0.1816,0.173,0.1701,0.1673,0.1489,0.1162,0.0,0.0,0.0,0.0,0.0,0.0,0.0,0.0,0.0,0.0,0.0,0.0,0.0,0.0,0.0,0.0,0.0138,0.0189,0.0296,0.0303,0.0258,0.0158,0.016,0.0108,0.0,0.0,0.0055,0.011,0.0446,0.0729,0.1065,0.1346,0.157,0.1794,0.1774,0.182,0.1818,0.1733,0.1725,0.1784,0.1734,0.1667,0.1669,0.162,0.1596,0.1583,0.0,0.1554,0.1614,0.1525,0.1504,0.1501,0.1532,0.1703,0.1908,0.2246,0.2658,0.3089,0.3089,0.3305,0.3608,0.3688,0.3829,0.3845,0.3906,0.3889,0.3916,0.3916,0.4367,0.5011,0.5974,0.7788,0.9444,1.0395,1.1823,1.277,1.2638,1.2177,1.1739,1.1497,1.0986,0.0,0.0,0.0,0.0,1.0721,1.0721,1.0721,1.0721,1.0721,1.0721,1.0721,1.0721,1.0721,1.0721,0.931,0.8371,0.7833,0.5344,0.3444,0.2005,0.1986,0.1965,0.1944,0.1904,0.1874,0.1853,0.1812,0.1795,0.1792,0.1816,0.1785,0.1701,0.1725,0.1591,0.1465,0.0,0.0,0.0,0.0,0.0,0.0,0.0,0.0,0.0,0.0,0.0,0.0,0.0,0.0,0.0,0.0,0.0,0.0,0.0,0.0,0.0,0.0,0.0,0.0,0.0,0.0,0.0,0.0,0.0272,0.0493,0.0716,0.1101,0.1432,0.1652,0.1753,0.1804,0.1802,0.1717,0.1715,0.1781,0.171,0.1641,0.1652,0.1603,0.1579,0.0,0.1537,0.1545,0.1562,0.1499,0.1479,0.1485,0.1514,0.1693,0.1917,0.2286,0.2608,0.2833,0.2869,0.3198,0.3551,0.3668,0.3787,0.3902,0.388,0.3872,0.3913,0.3891,0.3868,0.4106,0.5122,0.6539,0.8027,0.9522,1.1034,1.2161,1.275,1.2309,1.1871,1.1696,1.1187,1.0812,0.0,0.0,0.0,1.0721,1.0721,1.0721,1.0721,1.0721,1.0721,1.0721,1.0721,1.0721,1.0721,0.931,0.8066,0.6997,0.5125,0.3425,0.1977,0.1977,0.196,0.1929,0.1899,0.1868,0.178,0.1808,0.1795,0.1792,0.1816,0.1785,0.1701,0.1725,0.1643,0.1566,0.0,0.0,0.0,0.0,0.0,0.0,0.0,0.0,0.0,0.0,0.0,0.0,0.0,0.0,0.0,0.0,0.0,0.0,0.0,0.0,0.0,0.0,0.0,0.0,0.0,0.0,0.0,0.0,0.026,0.0367,0.0427,0.1012,0.1278,0.1332,0.1624,0.1799,0.1797,0.1711,0.17,0.1697,0.1607,0.1624,0.1575,0.1543,0.1548,0.1568,0.1538,0.1545,0.1598,0.1436,0.1438,0.1483,0.1452,0.1693,0.2036,0.2366,0.2476,0.2478,0.2563,0.2935,0.3316,0.3364,0.3661,0.3888,0.3885,0.3899,0.3898,0.3836,0.3713,0.3706,0.3884,0.4986,0.6444,0.8079,0.9575,1.102,1.2455,1.2441,1.2177,0.0,0.0,0.0,0.0,0.0,0.0,1.0721,0.0,1.0721,1.0721,1.0721,1.0721,1.0721,1.0721,1.0721,1.0721,0.9371,0.7196,0.4311,0.4308,0.3486,0.1977,0.1975,0.1958,0.1927,0.1896,0.1866,0.1778,0.1807,0.1795,0.1792,0.1816,0.1785,0.1701,0.1725,0.1643,0.1617,0.0,0.0,0.0,0.0,0.0,0.0,0.0,0.0,0.0,0.0,0.0,0.0,0.0,0.0,0.0,0.0,0.0,0.0,0.0,0.0,0.0,0.0,0.0,0.0,0.0,0.0,0.0,0.0,0.0052,0.0212,0.0427,0.0533,0.0853,0.133,0.1374,0.1526,0.1733,0.1679,0.1643,0.1697,0.1607,0.1611,0.1665,0.1613,0.1584,0.162,0.1563,0.1536,0.1503,0.1494,0.1532,0.1577,0.1547,0.1648,0.1778,0.1899,0.2129,0.2375,0.2395,0.2716,0.3104,0.3322,0.3478,0.363,0.3833,0.3837,0.3834,0.3714,0.3617,0.3567,0.3643,0.492,0.6159,0.6662,0.8913,0.0,1.0829,1.1508,0.0,1.1383,1.1049,1.0787,1.0721,1.0721,0.0,0.0,1.0721,1.0721,1.0721,1.0721,1.0721,1.0721,1.0721,1.0721,1.0721,1.0208,0.8561,0.5785,0.5657,0.4327,0.1976,0.1953,0.1926,0.1896,0.1865,0.1835,0.1806,0.1798,0.1795,0.1792,0.1816,0.1785,0.1701,0.1725,0.1643,0.1617,0.0,0.0,0.0,0.0,0.0,0.0,0.0,0.0,0.0,0.0,0.0,0.0,0.0,0.0,0.0,0.0,0.0,0.0,0.0,0.0,0.0,0.0,0.0,0.0,0.0,0.0,0.0,0.0,0.0,0.0052,0.0208,0.0365,0.0573,0.0937,0.1195,0.1402,0.1504,0.1626,0.1691,0.0,0.0,0.1602,0.1642,0.1609,0.1586,0.1622,0.1586,0.1569,0.1543,0.156,0.1588,0.1621,0.1694,0.1736,0.1729,0.1756,0.1913,0.2073,0.2089,0.2442,0.2803,0.2899,0.3216,0.3467,0.3593,0.3714,0.3704,0.3617,0.3544,0.3515,0.3576,0.4356,0.5206,0.5986,0.7465,0.0,0.9146,1.017,1.0704,1.0306,1.0648,1.0853,1.0721,1.0721,1.0721,0.0,1.0721,1.0721,1.0721,1.0721,1.0721,1.0721,1.0721,1.0721,1.0721,1.0568,0.9377,0.7196,0.7025,0.5553,0.2834,0.2792,0.2451,0.1884,0.0,0.1823,0.1795,0.1795,0.1795,0.1791,0.1747,0.1719,0.1699,0.1658,0.1632,0.1617,0.0,0.0,0.0,0.0,0.0,0.0,0.0,0.0,0.0,0.0,0.0,0.0,0.0,0.0,0.0,0.0,0.0,0.0,0.0,0.0,0.0,0.0,0.0,0.0,0.0,0.0,0.0,0.0,0.0,0.0,0.0,0.0253,0.0354,0.0404,0.0976,0.1242,0.1294,0.1548,0.1704,0.1703,0.1644,0.1623,0.1577,0.0,0.1577,0.158,0.1598,0.161,0.1616,0.1612,0.1619,0.1643,0.1778,0.181,0.1828,0.1829,0.1791,0.18,0.1885,0.2092,0.2357,0.2411,0.2829,0.3232,0.3239,0.3408,0.3557,0.3452,0.3478,0.3495,0.3563,0.3589,0.4094,0.5642,0.5725,0.6079,0.7457,0.8562,0.9097,0.8767,0.9975,1.0714,1.0452,1.0585,1.0721,1.0721,1.0721,1.0721,1.0721,1.0721,1.0721,1.0721,1.0721,1.0721,1.0721,1.0551,0.9751,0.8286,0.8144,0.6593,0.3873,0.3871,0.316,0.1883,0.0,0.0,0.1795,0.1795,0.1795,0.1789,0.1728,0.1704,0.1697,0.1639,0.1617,0.1617,0.0,0.0,0.0,0.0,0.0,0.0,0.0,0.0,0.0,0.0,0.0,0.0,0.0,0.0,0.0,0.0,0.0,0.0,0.0,0.0,0.0,0.0,0.0,0.0,0.0,0.0,0.0,0.0,0.0,0.0,0.0,0.0051,0.0202,0.0404,0.076,0.1015,0.1217,0.1498,0.1602,0.1622,0.1585,0.1586,0.1609,0.1609,0.0,0.0,0.1558,0.1574,0.1613,0.1588,0.1628,0.1696,0.1791,0.1784,0.1832,0.1867,0.1896,0.1857,0.1922,0.2006,0.2146,0.2358,0.2508,0.2652,0.2838,0.3013,0.3128,0.3108,0.3228,0.3384,0.3492,0.3594,0.3844,0.4237,0.5047,0.5696,0.5813,0.6767,0.7296,0.6898,0.8171,0.9042,0.8975,1.0047,0.0,0.0,0.0,1.0721,1.0721,1.0721,1.0721,1.0721,1.0721,1.0721,1.0721,1.0453,0.9659,0.8284,0.8059,0.6526,0.3872,0.3827,0.3126,0.1883,0.0,0.0,0.1795,0.1795,0.1795,0.1789,0.1728,0.1704,0.1697,0.1639,0.1617,0.1617,0.0,0.0,0.0,0.0,0.0,0.0,0.0,0.0,0.0,0.0,0.0,0.0,0.0,0.0,0.0,0.0,0.0,0.0,0.0,0.0,0.0,0.0,0.0,0.0,0.0,0.0,0.0,0.0,0.0,0.0,0.0,0.0,0.0,0.0,0.0606,0.0859,0.101,0.1451,0.1604,0.1614,0.1583,0.158,0.0,0.0,0.0,0.0,0.1519,0.1531,0.157,0.1571,0.161,0.1672,0.1749,0.1804,0.1791,0.1896,0.1909,0.1911,0.1927,0.1942,0.2006,0.2093,0.2237,0.2371,0.2479,0.2621,0.2817,0.2949,0.305,0.3227,0.3389,0.355,0.367,0.3789,0.4148,0.4412,0.4253,0.5122,0.5673,0.5357,0.6569,0.7436,0.7436,0.8773,0.0,0.0,0.0,0.0,1.0721,1.0721,1.0721,1.0721,1.0721,1.068,1.0602,1.0388,0.9919,0.9201,0.8998,0.7856,0.5953,0.5833,0.4698,0.2879,0.0,0.0,0.1795,0.1795,0.1795,0.1789,0.1728,0.1704,0.1697,0.1639,0.1617,0.1617,0.0,0.0,0.0,0.0,0.0,0.0,0.0,0.0,0.0,0.0,0.0,0.0,0.0,0.0,0.0,0.0,0.0,0.0,0.0,0.0,0.0,0.0,0.0,0.0,0.0,0.0,0.0,0.0,0.0,0.0,0.0,0.0,0.0,0.0,0.0,0.0,0.0859,0.1364,0.1617,0.0,0.0,0.0,0.0,0.0,0.0,0.0,0.0,0.153,0.1555,0.156,0.1586,0.1633,0.172,0.1781,0.1832,0.1886,0.1894,0.1892,0.1923,0.1936,0.1934,0.1903,0.2037,0.2155,0.2083,0.23,0.2517,0.2676,0.287,0.3021,0.3234,0.3424,0.3578,0.3665,0.3464,0.322,0.319,0.386,0.4227,0.3937,0.5223,0.0,0.5965,0.7303,0.0,0.0,0.0,0.0,1.0721,1.0721,1.0721,1.0721,1.0721,1.0646,1.0493,1.0351,1.0202,0.9984,0.9893,0.9131,0.7812,0.7662,0.6325,0.4144,0.0,0.0,0.0,0.2186,0.2018,0.1789,0.1728,0.1704,0.1697,0.1639,0.1617,0.1617,0.0,0.0,0.0,0.0,0.0,0.0,0.0,0.0,0.0,0.0,0.0,0.0,0.0,0.0,0.0,0.0,0.0,0.0,0.0,0.0,0.0,0.0,0.0,0.0,0.0,0.0,0.0,0.0,0.0,0.0,0.0,0.0,0.0,0.0,0.0,0.0,0.0,0.0,0.0,0.0,0.0,0.0,0.0,0.0,0.0,0.0,0.0,0.1624,0.1688,0.1557,0.1568,0.1614,0.1597,0.172,0.182,0.1797,0.1844,0.1892,0.1923,0.1952,0.1965,0.1934,0.1863,0.1839,0.1776,0.1925,0.2071,0.2082,0.2538,0.2913,0.2965,0.3225,0.3482,0.3651,0.3398,0.3186,0.345,0.3327,0.3115,0.2768,0.0,0.0,0.4501,0.5767,0.0,0.0,0.0,0.0,0.0,1.0721,1.0721,1.0721,1.0721,1.0646,1.0493,1.0351,1.0202,0.9984,0.9893,0.902,0.7638,0.7624,0.6749,0.5274,0.0,0.0,0.0,0.3413,0.28,0.1789,0.1728,0.1704,0.1697,0.1639,0.1617,0.1617,0.0,0.0,0.0,0.0,0.0,0.0,0.0,0.0,0.0,0.0,0.0,0.0,0.0,0.0,0.0,0.0,0.0,0.0,0.0,0.0,0.0,0.0,0.0,0.0,0.0,0.0,0.0,0.0,0.0,0.0,0.0,0.0,0.0,0.0,0.0,0.0,0.0,0.0,0.0,0.0,0.0,0.0,0.0,0.0,0.0,0.0,0.0,0.0,0.1601,0.1553,0.1557,0.1564,0.1569,0.1654,0.1707,0.1721,0.1783,0.1842,0.1891,0.1926,0.1942,0.1911,0.1849,0.1779,0.1718,0.1711,0.1815,0.1952,0.2174,0.2451,0.2755,0.3004,0.3181,0.35,0.3436,0.3355,0.3306,0.3227,0.3106,0.2914,0.3398,0.0,0.0,0.0,0.0,0.0,0.0,0.0,0.0,1.0721,1.0721,1.0721,1.0629,1.0514,1.0368,1.0215,1.0063,0.9849,0.9764,0.9364,0.8819,0.8652,0.7829,0.6574,0.0,0.0,0.0,0.3916,0.3301,0.2791,0.1997,0.1704,0.1697,0.1639,0.1617,0.1617,0.0,0.0,0.0,0.0,0.0,0.0,0.0,0.0,0.0,0.0,0.0,0.0,0.0,0.0,0.0,0.0,0.0,0.0,0.0,0.0,0.0,0.0,0.0,0.0,0.0,0.0,0.0,0.0,0.0,0.0,0.0,0.0,0.0,0.0,0.0,0.0,0.0,0.0,0.0,0.0,0.0,0.0,0.0,0.0,0.0,0.0,0.0,0.0,0.0,0.0,0.0,0.1542,0.1554,0.1564,0.1637,0.1668,0.1722,0.1771,0.184,0.1881,0.1897,0.1866,0.1827,0.1774,0.1696,0.1654,0.1676,0.1858,0.1963,0.2123,0.2474,0.2665,0.287,0.3243,0.3353,0.3388,0.337,0.3346,0.3299,0.3146,0.0,0.3156,0.0,0.0,0.0,0.0,0.0,0.0,0.0,1.0721,1.0721,1.0721,1.0571,1.0422,1.0283,1.0127,0.9889,0.9758,0.9656,0.9561,0.9466,0.9309,0.8728,0.0,0.0,0.0,0.0,0.4973,0.425,0.3513,0.2589,0.2023,0.1697,0.1639,0.1617,0.1617,0.0,0.0,0.0,0.0,0.0,0.0,0.0,0.0,0.0,0.0,0.0,0.0,0.0,0.0,0.0,0.0,0.0,0.0,0.0,0.0,0.0,0.0,0.0,0.0,0.0,0.0,0.0,0.0,0.0,0.0,0.0,0.0,0.0,0.0,0.0,0.0,0.0,0.0,0.0,0.0,0.0,0.0,0.0,0.0,0.0,0.0,0.0,0.0,0.0,0.0,0.0,0.0,0.0,0.1547,0.1633,0.1696,0.1715,0.1736,0.1772,0.1818,0.1777,0.1804,0.1795,0.1764,0.1645,0.1641,0.1696,0.1634,0.1796,0.2022,0.2022,0.2256,0.261,0.2976,0.3084,0.3267,0.3662,0.3732,0.3673,0.0,0.0,0.3311,0.0,0.0,0.0,0.0,0.0,0.0,0.0,1.0721,1.0721,1.0721,1.0571,1.0422,1.0283,1.0127,0.9839,0.9612,0.9608,0.9452,0.9214,0.921,0.0,0.0,0.0,0.0,0.0,0.7096,0.5699,0.3568,0.3506,0.2767,0.1697,0.1639,0.1617,0.1617,0.0,0.0,0.0,0.0,0.0,0.0,0.0,0.0,0.0,0.0,0.0,0.0,0.0,0.0,0.0,0.0,0.0,0.0,0.0,0.0,0.0,0.0,0.0,0.0,0.0,0.0,0.0,0.0,0.0,0.0,0.0,0.0,0.0,0.0,0.0,0.0,0.0,0.0,0.0,0.0,0.0,0.0,0.0,0.0,0.0,0.0,0.0,0.0,0.0,0.0,0.0,0.0,0.0,0.0,0.0,0.162,0.1646,0.1716,0.1671,0.171,0.174,0.1712,0.1719,0.1712,0.1635,0.164,0.1702,0.1611,0.166,0.1768,0.1971,0.2082,0.2265,0.2652,0.273,0.2882,0.3261,0.0,0.0,0.3665,0.3891,0.0,0.0,0.0,0.0,0.0,0.0,0.0,0.0,0.0,1.0565,1.0565,1.0422,1.0226,0.9968,0.9822,0.9649,0.9452,0.9347,0.9303,0.9207,0.9052,0.0,0.0,0.0,0.0,0.0,0.7432,0.6604,0.5698,0.4131,0.3222,0.271,0.1885,0.1617,0.1617,0.0,0.0,0.0,0.0,0.0,0.0,0.0,0.0,0.0,0.0,0.0,0.0,0.0,0.0,0.0,0.0,0.0,0.0,0.0,0.0,0.0,0.0,0.0,0.0,0.0,0.0,0.0,0.0,0.0,0.0,0.0,0.0,0.0,0.0,0.0588,0.0841,0.0,0.0,0.0,0.0,0.0,0.0,0.0,0.0,0.0,0.0,0.0,0.0,0.0,0.0,0.0,0.0,0.0,0.0,0.0,0.0,0.1622,0.1641,0.1622,0.1635,0.1652,0.1647,0.1667,0.1676,0.1628,0.164,0.1705,0.1623,0.1617,0.1667,0.1819,0.188,0.2006,0.2365,0.2454,0.2547,0.0,0.0,0.0,0.3689,0.0,0.0,0.0,0.0,0.0,0.0,0.0,0.0,0.0,0.0,1.0358,1.0243,1.0154,1.0015,0.9822,0.9625,0.9445,0.935,0.9255,0.918,0.9069,0.0,0.0,0.0,0.0,0.0,0.0,0.8045,0.7368,0.6737,0.5307,0.4389,0.3769,0.2641,0.222,0.217,0.0,0.0,0.0,0.0,0.0,0.0,0.0,0.0,0.0047,0.0095,0.0048,0.005,0.0103,0.0053,0.0,0.0,0.0,0.0,0.0,0.0,0.0,0.0,0.0,0.0,0.0,0.0,0.0,0.0,0.0,0.0,0.0,0.0,0.0,0.0055,0.0655,0.0857,0.0,0.0,0.0,0.0,0.0,0.0,0.0,0.0,0.0,0.0,0.0,0.0,0.0,0.0,0.0,0.0,0.0,0.0,0.0,0.0,0.0,0.0,0.0,0.1592,0.1578,0.1604,0.1635,0.1702,0.1621,0.1639,0.0,0.1623,0.1617,0.1618,0.162,0.1643,0.1767,0.2029,0.2141,0.0,0.0,0.2749,0.0,0.0,0.0,0.0,0.0,0.0,0.0,0.0,0.0,0.0,0.0,0.0,1.0048,0.9815,0.9785,0.9774,0.9774,0.9503,0.9289,0.9193,0.9193,0.9066,0.8885,0.0,0.0,0.0,0.0,0.0,0.0,0.8774,0.8053,0.6988,0.6802,0.5985,0.4889,0.3748,0.3274,0.3074,0.0,0.0,0.0,0.0,0.0,0.0,0.0,0.0,0.0,0.0,0.0526,0.0292,0.1112,0.0471,0.0,0.0,0.0,0.0,0.0,0.0,0.0,0.0,0.0,0.0,0.0,0.0,0.0,0.0,0.0,0.0,0.0,0.0,0.011,0.0334,0.0642,0.1054,0.0,0.0,0.0,0.0,0.0,0.0,0.0,0.0,0.0,0.0,0.0,0.1472,0.0,0.0,0.0,0.0,0.0,0.0,0.0,0.0,0.143,0.1257,0.1451,0.0,0.1568,0.1551,0.1588,0.162,0.0,0.1674,0.1705,0.1623,0.1617,0.1624,0.1647,0.1709,0.1729,0.1829,0.1903,0.1978,0.2283,0.0,0.0,0.3616,0.0,0.0,0.0,0.0,0.0,0.0,0.0,0.0,0.0,0.0,0.9233,1.0021,0.9607,0.9367,0.9367,0.9299,0.9133,0.8988,0.8988,0.8971,0.8885,0.0,0.0,0.0,0.0,0.0,0.8871,0.8774,0.8481,0.8038,0.7082,0.6452,0.5917,0.4834,0.3924,0.3173,0.0,0.0,0.0,0.0,0.0,0.0,0.0,0.0,0.0,0.0,0.0,0.0,0.0,0.0,0.0,0.0,0.0,0.0,0.0,0.0,0.0,0.0,0.0,0.0,0.0,0.0,0.0,0.0,0.0,0.0,0.0,0.0,0.0055,0.0221,0.0641,0.1167,0.0,0.0,0.0,0.0,0.0,0.0,0.0,0.0,0.0,0.0,0.1313,0.1203,0.0,0.1194,0.1043,0.0895,0.0,0.0,0.0,0.0,0.1367,0.1192,0.1431,0.1538,0.155,0.1547,0.1582,0.1613,0.1596,0.1607,0.1612,0.1581,0.1586,0.1605,0.1636,0.1705,0.1729,0.1722,0.1795,0.0,0.0,0.0,0.33,0.3473,0.0,0.0,0.0,0.0,0.0,0.0,0.0,0.0,0.0,0.0,0.8932,0.998,0.962,0.932,0.921,0.9086,0.9015,0.8885,0.8885,0.8885,0.8885,0.0,0.0,0.0,0.0,0.0,0.8818,0.8598,0.8459,0.8319,0.7601,0.7249,0.6986,0.5932,0.4876,0.3875,0.0,0.0,0.0,0.0,0.0,0.0,0.0,0.0,0.0,0.0,0.0,0.0,0.0,0.0,0.0,0.0,0.0,0.0,0.0,0.0,0.0,0.0,0.0,0.0,0.0,0.0,0.0,0.0,0.0,0.0,0.0,0.0,0.0054,0.0162,0.0643,0.1236,0.0,0.0,0.0,0.0,0.0,0.0,0.0,0.0,0.0,0.0,0.0,0.0,0.0,0.0841,0.0749,0.0709,0.1047,0.0,0.0,0.0,0.0,0.0,0.143,0.1484,0.1545,0.1566,0.1594,0.1617,0.1617,0.1594,0.1564,0.1538,0.1553,0.1581,0.1611,0.1645,0.1678,0.1707,0.0,0.0,0.1909,0.2474,0.2963,0.0,0.0,0.0,0.0,0.0,0.0,0.0,0.0,0.0,0.0,0.0,0.0,1.0022,0.972,0.9455,0.9233,0.9001,0.8885,0.8885,0.8885,0.8885,0.8885,0.8885,0.0,0.0,0.0,0.0,0.8655,0.8384,0.8323,0.8255,0.8099,0.7988,0.7889,0.6986,0.5879,0.4624,0.0,0.0,0.0,0.0,0.0,0.0,0.0,0.0,0.0,0.0,0.0,0.0,0.0,0.0,0.0,0.0,0.0,0.0,0.0,0.0,0.0,0.0,0.0,0.0,0.0,0.0,0.0,0.0,0.0,0.0,0.0,0.0,0.0264,0.0717,0.1052,0.1387,0.1711,0.1706,0.0,0.0,0.0,0.0,0.0,0.0,0.0,0.0,0.0,0.0,0.0,0.0756,0.0512,0.0228,0.0708,0.0,0.0,0.0,0.0,0.0,0.1376,0.1564,0.1598,0.1577,0.1594,0.1617,0.1617,0.1594,0.1619,0.1566,0.1617,0.1581,0.1611,0.1661,0.1707,0.1792,0.0,0.1842,0.0,0.0,0.0,0.0,0.0,0.0,0.0,0.0,0.0,0.0,0.0,0.0,0.0,0.0,0.0,1.0593,0.9841,0.9414,0.9359,0.9058,0.8885,0.8885,0.8885,0.8885,0.8885,0.8885,0.8814,0.0,0.0,0.8635,0.8506,0.834,0.8323,0.8255,0.8099,0.7988,0.7988,0.7839,0.6478,0.4524,0.0,0.0,0.0,0.0,0.0,0.0,0.0,0.0,0.0,0.0,0.0,0.0,0.0,0.0,0.0,0.0,0.0,0.0,0.0,0.0,0.0,0.0,0.0,0.0,0.0,0.0,0.0,0.0,0.0,0.0,0.0,0.0163,0.0427,0.0833,0.1163,0.1438,0.1704,0.1704,0.1712,0.0,0.0,0.0,0.0,0.0,0.0,0.0,0.0,0.0,0.0,0.0,0.0184,0.0046,0.0466,0.0,0.0,0.0,0.0,0.0,0.1197,0.1426,0.1564,0.1551,0.1606,0.1656,0.1624,0.1594,0.1567,0.155,0.156,0.1581,0.1611,0.1665,0.1725,0.1789,0.0,0.1799,0.0,0.0,0.0,0.0,0.0,0.0,0.0,0.0,0.0,0.0,0.0,0.0,0.0,0.0,0.0,0.0,1.0166,0.971,0.9379,0.9268,0.9103,0.8885,0.8885,0.8885,0.8881,0.8797,0.8777,0.0,0.0,0.8431,0.8357,0.8208,0.8147,0.814,0.8019,0.7988,0.7939,0.7338,0.6534,0.5429,0.0,0.0,0.0,0.0,0.0,0.0,0.0,0.0,0.0,0.0,0.0,0.0,0.0,0.0,0.0,0.0,0.0,0.0,0.0,0.0,0.0,0.0,0.0,0.0,0.0,0.0,0.0,0.0,0.0,0.0,0.0,0.0274,0.0541,0.0795,0.1175,0.1443,0.1704,0.1704,0.1704,0.0,0.0,0.0,0.0,0.0,0.0,0.0,0.0,0.0,0.0,0.0,0.0,0.0,0.0,0.0,0.0,0.0552,0.0684,0.0763,0.1038,0.13,0.1478,0.1478,0.16,0.1665,0.1635,0.1598,0.1567,0.1551,0.1566,0.1587,0.1603,0.166,0.0,0.1806,0.1837,0.0,0.0,0.0,0.0,0.0,0.0,0.0,0.0,0.0,0.0,0.0,0.0,0.0,0.0,0.0,0.0,0.0,1.0405,1.0091,0.9599,0.9544,0.9268,0.8885,0.8885,0.8885,0.8878,0.8781,0.8693,0.8642,0.8384,0.8248,0.8208,0.8039,0.7988,0.7988,0.7988,0.7988,0.7889,0.6786,0.6387,0.6234,0.0,0.0,0.0,0.0,0.0,0.0,0.0,0.0,0.0,0.0,0.0,0.0,0.0,0.0,0.0,0.0,0.0,0.0,0.0,0.0,0.0,0.0,0.0,0.0,0.0,0.0,0.0,0.0,0.0,0.0,0.0,0.0274,0.0538,0.0834,0.113,0.146,0.1704,0.1704,0.1704,0.1701,0.1676,0.0,0.0,0.0,0.0,0.0,0.0,0.0,0.0,0.0,0.0,0.0,0.0,0.0,0.0045,0.0322,0.0547,0.0766,0.101,0.1313,0.1478,0.1478,0.1553,0.1645,0.1699,0.1664,0.1579,0.1605,0.1612,0.1606,0.1579,0.1645,0.1716,0.1805,0.1827,0.0,0.0,0.0,0.0,0.0,0.0,0.0,0.0,0.0,0.0,0.0,0.0,0.0,0.0,0.0,0.0,0.0,0.0,1.0257,1.0257,0.9926,0.9485,0.8885,0.8885,0.8885,0.8878,0.8781,0.8632,0.8489,0.8336,0.8187,0.8005,0.7995,0.7988,0.7988,0.7988,0.7988,0.7889,0.6786,0.6387,0.6234,0.0,0.0,0.0,0.0,0.0,0.0,0.0,0.0,0.0,0.0,0.0,0.0,0.0,0.0,0.0,0.0,0.0,0.0,0.0,0.0,0.0,0.0,0.0,0.0,0.0,0.0,0.0,0.0,0.0,0.0,0.0,0.0492,0.0761,0.0858,0.1413,0.1688,0.1785,0.1712,0.1704,0.1701,0.1726,0.0,0.0,0.0,0.0,0.0,0.0,0.0,0.0,0.0,0.0,0.0,0.0,0.0,0.0,0.0136,0.0403,0.0707,0.0813,0.1152,0.1498,0.1498,0.1535,0.1582,0.1624,0.1631,0.1687,0.1665,0.1671,0.1667,0.1656,0.1682,0.172,0.177,0.0,0.0,0.0,0.0,0.0,0.0,0.0,0.0,0.0,0.0,0.0,0.0,0.0,0.0,0.0,0.0,0.0,0.0,0.0,1.0476,1.0312,1.0147,0.9871,0.9434,0.9434,0.9325,0.9063,0.8902,0.8643,0.8343,0.8191,0.8092,0.7988,0.7988,0.7988,0.7988,0.7988,0.7988,0.7939,0.7537,0.7388,0.7338,0.0,0.0,0.0,0.0,0.0,0.0,0.0,0.0,0.0,0.0,0.0,0.0,0.0,0.0,0.0,0.0,0.0,0.0,0.01,0.0,0.0,0.0,0.0,0.0,0.0,0.0,0.0,0.0,0.0,0.0,0.0,0.0599,0.0868,0.0922,0.1528,0.1794,0.1774,0.1699,0.1691,0.1688,0.166,0.1599,0.0,0.0,0.0,0.0,0.0,0.0,0.0,0.0,0.0,0.0,0.0,0.0,0.0,0.0,0.0357,0.071,0.0711,0.1088,0.148,0.148,0.1519,0.157,0.162,0.1647,0.1722,0.1698,0.1697,0.1694,0.1703,0.1704,0.0,0.0,0.0,0.0,0.0,0.0,0.0,0.0,0.0,0.0,0.0,0.0,0.0,0.0,0.0,0.0,0.0,0.0,0.0,0.0,0.0,0.0,1.0421,1.0421,1.0284,1.0015,1.0015,0.9733,0.9187,0.8972,0.8619,0.8313,0.8106,0.7988,0.7988,0.7988,0.7988,0.7988,0.7988,0.7988,0.7988,0.7988,0.7988,0.7988,0.0,0.0,0.0,0.0,0.0,0.0,0.0,0.0,0.0,0.0,0.0,0.0,0.0,0.0,0.0,0.0,0.0,0.0,0.0098,0.0,0.0,0.0,0.0,0.0,0.0,0.0,0.0,0.0,0.0,0.0,0.0,0.0592,0.0854,0.0855,0.152,0.1771,0.1714,0.1714,0.1714,0.1712,0.1628,0.158,0.1478,0.0,0.0,0.0,0.0,0.0,0.0,0.0,0.0,0.0,0.0,0.0,0.0,0.0,0.0364,0.0779,0.0704,0.1077,0.148,0.148,0.1504,0.155,0.1692,0.1714,0.1723,0.1699,0.1682,0.1724,0.1699,0.1705,0.0,0.0,0.0,0.0,0.0,0.0,0.0,0.0,0.0,0.0,0.0,0.0,0.0,0.0,0.0,0.0,0.0,0.0,0.0,0.0,0.0,0.0,1.0688,1.0688,1.0603,1.0379,1.0379,1.0,0.918,0.8868,0.8572,0.831,0.8106,0.7988,0.7988,0.7988,0.7988,0.7988,0.7988,0.7988,0.7988,0.7988,0.7988,0.7988,0.0,0.0,0.0,0.0,0.0,0.0,0.0,0.0,0.0,0.0,0.0,0.0,0.0,0.0,0.0,0.0,0.0,0.0,0.1366,0.048,0.0,0.0,0.0,0.0,0.0,0.0,0.0,0.0,0.0,0.0,0.0,0.0637,0.0901,0.0922,0.1454,0.1708,0.1689,0.1648,0.1643,0.171,0.1606,0.1562,0.1478,0.0,0.0,0.0,0.0,0.0,0.0,0.0,0.0,0.0,0.0,0.0,0.0,0.0,0.0223,0.0496,0.0658,0.0932,0.1272,0.1475,0.152,0.1565,0.1642,0.1647,0.1706,0.1757,0.1744,0.178,0.1789,0.179,0.0,0.0,0.0,0.0,0.0,0.0,0.0,0.0,0.0,0.0,0.0,0.0,0.0,0.0,0.0,0.0,0.0,0.0,0.0,0.0,0.0,0.0,1.0371,1.0371,1.0347,1.0241,1.0111,0.984,0.9427,0.9123,0.8762,0.8353,0.8108,0.7988,0.7988,0.7988,0.7988,0.7988,0.7988,0.7988,0.7988,0.7988,0.7988,0.7988,0.0,0.0,0.0,0.0,0.0,0.0,0.0,0.0,0.0,0.0,0.7892,0.7913,0.0,0.0,0.0,0.0,0.0,0.0,0.0,0.0651,0.0,0.0,0.0,0.0,0.0,0.0,0.0,0.0,0.0,0.0053,0.0161,0.0687,0.0956,0.1083,0.151,0.1703,0.1667,0.1632,0.1613,0.1605,0.1568,0.1535,0.1461,0.0,0.0,0.0,0.0,0.0,0.0,0.0,0.0,0.0,0.0,0.0,0.0,0.0129,0.0307,0.0537,0.0796,0.1035,0.1294,0.1509,0.1592,0.1627,0.1652,0.1649,0.1701,0.1749,0.1735,0.1776,0.18,0.1794,0.0,0.0,0.0,0.0,0.0,0.0,0.0,0.0,0.0,0.0,0.0,0.0,0.0,0.0,0.0,0.0,0.0,0.0,0.0,0.0,0.0,0.0,1.0212,1.0212,1.018,1.0102,0.9937,0.9797,0.9535,0.9284,0.8875,0.8382,0.8137,0.7988,0.7988,0.7988,0.7988,0.7988,0.7988,0.7988,0.7988,0.7988,0.7988,0.7988,0.0,0.0,0.0,0.0,0.0,0.0,0.0,0.0,0.0,0.0,0.7801,0.7804,0.0,0.0,0.0,0.0,0.0,0.0,0.0,0.0,0.0093,0.0,0.0,0.0,0.0,0.0,0.0,0.0,0.0,0.0156,0.0417,0.0738,0.1008,0.1331,0.1614,0.1686,0.1612,0.1604,0.157,0.1521,0.1472,0.15,0.1472,0.1199,0.0,0.0,0.0,0.0,0.0,0.0,0.0,0.0,0.0,0.0,0.0042,0.0294,0.0563,0.0807,0.1029,0.1245,0.1482,0.1563,0.1623,0.164,0.1697,0.171,0.1719,0.1698,0.1684,0.1735,0.179,0.1722,0.0,0.0,0.0,0.0,0.0,0.0,0.0,0.0,0.0,0.0,0.0,0.0,0.0,0.0,0.0,0.0,0.0,0.0,0.0,0.0,0.0,0.0,1.0163,1.0163,1.0026,0.0,0.986,0.9778,0.9579,0.9331,0.8886,0.8382,0.8137,0.7988,0.7988,0.7988,0.7988,0.7988,0.7988,0.7988,0.7988,0.7988,0.7988,0.7988,0.0,0.0,0.0,0.0,0.0,0.0,0.0,0.0,0.0,0.0,0.0,0.0,0.0,0.0,0.0,0.0,0.0,0.0,0.0,0.0,0.0792,0.0048,0.0,0.0,0.0,0.0,0.0,0.0,0.0,0.0157,0.0424,0.0713,0.0965,0.1252,0.1453,0.1577,0.1577,0.1505,0.148,0.1488,0.1464,0.1437,0.1412,0.1166,0.1059,0.0,0.0,0.0,0.0,0.0,0.0,0.0,0.0,0.0,0.0,0.0082,0.0257,0.0536,0.0792,0.1039,0.1268,0.1509,0.159,0.1611,0.1624,0.1626,0.1641,0.1693,0.1699,0.1699,0.1712,0.0,0.0,0.0,0.0,0.0,0.0,0.0,0.0,0.0,0.0,0.0,0.0,0.0,0.0,0.0,0.0,0.0,0.0,0.0,0.0,0.0,0.0,0.9742,0.9742,0.9742,0.9721,0.0,0.9685,0.9665,0.9579,0.9331,0.8886,0.8382,0.8137,0.7988,0.7988,0.7988,0.7988,0.7988,0.7988,0.7988,0.7988,0.7988,0.7988,0.7988,0.0,0.0,0.0,0.0,0.0,0.0,0.0,0.0,0.0,0.0,0.0,0.0,0.0,0.0,0.0,0.0,0.0,0.0,0.0,0.2573,0.1107,0.0048,0.0,0.0,0.0,0.0,0.0,0.0,0.0,0.0202,0.0572,0.0611,0.0918,0.1452,0.1411,0.1477,0.1545,0.1483,0.1442,0.1416,0.1356,0.134,0.1329,0.1257,0.116,0.1092,0.0739,0.0,0.0,0.0,0.0,0.0,0.0,0.0,0.0041,0.0163,0.0378,0.0611,0.0881,0.1093,0.1327,0.1529,0.1605,0.1617,0.1617,0.1617,0.1626,0.1656,0.1662,0.1667,0.0,0.0,0.0,0.0,0.0,0.0,0.0,0.0,0.0,0.0,0.0,0.0,0.0,0.0,0.0,0.0,0.0,0.0,0.0,0.0,0.0,0.0,0.9673,0.9579,0.9579,0.9579,0.9579,0.9579,0.9579,0.9579,0.9579,0.9331,0.8981,0.8577,0.8432,0.8233,0.7988,0.8137,0.8137,0.7988,0.7988,0.7988,0.7988,0.7988,0.7988,0.7988,0.0,0.0,0.0,0.0,0.0,0.0,0.0,0.0,0.0,0.0,0.0,0.0,0.0,0.0,0.0,0.0,0.0,0.0,0.0,0.3087,0.1468,0.0287,0.0251,0.0152,0.0,0.0,0.0,0.0,0.0,0.0242,0.0707,0.051,0.0873,0.1654,0.1382,0.1341,0.1515,0.1475,0.1412,0.1298,0.1298,0.1296,0.1291,0.1296,0.1295,0.1288,0.1059,0.086,0.0703,0.0438,0.0,0.0,0.0,0.0,0.0039,0.032,0.0533,0.0759,0.1001,0.1278,0.1533,0.1594,0.1613,0.1617,0.1617,0.1617,0.1617,0.1617,0.1617,0.0,0.0,0.0,0.0,0.0,0.0,0.0,0.0,0.0,0.0,0.0,0.0,0.0,0.0,0.0,0.0,0.0,0.0,0.0,0.0,0.0,0.7372,0.9529,0.9579,0.9579,0.9579,0.9579,0.9579,0.9579,0.9579,0.9579,0.9579,0.9381,0.908,0.8825,0.8825,0.8482,0.8038,0.8283,0.8237,0.7988,0.7988,0.7988,0.7988,0.7988,0.8038,0.8038,0.0,0.0,0.0,0.0,0.0,0.0,0.0,0.0,0.0,0.0,0.76,0.76,0.76,0.7234,0.0,0.0,0.0,0.0,0.4906,0.0,0.0,0.1267,0.1229,0.0845,0.0,0.0,0.0,0.0,0.0,0.0143,0.0454,0.044,0.0835,0.162,0.1251,0.1264,0.1481,0.1356,0.1302,0.1309,0.1309,0.1293,0.1312,0.1299,0.1292,0.1269,0.0988,0.091,0.0832,0.063,0.0433,0.0,0.0,0.0,0.0,0.0269,0.0513,0.0734,0.0884,0.1209,0.1501,0.1562,0.1597,0.1617,0.1617,0.1617,0.1617,0.0,0.0,0.0,0.0,0.0,0.0,0.0,0.0,0.0,0.0,0.0,0.0,0.0,0.0,0.0,0.0,0.0,0.0,0.0,0.0,0.0,0.0,0.6423,0.7372,0.9529,0.9579,0.9579,0.9579,0.9579,0.9579,0.9579,0.9579,0.9579,0.9579,0.9579,0.9278,0.8825,0.8825,0.8482,0.8038,0.8283,0.8237,0.7988,0.7988,0.7988,0.7988,0.7988,0.8137,0.8333,0.0,0.0,0.0,0.0,0.0,0.0,0.0,0.0,0.0,0.0,0.0,0.7472,0.7472,0.7146,0.0,0.0,0.0,0.0,0.4591,0.3412,0.0,0.1399,0.0858,0.0432,0.0,0.0,0.0,0.0,0.0,0.0139,0.0404,0.0389,0.0788,0.1403,0.1228,0.1284,0.1499,0.135,0.1289,0.1301,0.1284,0.129,0.1306,0.1285,0.129,0.1261,0.1133,0.101,0.0902,0.0812,0.0544,0.0314,0.0432,0.0,0.0,0.0,0.0615,0.0868,0.1111,0.1305,0.1474,0.1552,0.1581,0.1596,0.1613,0.1617,0.1617,0.0,0.0,0.0,0.0,0.0,0.0,0.0,0.0,0.0,0.0,0.0,0.0,0.0,0.0,0.0,0.0,0.0,0.0,0.0,0.0,0.0,0.6323,0.6971,0.8021,0.9529,0.9579,0.0,0.9579,0.9579,0.9579,0.9579,0.9579,0.9579,0.9579,0.9579,0.9381,0.9031,0.9179,0.8878,0.8237,0.8531,0.8382,0.7988,0.7988,0.7988,0.8041,0.8187,0.8287,0.8382,0.0,0.0,0.0,0.0,0.0,0.0,0.0,0.0,0.0,0.0,0.0,0.7415,0.7415,0.0,0.0,0.0,0.0,0.0,0.4364,0.0,0.0,0.0,0.0,0.0229,0.0,0.0,0.0,0.0,0.0,0.0089,0.0299,0.0437,0.0751,0.1178,0.1217,0.1318,0.1471,0.1362,0.1346,0.1322,0.1292,0.1307,0.1302,0.1314,0.1331,0.1317,0.1236,0.1143,0.0995,0.1004,0.0774,0.0471,0.0624,0.0,0.0,0.0,0.0,0.1014,0.1273,0.1367,0.1412,0.1503,0.1585,0.1558,0.0,0.0,0.1607,0.0,0.0,0.0,0.0,0.0,0.0,0.0,0.0,0.0,0.0,0.0,0.0,0.0,0.0,0.0,0.0,0.0,0.0,0.0,0.0,0.0,0.6323,0.7422,0.8474,0.9579,0.9579,0.9579,0.9579,0.9579,0.9579,0.9579,0.9579,0.9579,0.9579,0.9579,0.948,0.9331,0.9529,0.9179,0.8531,0.8779,0.8581,0.8088,0.8088,0.8088,0.8137,0.8333,0.8482,0.8634,0.0,0.0,0.0,0.0,0.0,0.0,0.0,0.0,0.0,0.0,0.0,0.0,0.7415,0.6976,0.6712,0.6712,0.6241,0.0,0.0,0.0,0.0,0.0,0.0,0.0,0.0,0.0,0.0,0.0,0.0,0.0,0.0048,0.0584,0.0867,0.0926,0.1137,0.1334,0.1473,0.1427,0.1386,0.1383,0.1312,0.1303,0.1311,0.1362,0.1383,0.1378,0.132,0.13,0.1292,0.1275,0.1099,0.0861,0.0879,0.0758,0.06,0.0,0.0,0.0,0.1196,0.1243,0.1328,0.1377,0.1442,0.1501,0.0,0.0,0.0,0.0,0.0,0.0,0.0,0.0,0.0,0.0,0.0,0.0,0.0,0.0,0.0,0.0,0.0,0.0,0.0,0.0,0.0,0.0,0.0,0.0,0.6323,0.7422,0.8474,0.9579,0.9579,0.9579,0.9579,0.9579,0.9579,0.9579,0.9579,0.9579,0.9579,0.9579,0.9579,0.9579,0.9579,0.9278,0.8825,0.908,0.8882,0.8382,0.8382,0.8382,0.8382,0.8382,0.8733,0.9133,0.0,0.0,0.0,0.0,0.0,0.0,0.0,0.0,0.0,0.0,0.0,0.0,0.0,0.6909,0.6702,0.6702,0.6109,0.0,0.0,0.0,0.0,0.0,0.0,0.0,0.0864,0.0876,0.0585,0.0,0.0,0.0,0.0,0.0558,0.0817,0.0868,0.1251,0.1497,0.1604,0.1453,0.1401,0.1416,0.1386,0.1398,0.1433,0.139,0.1414,0.1437,0.1403,0.1375,0.1369,0.1328,0.114,0.1001,0.1133,0.0986,0.0805,0.0936,0.1077,0.1177,0.121,0.1258,0.1314,0.1345,0.1393,0.1438,0.1499,0.1528,0.0,0.0,0.0,0.0,0.0,0.0,0.0,0.0,0.0,0.0,0.0,0.0,0.0,0.0,0.0,0.0,0.0,0.0,0.0,0.0,0.0,0.0,0.6373,0.8071,0.9225,0.9579,0.9579,0.9579,0.9579,0.9579,0.9579,0.9579,0.9579,0.9579,0.9579,0.9579,0.9579,0.9579,0.9579,0.9381,0.908,0.9183,0.8981,0.8627,0.8482,0.8528,0.8676,0.8676,0.8882,0.9232,0.0,0.0,0.0,0.0,0.0,0.0,0.0,0.0,0.7095,0.7095,0.0,0.0,0.0,0.0,0.6694,0.6555,0.6088,0.5566,0.5046,0.4325,0.0,0.0,0.0,0.0,0.1787,0.1826,0.1537,0.0894,0.06,0.0456,0.0448,0.0668,0.0964,0.1311,0.1714,0.1847,0.1674,0.1491,0.1441,0.1449,0.1429,0.1444,0.1482,0.1492,0.1474,0.1546,0.1465,0.1436,0.1428,0.1336,0.1264,0.1156,0.1222,0.1118,0.0987,0.1087,0.1146,0.1149,0.1175,0.1217,0.128,0.1302,0.1331,0.1369,0.146,0.0,0.0,0.0,0.0,0.0,0.0,0.0,0.0,0.0,0.0,0.0,0.0,0.0,0.0,0.0,0.0,0.0,0.0,0.0,0.0,0.0,0.0,0.0,0.6373,0.8425,0.9579,0.9579,0.9579,0.9579,0.9579,0.9579,0.9579,0.9579,0.9579,0.9596,0.9535,0.9535,0.9506,0.9449,0.9449,0.9372,0.9335,0.9335,0.9179,0.8924,0.8671,0.8698,0.8837,0.8777,0.8956,0.9211,0.0,0.0,0.0,0.0,0.0,0.0,0.0,0.0,0.7109,0.7109,0.0,0.0,0.0,0.0,0.0,0.6276,0.621,0.5704,0.454,0.4265,0.0,0.0,0.0,0.0,0.2718,0.2737,0.2738,0.2717,0.1784,0.1354,0.1343,0.0945,0.1302,0.2273,0.2499,0.2273,0.1661,0.1582,0.1553,0.1528,0.1526,0.1527,0.1539,0.1631,0.1667,0.1659,0.1598,0.1528,0.1514,0.1425,0.1393,0.137,0.1251,0.1151,0.1111,0.1111,0.1099,0.1115,0.0,0.0,0.0,0.1277,0.0,0.0,0.0,0.0,0.0,0.0,0.0,0.0,0.0,0.0,0.0,0.0,0.0,0.0,0.0,0.0,0.0,0.0,0.0,0.0,0.0,0.0,0.0,0.0,0.0,0.6126,0.6423,0.8471,0.9579,0.9579,0.9579,0.9579,0.9579,0.9579,0.9575,0.9571,0.9571,0.9527,0.9396,0.9396,0.9302,0.9096,0.9096,0.9291,0.9562,0.9562,0.9414,0.9205,0.903,0.9012,0.8992,0.8769,0.8855,0.9096,0.0,0.0,0.0,0.0,0.0,0.7753,0.7753,0.7594,0.7472,0.0,0.0,0.0,0.7319,0.7173,0.6964,0.6736,0.659,0.6274,0.575,0.5493,0.5173,0.4618,0.479,0.444,0.3568,0.3648,0.3359,0.2717,0.2472,0.24,0.2375,0.2636,0.2886,0.3158,0.342,0.3431,0.3275,0.3205,0.2922,0.2593,0.2424,0.2505,0.2752,0.2748,0.3235,0.3819,0.3036,0.2754,0.2618,0.1815,0.1477,0.1401,0.1282,0.1182,0.1108,0.1108,0.113,0.1178,0.1124,0.0,0.0,0.0,0.0,0.0,0.0,0.0,0.0,0.0,0.0,0.0,0.0,0.0,0.0,0.0,0.0,0.0,0.0,0.0,0.0,0.0,0.0,0.0,0.0,0.0,0.0,0.0,0.5077,0.6478,0.7521,0.8874,0.9579,0.9579,0.9579,0.9579,0.9579,0.9579,0.9559,0.9477,0.9477,0.934,0.9169,0.9169,0.9141,0.9096,0.9096,0.9153,0.9242,0.9242,0.9195,0.9096,0.8851,0.8879,0.902,0.8777,0.8855,0.9096,0.0,0.0,0.0,0.8025,0.7913,0.7811,0.7811,0.7692,0.76,0.0,0.0,0.0,0.7478,0.7329,0.7177,0.6987,0.683,0.6628,0.6334,0.6154,0.5891,0.5556,0.565,0.538,0.4647,0.4709,0.4502,0.3948,0.3618,0.3465,0.3472,0.347,0.3662,0.4084,0.4231,0.4592,0.5069,0.4824,0.4233,0.344,0.3489,0.3611,0.3778,0.3837,0.4233,0.4724,0.4074,0.36,0.3118,0.2457,0.1876,0.14,0.1306,0.1231,0.1172,0.1147,0.1207,0.1228,0.1165,0.1184,0.1184,0.1179,0.0,0.0,0.0,0.1289,0.0,0.0,0.0,0.0,0.0,0.0,0.0,0.0,0.0,0.0,0.0,0.0,0.0,0.0,0.0,0.0,0.0,0.0,0.0,0.0,0.5127,0.6653,0.8476,0.9102,0.9409,0.9409,0.9409,0.9409,0.9409,0.9409,0.9352,0.9294,0.9294,0.9153,0.8982,0.8982,0.8942,0.8877,0.8877,0.8877,0.8877,0.8877,0.8962,0.9088,0.8822,0.884,0.8928,0.8756,0.8736,0.8877,0.0,0.0,0.835,0.8035,0.7877,0.7841,0.7858,0.7756,0.7675,0.0,0.7645,0.7631,0.7648,0.7512,0.7366,0.7183,0.7041,0.6865,0.6546,0.6351,0.6148,0.5909,0.5798,0.5729,0.5726,0.5743,0.5743,0.5726,0.4967,0.4579,0.4567,0.3984,0.4182,0.5012,0.4955,0.5544,0.66,0.6234,0.5408,0.4444,0.4603,0.4729,0.4784,0.4948,0.5066,0.5125,0.5024,0.4375,0.3515,0.3399,0.2661,0.0,0.1544,0.1496,0.1452,0.1273,0.1258,0.1289,0.1229,0.1198,0.1227,0.1286,0.0,0.0,0.1264,0.1288,0.0,0.0,0.0,0.0,0.0,0.0,0.0,0.0,0.0,0.0,0.0,0.0,0.0,0.0,0.0,0.0,0.0,0.0,0.2319,0.4012,0.5298,0.6978,0.9236,0.9181,0.9096,0.9096,0.9096,0.9096,0.9096,0.9096,0.9088,0.9068,0.9068,0.897,0.8792,0.8792,0.871,0.8612,0.8612,0.8612,0.8612,0.8612,0.8755,0.9023,0.8857,0.8792,0.8775,0.8621,0.8612,0.8612,0.0,0.8035,0.8056,0.8002,0.7965,0.8038,0.8163,0.8157,0.814,0.814,0.7923,0.7818,0.7891,0.7818,0.7712,0.7682,0.755,0.7288,0.6868,0.6684,0.6374,0.5912,0.5986,0.5953,0.5788,0.5897,0.59,0.5788,0.5817,0.5774,0.5625,0.5705,0.5742,0.5771,0.5788,0.589,0.6131,0.6322,0.6389,0.6285,0.5616,0.5552,0.5884,0.6027,0.6645,0.7285,0.6384,0.5934,0.5665,0.4769,0.4311,0.3898,0.0,0.0,0.0,0.1567,0.1284,0.1286,0.1288,0.1262,0.1275,0.0,0.0,0.0,0.1246,0.1211,0.0,0.0,0.0,0.0,0.0,0.0,0.0,0.0,0.0,0.0,0.0,0.0,0.0,0.0,0.0,0.0,0.0,0.0,0.2605,0.4963,0.7152,0.8659,0.9149,0.9116,0.9096,0.9096,0.9096,0.9096,0.9096,0.9096,0.9023,0.8873,0.8873,0.8783,0.8661,0.8661,0.8645,0.8612,0.8612,0.8612,0.8612,0.8612,0.8653,0.871,0.8673,0.8661,0.8657,0.8624,0.8612,0.8612,0.8005,0.8102,0.813,0.8005,0.7988,0.8015,0.8143,0.8153,0.8184,0.831,0.8136,0.8041,0.7988,0.7902,0.7811,0.7811,0.7611,0.736,0.7011,0.6824,0.6559,0.6212,0.6118,0.6068,0.6056,0.6056,0.6056,0.6056,0.6201,0.6136,0.5952,0.6185,0.6259,0.6142,0.6064,0.6112,0.6251,0.6251,0.6468,0.6798,0.6605,0.6734,0.6991,0.7159,0.7526,0.7939,0.7388,0.6836,0.6208,0.5061,0.4693,0.0,0.3944,0.3732,0.3631,0.0,0.2497,0.2122,0.205,0.1681,0.0,0.1247,0.0,0.0,0.0,0.0,0.1216,0.0,0.0,0.0,0.0,0.0,0.0,0.0,0.0,0.0,0.0,0.0,0.0,0.0,0.0,0.0,0.0,0.0,0.2663,0.5152,0.7596,0.8958,0.8958,0.8877,0.8832,0.8832,0.8832,0.8832,0.8832,0.8832,0.8787,0.8694,0.8694,0.8649,0.8612,0.8612,0.8612,0.8612,0.8612,0.8612,0.8612,0.8612,0.8612,0.8612,0.8612,0.8612,0.8612,0.8612,0.8612,0.8612,0.8002,0.814,0.8187,0.8012,0.7988,0.8002,0.8029,0.8032,0.814,0.8292,0.8364,0.8262,0.814,0.8014,0.794,0.794,0.7672,0.7434,0.7233,0.6966,0.6729,0.6607,0.6317,0.6225,0.637,0.6231,0.6199,0.6292,0.6327,0.621,0.5996,0.6186,0.6282,0.6252,0.6115,0.6224,0.6497,0.6217,0.6393,0.6871,0.0,0.7624,0.7746,0.7877,0.7944,0.7948,0.7978,0.7437,0.6553,0.5557,0.5206,0.5169,0.4872,0.4772,0.0,0.0,0.0,0.0,0.0,0.0,0.0,0.0,0.0,0.1523,0.0,0.0,0.0,0.1276,0.0,0.0,0.0,0.0,0.0,0.0,0.0,0.0,0.0,0.0,0.0,0.0,0.0,0.0,0.0,0.0,0.3113,0.5373,0.7458,0.869,0.8771,0.8641,0.8612,0.8612,0.8612,0.8612,0.8612,0.8612,0.8612,0.8612,0.8612,0.8612,0.8612,0.8612,0.8612,0.8612,0.8612,0.8612,0.8612,0.8612,0.8612,0.8612,0.8612,0.8612,0.8612,0.8612,0.8612,0.8612,0.7941,0.8005,0.8012,0.7992,0.7988,0.8035,0.8221,0.8245,0.8296,0.8438,0.8459,0.8452,0.8435,0.8418,0.8404,0.8404,0.8136,0.785,0.7746,0.7284,0.7038,0.7021,0.6643,0.6505,0.6657,0.6512,0.642,0.6312,0.6403,0.6305,0.5996,0.6186,0.6186,0.6023,0.6179,0.6361,0.6511,0.6477,0.6801,0.7347,0.7415,0.7453,0.0,0.7729,0.7838,0.7855,0.7941,0.7939,0.7763,0.0,0.7446,0.7251,0.0,0.574,0.5544,0.4614,0.0,0.0,0.0,0.0,0.0,0.0,0.2632,0.0,0.0,0.0,0.1277,0.1224,0.0,0.0,0.0,0.0,0.0,0.0,0.0,0.0,0.0,0.0,0.0,0.0,0.0,0.0,0.0,0.0,0.0,0.6265,0.7434,0.8253,0.8589,0.862,0.8612,0.8612,0.8612,0.8612,0.8612,0.8612,0.8612,0.8612,0.8612,0.8612,0.8612,0.8612,0.8612,0.8612,0.8612,0.8612,0.8612,0.8612,0.8612,0.8612,0.8612,0.8612,0.8612,0.8612,0.8612,0.8612,0.7743,0.7851,0.7882,0.7797,0.7877,0.7982,0.8007,0.8225,0.8414,0.8476,0.8482,0.8482,0.8482,0.8408,0.8391,0.8476,0.8292,0.8106,0.7904,0.7607,0.7366,0.7278,0.6929,0.6766,0.6831,0.6597,0.648,0.6422,0.6402,0.624,0.5996,0.6186,0.6306,0.6291,0.6392,0.6559,0.6848,0.6678,0.68,0.0,0.0,0.0,0.0,0.7763,0.7894,0.7901,0.7968,0.7988,0.7968,0.0,0.7756,0.0,0.0,0.0,0.0,0.0,0.0,0.0,0.0,0.0,0.0,0.0,0.0,0.0,0.2115,0.0,0.1289,0.0,0.0,0.0,0.0,0.0,0.0,0.0,0.0,0.0,0.0,0.0,0.0,0.0,0.0,0.0,0.0,0.0,0.0,0.0,0.0,0.8162,0.856,0.8612,0.8612,0.8612,0.8612,0.8612,0.8612,0.8612,0.8612,0.8612,0.8612,0.8612,0.8612,0.8612,0.8551,0.841,0.8563,0.8551,0.8414,0.8567,0.8612,0.8612,0.8612,0.8612,0.8612,0.8612,0.8612,0.8612,0.7516,0.7655,0.7733,0.7668,0.7834,0.7967,0.7943,0.8248,0.8499,0.854,0.8581,0.8608,0.8608,0.8516,0.8496,0.8598,0.8476,0.8326,0.817,0.7885,0.7672,0.756,0.7231,0.7051,0.7051,0.6712,0.6555,0.6511,0.6368,0.6179,0.5996,0.6186,0.6354,0.6457,0.6538,0.6759,0.7082,0.6912,0.6956,0.7132,0.7196,0.727,0.7382,0.7779,0.7955,0.7988,0.7988,0.7988,0.7968,0.7862,0.7743,0.0,0.7685,0.0,0.0,0.0,0.0,0.0,0.6097,0.0,0.0,0.0,0.0,0.0,0.0,0.0,0.0,0.0,0.0,0.0,0.0,0.0,0.0,0.1218,0.0,0.0,0.0,0.0,0.0,0.0,0.0,0.0,0.0,0.0,0.0,0.0,0.0,0.0,0.8552,0.8612,0.8612,0.8612,0.8612,0.8612,0.8612,0.8612,0.8588,0.8535,0.8535,0.851,0.8418,0.8418,0.8341,0.8223,0.8357,0.8341,0.8223,0.8361,0.8418,0.8418,0.8418,0.8418,0.8422,0.8518,0.8535,0.8535,0.7426,0.7502,0.7648,0.778,0.7814,0.7916,0.8211,0.8384,0.8533,0.8682,0.8832,0.8868,0.8868,0.8865,0.8865,0.8868,0.8784,0.8632,0.8479,0.8191,0.7975,0.7968,0.7594,0.7402,0.7402,0.6922,0.662,0.6511,0.6368,0.6179,0.5996,0.6186,0.6303,0.632,0.6566,0.6858,0.7095,0.7085,0.7334,0.777,0.7638,0.7756,0.7948,0.0,0.7913,0.7988,0.7988,0.0,0.0,0.7862,0.7807,0.0,0.0,0.0,0.0,0.0,0.0,0.0,0.0,0.0,0.0,0.5717,0.0,0.0,0.0,0.0,0.3643,0.0,0.0,0.0,0.0,0.0,0.1279,0.1219,0.1211,0.0,0.0,0.0,0.0,0.0,0.0,0.0,0.0,0.0,0.0,0.0,0.0,0.0,0.854,0.8612,0.8612,0.8612,0.8612,0.8612,0.8612,0.8612,0.8522,0.83,0.83,0.8207,0.8028,0.8028,0.8028,0.802,0.8028,0.8028,0.802,0.8028,0.8028,0.8028,0.8028,0.8028,0.8052,0.8231,0.83,0.83,0.7522,0.7563,0.7584,0.7529,0.7682,0.7916,0.8275,0.8364,0.8431,0.8679,0.8757,0.8862,0.9059,0.8994,0.8977,0.9072,0.8947,0.8798,0.8645,0.8445,0.8333,0.8333,0.7902,0.7662,0.7662,0.7221,0.6919,0.6773,0.6624,0.6525,0.6471,0.6424,0.6494,0.6556,0.6658,0.6922,0.7292,0.7292,0.0,0.0,0.0,0.7777,0.7985,0.0,0.0,0.7988,0.7988,0.7988,0.0,0.7931,0.7896,0.7794,0.7692,0.7529,0.7405,0.7309,0.7221,0.0,0.0,0.0,0.7004,0.6554,0.0,0.0,0.0,0.0,0.0,0.0,0.0,0.0,0.0,0.268,0.221,0.2178,0.1644,0.1194,0.0,0.0,0.0,0.0,0.0,0.0,0.0,0.0,0.0,0.0,0.0,0.0,0.0,0.8612,0.8612,0.8612,0.849,0.8385,0.8385,0.8264,0.817,0.8105,0.8105,0.8073,0.8012,0.8012,0.7951,0.7894,0.7963,0.7951,0.7854,0.7967,0.8012,0.8012,0.8012,0.7943,0.7866,0.804,0.8182,0.8292,0.7685,0.7675,0.7645,0.7546,0.7729,0.7977,0.8231,0.8364,0.8455,0.8754,0.8835,0.0,0.9265,0.0,0.9133,0.0,0.91,0.893,0.8723,0.8618,0.0,0.8411,0.8177,0.8001,0.0,0.0,0.721,0.696,0.6854,0.6753,0.6698,0.6546,0.6566,0.662,0.6675,0.6892,0.7224,0.7383,0.7539,0.0,0.0,0.7823,0.0,0.0,0.7988,0.7988,0.0,0.7988,0.7988,0.7988,0.7924,0.7875,0.777,0.7604,0.7431,0.7322,0.7217,0.7095,0.7095,0.7095,0.0,0.0,0.6424,0.0,0.577,0.0,0.0,0.0,0.0,0.0,0.0,0.0,0.3207,0.3147,0.2509,0.1963,0.0,0.0,0.0,0.0,0.0,0.0,0.0,0.0,0.6385,0.7215,0.0,0.0,0.0,0.0,0.8543,0.8608,0.8385,0.8292,0.8292,0.8105,0.7983,0.7923,0.7923,0.789,0.7825,0.7825,0.7764,0.7706,0.7776,0.7764,0.771,0.778,0.7825,0.7825,0.7825,0.7756,0.7722,0.7858,0.8,0.8122,0.7862,0.7838,0.7845,0.7845,0.7897,0.8082,0.0,0.0,0.8581,0.0,0.9059,0.9272,0.9374,0.9391,0.9391,0.9391,0.9303,0.9088,0.875,0.872,0.0,0.0,0.8418,0.835,0.8019,0.0,0.0,0.0,0.6977,0.6871,0.6719,0.6559,0.6521,0.6528,0.6634,0.6783,0.6916,0.7411,0.7685,0.7834,0.7931,0.7988,0.7988,0.7988,0.0,0.7988,0.7988,0.7988,0.7988,0.7988,0.7988,0.7938,0.7692,0.76,0.7539,0.7186,0.7095,0.7095,0.7095,0.7095,0.7065,0.693,0.0,0.0,0.0,0.0,0.6668,0.0,0.0,0.0,0.0,0.0,0.4144,0.4082,0.374,0.3461,0.3239,0.0,0.0,0.0,0.0,0.0,0.0,0.4716,0.5359,0.6976,0.6889,0.7192,0.0,0.0,0.0,0.8592,0.8373,0.8276,0.8276,0.8085,0.7906,0.7788,0.7788,0.7694,0.7484,0.7484,0.7484,0.7484,0.7484,0.7484,0.7484,0.7484,0.7484,0.7484,0.7484,0.7484,0.7504,0.7731,0.7792,0.7837,0.8136,0.8238,0.8309,0.8309,0.8065,0.796,0.0,0.0,0.0,0.0,0.8994,0.9313,0.952,0.9551,0.9551,0.9551,0.9306,0.0,0.0,0.0,0.0,0.8767,0.8584,0.8445,0.837,0.8113,0.7769,0.7482,0.0,0.718,0.6977,0.6763,0.6644,0.6644,0.6681,0.6783,0.6916,0.7411,0.7746,0.7934,0.7975,0.7988,0.0,0.0,0.7988,0.7988,0.7988,0.7988,0.7988,0.7988,0.7988,0.7938,0.7692,0.76,0.7539,0.7186,0.7095,0.7095,0.7095,0.7095,0.7088,0.7051,0.6964,0.6876,0.0,0.0,0.0,0.0,0.0,0.0,0.0,0.0,0.0,0.4938,0.4203,0.363,0.3597,0.0,0.0,0.0,0.0,0.0,0.0,0.0,0.6281,0.6783,0.0,0.0,0.0,0.0,0.0,0.8357,0.8182,0.8085,0.8085,0.7776,0.7598,0.7592,0.7592,0.7567,0.7484,0.7484,0.7484,0.7484,0.7484,0.7484,0.7484,0.7484,0.7484,0.7484,0.7484,0.7484,0.7504,0.7731,0.771,0.7645,0.8357,0.8428,0.8503,0.857,0.0,0.0,0.8347,0.8364,0.0,0.8679,0.8967,0.0,0.9483,0.9625,0.97,0.97,0.9429,0.0,0.9214,0.0,0.0,0.8838,0.8737,0.8618,0.8486,0.8319,0.0,0.76,0.0,0.7326,0.7001,0.681,0.6664,0.6603,0.6671,0.6749,0.6861,0.738,0.7733,0.7894,0.7965,0.0,0.0,0.7988,0.7988,0.7988,0.7988,0.7988,0.7988,0.7988,0.7988,0.7938,0.7692,0.76,0.7539,0.7186,0.7095,0.7095,0.7095,0.7095,0.7095,0.7095,0.7038,0.6977,0.6977,0.6977,0.6977,0.0,0.0,0.0,0.0,0.0,0.0,0.5589,0.5064,0.4689,0.0,0.0,0.0,0.0,0.0,0.0,0.0,0.0,0.0,0.0,0.0,0.0,0.0,0.0,0.0,0.0,0.8109,0.8012,0.8012,0.7663,0.7484,0.7484,0.7484,0.7484,0.7484,0.7484,0.7484,0.7484,0.7484,0.7484,0.7484,0.7484,0.7484,0.7484,0.7484,0.7484,0.7496,0.7641,0.7612,0.7533,0.8533,0.8543,0.8604,0.0,0.0,0.0,0.0,0.857,0.0,0.8777,0.0,0.9326,0.9422,0.9669,0.9822,0.9822,0.0,0.9323,0.9248,0.9028,0.8824,0.8747,0.8814,0.8804,0.852,0.8492,0.8201,0.0,0.0,0.737,0.6883,0.6773,0.6617,0.6518,0.663,0.0,0.0,0.7377,0.7692,0.7851,0.7938,0.7988,0.7988,0.7988,0.7988,0.7988,0.7988,0.7988,0.7988,0.7988,0.7988,0.7938,0.7692,0.76,0.7539,0.7186,0.7095,0.7095,0.7095,0.7095,0.7095,0.7095,0.7095,0.7095,0.7095,0.7095,0.7095,0.7095,0.7095,0.0,0.0,0.0,0.0,0.0,0.0,0.0,0.0,0.0,0.0,0.0,0.0,0.0,0.0,0.0,0.0,0.0,0.0,0.0,0.0,0.0,0.0,0.0,0.8077,0.0,0.8012,0.0,0.7484,0.7484,0.7484,0.7484,0.7484,0.7484,0.7484,0.7484,0.7484,0.7484,0.7484,0.7484,0.7484,0.7484,0.7484,0.7484,0.7484,0.7484,0.7484,0.7529,0.8652,0.8869,0.9005,0.8913,0.0,0.9122,0.9094,0.9091,0.9146,0.9242,0.9418,0.9585,0.9727,0.9788,0.9822,0.9822,0.9551,0.0,0.0,0.0,0.0,0.8844,0.8868,0.8801,0.8672,0.8547,0.8248,0.0,0.0,0.737,0.6883,0.6773,0.6617,0.6518,0.0,0.0,0.7451,0.7556,0.0,0.7951,0.7978,0.7988,0.7988,0.7988,0.7988,0.7988,0.7988,0.7988,0.7988,0.7988,0.7988,0.7938,0.7692,0.76,0.7539,0.7186,0.7095,0.7095,0.7095,0.7095,0.7095,0.7095,0.7095,0.7095,0.7095,0.7095,0.7095,0.7095,0.7095,0.7014,0.679,0.0,0.0,0.0,0.0,0.0,0.0,0.0,0.0,0.0,0.0,0.0,0.0,0.0,0.0,0.0,0.0,0.0,0.0,0.0,0.0,0.0,0.0,0.0,0.0,0.0,0.0,0.7484,0.7484,0.7484,0.7484,0.7484,0.7484,0.7484,0.7484,0.7484,0.7484,0.7484,0.7484,0.7484,0.7484,0.7484,0.7484,0.7484,0.7484,0.7551,0.9045,0.911,0.938,1.0002,0.0,0.0,0.0,1.0433,0.0,0.9398,0.9395,0.9517,0.9585,0.973,0.9822,0.9822,0.9551,0.9381,0.9381,0.9103,0.8885,0.8885,0.8885,0.8811,0.8713,0.856,0.8262,0.7811,0.0,0.0,0.681,0.6736,0.6617,0.6521,0.0,0.7065,0.0,0.0,0.0,0.788,0.7958,0.7988,0.7988,0.7988,0.7988,0.7988,0.7988,0.7988,0.7988,0.7988,0.7988,0.7951,0.778,0.7658,0.7556,0.7326,0.7204,0.7095,0.7095,0.7095,0.7095,0.7095,0.7095,0.7095,0.7095,0.7095,0.7095,0.7095,0.7038,0.6896,0.6637,0.6446,0.0,0.0,0.0,0.0,0.0,0.0,0.0,0.0,0.0,0.0,0.0,0.0,0.0,0.0,0.0,0.0,0.0,0.0,0.0,0.0,0.0,0.0,0.0,0.0,0.0,0.7484,0.7484,0.7484,0.7484,0.7484,0.7484,0.7518,0.794,0.8131,0.8165,0.858,0.8727,0.8727,0.8727,0.8504,0.8169,0.858,0.8466,0.8081,1.0185,1.0161,0.0,0.0,1.0898,0.0,1.1749,1.2047,1.1419,0.9571,0.963,0.9765,0.9535,0.9683,0.9808,0.9778,0.9534,0.9367,0.9337,0.9086,0.8885,0.8885,0.8885,0.8828,0.876,0.8577,0.8292,0.0,0.0,0.0,0.0,0.6763,0.0,0.0,0.0,0.0,0.0,0.0,0.7729,0.7872,0.7941,0.7988,0.7988,0.7988,0.7988,0.7988,0.7988,0.7988,0.7988,0.7988,0.7988,0.7965,0.7858,0.7736,0.7607,0.7424,0.7285,0.7139,0.7105,0.7095,0.7095,0.7095,0.7095,0.7095,0.7095,0.7095,0.7088,0.7058,0.6913,0.6759,0.6555,0.6395,0.0,0.0,0.0,0.0,0.0,0.0,0.0,0.0,0.0,0.0,0.0,0.0,0.0,0.0,0.0,0.0,0.6975,0.722,0.0,0.0,0.0,0.0,0.7898,0.0,0.7484,0.0,0.7484,0.7484,0.7522,0.7676,0.7748,0.7787,0.8623,0.896,0.8998,0.9631,0.9895,0.9895,0.9895,0.9523,0.9036,0.9669,0.9485,0.8875,0.0,0.0,0.0,0.0,0.0,0.0,0.0,1.3409,1.2629,1.0063,1.0729,1.1042,0.9899,0.9805,0.9771,0.9642,0.9479,0.932,0.9241,0.9025,0.8885,0.8885,0.8885,0.8875,0.8861,0.8632,0.8397,0.0,0.0,0.0,0.0,0.0,0.0,0.0,0.0,0.0,0.0,0.7729,0.7879,0.7971,0.7985,0.7988,0.7988,0.7988,0.7988,0.7988,0.7988,0.7988,0.7988,0.7988,0.7988,0.7965,0.7858,0.7801,0.7736,0.7455,0.7405,0.7319,0.7132,0.7095,0.7095,0.7095,0.7095,0.7095,0.7095,0.7095,0.7058,0.693,0.6719,0.6545,0.6518,0.6395,0.63,0.0,0.0,0.0,0.0,0.0,0.6933,0.7052,0.0,0.0,0.0,0.0,0.0,0.0,0.0,0.0,0.0,0.6873,0.0,0.7516,0.0,0.7358,0.7533,0.75,0.0,0.7484,0.7484,0.7484,0.7518,0.8246,0.8589,0.8623,0.9448,0.9782,0.9782,0.9857,0.9895,0.9895,0.9895,0.9857,0.9782,0.9857,0.9857,0.9782,0.0,0.0,0.0,0.0,0.0,0.0,0.0,1.4795,1.4197,1.2402,1.2586,1.2706,1.2225,1.2165,1.2034,1.1854,1.1661,1.1192,1.0284,1.0061,0.9644,0.8937,0.8885,0.8885,0.8885,0.8638,0.8414,0.0,0.0,0.0,0.0,0.0,0.0,0.0,0.0,0.7533,0.7729,0.7787,0.7899,0.7988,0.7988,0.7988,0.7988,0.7988,0.7988,0.7988,0.7988,0.7988,0.7988,0.7988,0.7988,0.7978,0.7917,0.7885,0.7787,0.7672,0.7509,0.7402,0.7295,0.721,0.7095,0.7095,0.7095,0.7095,0.7095,0.7095,0.7055,0.6916,0.6771,0.665,0.6595,0.6602,0.6676,0.0,0.0,0.0,0.0,0.0,0.0,0.7638,0.0,0.7057,0.0,0.0,0.0,0.0,0.0,0.0,0.0,0.0,0.0,0.7317,0.0,0.8127,0.8208,0.8208,0.8208,0.8208,0.7748,0.7748,0.8246,0.8551,0.9231,1.0169,1.047,1.0875,1.1323,1.1323,1.1323,1.1323,1.1323,1.1062,1.0689,1.1174,1.1025,1.0689,1.4798,0.0,1.4955,0.0,1.5312,1.496,1.6026,1.6166,1.5811,1.4917,1.4798,1.456,1.3784,1.3725,1.358,1.3372,1.3102,1.255,1.1513,1.1325,1.084,0.9974,0.9919,0.0,0.9919,0.9372,0.8999,0.8844,0.8177,0.0,0.0,0.0,0.0,0.0,0.7594,0.7719,0.7814,0.7858,0.7891,0.7988,0.7988,0.7988,0.7988,0.7988,0.7988,0.7988,0.7988,0.7988,0.7988,0.7988,0.8038,0.8137,0.8137,0.8062,0.7966,0.8021,0.7902,0.7717,0.7626,0.7517,0.7375,0.733,0.7319,0.7319,0.7319,0.7281,0.7194,0.7003,0.6875,0.6813,0.6697,0.6788,0.6903,0.0,0.0,0.0,0.0,0.0,0.0,0.0,0.7728,0.7337,0.6892,0.0,0.0,0.0,0.0,0.0,0.0,0.0,0.0,0.0,0.0,0.0,0.0,0.0,0.8813,0.9036,0.8241,0.828,0.9074,0.9301,1.0169,1.1446,1.1446,1.1781,1.2305,1.2305,1.2305,1.2305,1.2305,1.1966,1.1521,1.2077,1.1929,1.1521,1.742,1.7479,1.7479,1.7479,1.7479,1.7479,1.7485,1.7485,1.7485,1.7479,1.742,1.6526,1.3963,1.3725,1.3639,1.3421,1.3154,1.2947,1.279,1.2531,1.2363,0.0,0.0,1.2363,1.2363,1.1093,1.0375,1.0192,0.0,0.0,0.7801,0.0,0.0,0.7604,0.7746,0.7811,0.7821,0.7924,0.7988,0.7988,0.7988,0.7988,0.7988,0.7988,0.7988,0.7988,0.7988,0.7988,0.7988,0.7988,0.8187,0.8382,0.8382,0.8379,0.84,0.8542,0.859,0.8516,0.8191,0.8102,0.8061,0.7941,0.79,0.79,0.79,0.7726,0.7509,0.7149,0.6984,0.6903,0.6903,0.6903,0.6903,0.6903,0.0,0.0,0.0,0.0,0.0,0.0,0.7351,0.6998,0.7187,0.0,0.0,0.0,0.0,0.0,0.0,0.0,0.0,0.8363,0.915,0.0,0.9592,0.9008,0.9112,0.9895,0.9074,0.9112,0.9895,1.0694,1.1521,1.2298,1.2298,1.2298,1.2305,1.2305,1.2305,1.2305,1.2305,1.2298,1.2298,1.2305,1.2298,1.2298,1.7901,1.7849,1.7784,1.7543,1.7485,1.7485,1.7485,1.7485,1.7485,1.7485,1.7485,1.7185,1.6408,1.629,1.6188,0.0,1.5845,1.528,0.0,1.3944,1.3446,1.2422,1.2417,1.2417,1.2417,1.1889,1.1649,1.1581,0.0,0.0,0.0,0.787,0.785,0.7853,0.7897,0.7917,0.7921,0.7968,0.7988,0.8041,0.8187,0.8283,0.8283,0.8482,0.8432,0.8287,0.8482,0.8333,0.8038,0.8432,0.8482,0.8482,0.8836,0.8829,0.8669,0.8716,0.8676,0.8542,0.8322,0.8188,0.8065,0.7941,0.79,0.79,0.79,0.7722,0.7539,0.733,0.7272,0.723,0.7123,0.7215,0.737,0.7493,0.0,0.0,0.0,0.0,0.0,0.0,0.7607,0.7275,0.0,0.7281,0.0,0.0,0.0,0.0,0.0,0.0,0.0,0.0,1.0095,0.0,1.0413,1.0344,1.047,1.0694,0.99,0.9938,1.0769,1.1552,1.2077,1.2305,1.2305,1.2305,1.2305,1.2305,1.2305,1.2305,1.2305,1.2305,1.2305,1.2305,1.2305,1.2305,1.8194,1.8135,1.8077,1.7895,1.7837,1.7778,1.7719,1.7667,1.7661,1.7543,1.7485,1.7485,1.7485,1.7485,0.0,1.7435,1.744,1.6956,1.5794,1.5618,1.5112,1.4046,1.4035,1.4035,1.4035,0.0,0.0,1.3152,1.1271,0.9861,0.9061,0.8556,0.8283,0.8283,0.8283,0.8283,0.8283,0.8283,0.8283,0.8333,0.8482,0.8528,0.8581,0.8726,0.8676,0.8581,0.8726,0.8577,0.8333,0.8676,0.8779,0.8733,0.9084,0.913,0.9126,0.9126,0.9056,0.8937,0.876,0.8598,0.8428,0.83,0.8211,0.8149,0.8083,0.7935,0.7812,0.7646,0.7642,0.7593,0.7466,0.7512,0.7665,0.778,0.0,0.8052,0.817,0.0,0.0,0.0,0.0,0.0,0.0,0.7926,0.0,0.0,0.0,0.0,0.0,0.0,0.0,1.0039,1.1004,0.0,1.1367,1.1175,1.126,1.1558,1.1025,1.1062,1.1558,1.2077,1.2305,1.2305,1.2305,1.2305,1.2305,1.2305,1.2305,1.2305,1.2305,1.2305,1.2305,1.2305,1.2305,1.2305,1.8447,1.8428,0.0,0.0,1.8421,0.0,1.8083,1.8031,1.7908,1.7602,1.7543,1.7543,1.7543,1.7596,1.7719,1.8025,0.0,0.0,0.0,1.7366,1.708,1.6774,1.6709,0.0,1.6677,1.5654,1.4993,1.4786,1.2322,1.1001,1.0869,0.9552,0.8935,0.892,0.892,0.892,0.892,0.892,0.892,0.892,0.8874,0.8825,0.8825,0.8825,0.8825,0.8825,0.8874,0.8825,0.8825,0.8825,0.9031,0.9187,0.9232,0.9381,0.9579,0.9579,0.9579,0.9587,0.9453,0.9286,0.9068,0.8869,0.8694,0.8567,0.8349,0.8308,0.8256,0.8069,0.8032,0.7979,0.7849,0.7816,0.782,0.7833,0.7931,0.8032,0.8032,0.0,0.0,0.0,0.0,0.0,0.0,0.8987,0.9389,0.0,0.0,0.0,0.0,0.0,1.004,1.113,1.1892,1.2305,1.2305,1.1558,1.1558,1.2305,1.2305,1.2305,1.2305,1.2305,1.2305,1.2305,1.2305,1.2305,1.2305,1.2305,1.2305,1.2305,1.2305,1.2305,1.2305,1.2305,1.2305,1.2305,0.0,0.0,1.8706,1.8415,1.8421,1.8363,1.8305,1.8311,1.8305,1.8188,1.8188,1.8188,1.8188,1.8415,1.859,1.8655,1.8254,1.798,1.7932,1.7843,1.7582,1.7073,1.7054,1.6952,1.6736,1.6465,1.5793,1.4786,1.4142,1.3227,1.1979,1.0874,1.0233,0.9998,0.9998,0.9998,0.9998,0.9998,0.9998,0.9948,0.9373,0.9084,0.913,0.9327,0.9282,0.9133,0.9327,0.9126,0.8874,0.9274,0.9331,0.9236,0.943,0.9529,0.9579,0.9579,0.9579,0.9587,0.9453,0.9371,0.9265,0.8901,0.8694,0.86,0.8555,0.8547,0.849,0.8264,0.8223,0.817,0.7988,0.7955,0.8,0.8142,0.8199,0.8223,0.8223,0.0,0.0,0.0,0.8762,0.9064,0.9691,1.0289,1.0384,0.0,0.0,0.0,0.0,0.0,1.0942,1.199,1.2187,1.2305,1.2305,1.2114,1.2114,1.2305,1.2305,1.2305,1.2305,1.2305,1.2305,1.2305,1.2305,1.2305,1.2305,1.2305,1.2305,1.2305,1.2305,1.2305,1.2305,1.2305,1.2305,1.2305,1.9523,1.9318,1.9062,1.8894,1.8836,1.8829,1.8648,1.8648,1.859,1.8421,1.8421,1.8421,1.8421,1.8532,1.8706,1.8881,1.8719,1.8545,1.8426,1.8407,1.8153,1.7568,1.7542,1.7406,1.7107,1.71,1.6759,1.607,1.5477,1.47,1.3863,1.2628,1.2012,1.1849,1.1849,1.1849,1.1844,1.1746,1.1658,1.1648,1.1021,1.0498,1.0109,1.0256,0.9916,0.9381,0.9529,0.9426,0.9225,0.9525,0.948,0.943,0.9579,0.9579,0.9579,0.9579,0.9579,0.9608,0.9506,0.9465,0.9318,0.8909,0.8751,0.8662,0.8629,0.8612,0.8584,0.8482,0.8418,0.8361,0.8174,0.8138,0.8296,0.8861,0.8921,0.9085,0.9461,0.9321,0.0,0.9672,0.9782,0.9936,1.0327,1.1113,1.1329,1.0724,0.0,0.0,1.1497,1.1507,1.173,1.2298,1.2305,1.2305,1.2305,1.2305,1.2305,1.2305,1.2305,1.2305,1.2305,1.2305,1.2305,1.2305,1.2305,1.2305,1.2305,1.2305,1.2305,1.2305,1.2305,1.2305,1.2305,1.2305,1.2378,1.2452,1.9927,1.9666,1.9432,1.9432,1.9457,1.9307,1.9004,1.8997,1.8881,1.8596,1.8538,1.8538,1.8538,1.8538,1.8655,1.8939,1.9243,1.9259,1.9005,1.8991,1.8751,1.8149,1.8122,1.8036,1.7729,1.7675,1.7629,1.7582,1.6436,1.5881,1.5786,1.4516,1.3879,1.3846,1.3846,1.3846,1.3829,1.3574,1.3491,1.3469,1.3013,1.2276,1.1467,1.1353,1.0793,1.0019,0.9751,0.9842,1.0015,0.9723,0.9727,0.9817,0.9817,0.9817,0.9817,0.9817,0.9817,0.9821,0.9628,0.9587,0.9564,0.9204,0.9174,0.9229,0.912,0.9064,0.8999,0.8999,0.8999,0.8948,0.8781,0.8751,0.896,0.9635,0.9846,1.0122,1.0716,0.0,1.0635,1.0723,1.0758,1.0752,1.0741,1.1799,1.2202,1.165,1.2356,0.0,0.0,1.2305,1.2305,1.2305,1.2305,1.2305,1.2305,1.2305,1.2305,1.2305,1.2305,1.2305,1.2305,1.2305,1.2305,1.2305,1.2305,1.2305,1.2305,1.2305,1.2305,1.2305,1.2305,1.2305,1.2305,1.2342,1.2452,1.2599,2.0488,2.0107,1.9733,1.9733,1.9533,1.9366,1.9307,1.9307,1.9307,1.9249,1.9249,1.9249,1.9249,1.9249,1.9249,1.9307,1.9366,1.941,1.9299,1.9299,1.9145,1.8804,1.8791,1.8651,1.8357,1.8103,1.7849,1.7582,1.7377,1.7173,1.6935,1.5795,1.5191,1.4931,1.4931,1.4931,1.4925,1.4889,1.4871,1.4814,1.3853,1.3206,1.2801,1.2091,1.1983,1.2029,1.0434,1.0884,1.1955,1.0212,1.0207,1.093,1.093,1.093,1.093,1.093,1.093,1.0739,0.9871,1.0122,1.0668,1.0603,1.0968,1.1316,1.1324,1.1079,1.0895,1.0895,1.0895,1.0885,1.0849,1.0838,1.0623,0.9981,1.0542,1.0771,0.0,0.0,1.0776,1.1315,1.137,1.1642,1.2376,1.2811,1.2929,1.2619,1.2707,1.2656,1.2318,1.2305,1.2305,1.2305,1.2305,1.2305,1.2305,1.2305,1.2305,1.2305,1.2305,1.2305,1.2305,1.2305,1.2305,1.2305,1.2305,1.2305,1.2305,1.2305,1.2305,1.2305,1.2305,1.2305,1.2335,1.2489,1.2562,1.2636,2.0648,2.0327,1.9987,1.9826,1.9686,1.9546,1.9392,1.9424,1.9424,1.9424,1.9424,1.9424,1.9424,1.9424,1.9424,1.9424,1.9424,1.9424,1.9424,1.9424,1.9232,1.8938,1.8925,1.8784,1.8497,1.8142,1.7922,1.7836,1.7662,1.7515,1.7382,1.6905,1.6626,1.6504,1.6504,1.6504,1.6491,1.6343,1.6279,1.6215,1.5537,1.4847,1.4256,1.3812,1.3454,1.3054,1.2043,1.2344,1.2972,1.1693,1.1742,1.226,1.2034,1.1999,1.1999,1.1999,1.1224,1.0207,0.9723,1.0338,1.1057,1.0948,1.1517,1.2126,1.187,1.1684,1.1521,1.1354,1.1284,1.1284,1.1284,1.1284,1.1322,1.1408,1.1757,0.0,0.0,1.1915,1.2049,1.2196,1.2197,1.2298,1.2525,1.2824,1.2871,1.2569,1.2543,1.2445,1.2311,1.2305,1.2305,1.2305,1.2305,1.2305,1.2305,1.2305,1.2305,1.2305,1.2305,1.2305,1.2305,1.2305,1.2305,1.2305,1.2305,1.2305,1.2305,1.2415,1.2415,1.2335,1.2526,1.2584,1.2614,1.292,1.3137,1.3276,2.0775,2.0541,2.0261,2.0047,1.9947,1.9826,1.9599,1.9512,1.9466,1.9466,1.947,1.9424,1.9424,1.9424,1.9424,1.9424,1.9424,1.9424,1.9424,1.9424,1.9265,1.9038,1.9025,1.8891,1.8597,1.8364,1.8129,1.7995,1.7809,1.7655,1.7582,1.7582,1.7582,1.7582,1.7582,1.7582,1.7569,1.7393,1.73,1.7286,1.7001,1.6411,1.5643,1.545,1.493,1.423,1.3601,1.3785,1.4185,1.315,1.3133,1.349,1.3148,1.3071,1.3071,1.3071,1.1765,1.0306,1.0306,1.1082,1.1866,1.1748,1.242,1.3072,1.2739,1.2612,1.2447,1.2108,1.2057,1.204,1.194,1.1972,1.21,1.2619,0.0,0.0,0.0,1.3332,1.32,1.2924,1.2831,1.2663,1.2331,1.2549,1.2583,1.2318,1.2305,1.2305,1.2305,1.2305,1.2305,1.2305,1.2305,1.2305,1.2305,1.2371,1.2405,1.2405,1.2405,1.2405,1.2405,1.2338,1.2305,1.2305,1.2342,1.2378,1.2378,1.2599,1.2562,1.2496,1.2866,1.2965,1.2988,1.3446,1.3656,1.379,2.1076,2.0842,2.0635,2.0615,2.0388,2.0133,2.0113,1.994,1.9766,1.9766,1.9533,1.9424,1.9424,1.9424,1.9424,1.9424,1.9424,1.9424,1.9424,1.9424,1.9417,1.9332,1.9332,1.9192,1.8898,1.8871,1.8535,1.7995,1.7969,1.7862,1.7582,1.7582,1.7582,1.7582,1.7582,1.7582,1.7582,1.7562,1.7549,1.7549,1.7528,1.7355,1.6935,1.6138,1.6128,1.6225,1.4504,1.4962,1.6147,1.3889,1.3821,1.4544,1.428,1.4196,1.4196,1.4196,1.3366,1.249,1.249,1.327,1.4046,1.4028,1.46,1.5193,1.5153,1.4942,1.4665,1.4324,1.4265,1.4186,1.3923,1.387,1.361,1.2833,0.0,0.0,1.2893,1.3249,1.346,1.3213,1.2958,1.2663,1.2331,1.2318,1.2325,1.2305,1.2305,1.2305,1.2305,1.2305,1.2305,1.2305,1.2305,1.2305,1.2305,1.2616,1.275,1.275,1.275,1.275,1.2744,1.2425,1.2305,1.2305,1.2489,1.2562,1.2599,1.279,1.2863,1.2891,1.3215,1.3341,1.3435,1.3963,1.3976,1.3746,2.1109,2.1022,2.0889,2.0708,2.0581,2.0448,2.02,2.014,2.0067,2.0067,1.9813,1.97,1.9887,1.9586,1.9497,1.9619,1.9472,1.9424,1.9424,1.9424,1.9424,1.9424,1.9424,1.9319,1.9199,1.9018,1.8811,1.8535,1.841,1.817,1.7869,1.7869,1.7769,1.7582,1.7582,1.7582,1.7582,1.7582,1.7582,1.7582,1.7582,1.7515,1.7428,1.7055,1.7069,1.7138,1.6284,1.651,1.7071,1.5783,1.5746,1.6174,1.5716,1.5519,1.5486,1.5306,1.4956,1.4615,1.4615,1.4478,1.4298,1.4298,1.4988,1.5618,1.5438,1.5311,1.5097,1.4616,1.4522,1.4429,1.4142,1.4088,1.3997,1.3616,0.0,1.3895,1.3329,1.3461,1.3493,1.3247,1.3106,1.2993,1.2879,1.273,1.2616,1.2616,1.2405,1.2305,1.2305,1.2305,1.2305,1.2305,1.2516,1.2522,1.2305,1.2636,1.2784,1.2784,1.2784,1.286,1.2923,1.2624,1.2562,1.2673,1.2746,1.279,1.2783,1.301,1.301,1.2943,1.3329,1.3539,1.3702,1.418,1.4482,1.4564,2.1109,2.1109,2.1049,2.0848,2.0815,2.0742,2.0541,2.0428,2.0374,2.0374,2.012,2.0013,2.0153,1.9873,1.9679,1.9786,1.9619,1.9466,1.943,1.9424,1.9424,1.9424,1.9424,1.9424,1.9424,1.9165,1.9018,1.8925,1.8724,1.8477,1.8129,1.8035,1.7876,1.7722,1.7622,1.7582,1.7582,1.7582,1.7582,1.7582,1.7582,1.7582,1.7582,1.7582,1.7582,1.7555,1.7407,1.7467,1.7508,1.7007,1.7032,1.7099,1.6509,1.6213,1.6092,1.5885,1.5784,1.5784,1.5784,1.5302,1.4777,1.4777,1.5302,1.5731,1.5578,1.5531,1.5391,1.4897,1.4723,1.4569,1.4282,1.4148,1.4088,1.4088,1.4088,1.4015,1.3808,1.374,1.3633,1.334,1.3347,1.3273,1.322,1.3019,1.2891,1.279,1.2596,1.2445,1.2445,1.2351,1.2392,1.2585,1.2723,1.2768,1.2692,1.2918,1.3065,1.3065,1.3143,1.3214,1.3317,1.2996,1.2929,1.304,1.3015,1.2973,1.301,1.32,1.3257,1.3269,1.3535,1.3823,1.4073,1.4496,1.4685,1.4753,2.1109,2.1109,2.1109,2.1109,2.1109,2.1109,2.1109,2.0862,2.0681,2.0681,2.0421,2.0173,2.0241,2.0173,2.0114,1.9833,1.9806,1.9679,1.9444,1.9424,1.9424,1.9424,1.9424,1.9424,1.9424,1.9424,1.9225,1.8925,1.8925,1.8778,1.849,1.8135,1.7995,1.7975,1.7722,1.7582,1.7582,1.7582,1.7582,1.7582,1.7582,1.7582,1.7582,1.7582,1.7582,1.7582,1.7582,1.7582,1.7542,1.73,1.7206,1.7105,1.6509,1.6072,1.5784,1.5784,1.5784,1.5784,1.5784,1.5784,1.5784,1.5784,1.5784,1.5784,1.5784,1.5784,1.5698,1.5458,1.517,1.4921,1.4576,1.4282,1.4088,1.4088,1.4088,1.4088,1.4088,1.4088,1.3975,1.364,1.3606,1.3493,1.3247,1.3213,1.3086,1.2811,1.279,1.279,1.279,1.2509,1.2585,1.3193,1.2951,1.3047,1.3495,1.3568,1.36,1.3606,1.3872,1.3987,1.4007,1.3596,1.34,1.3379,1.3255,1.32,1.3229,1.3419,1.3689,1.3982,1.3982,1.4225,1.4548,1.4783,1.4538,1.4033,2.1109,2.1109,2.1109,2.1109,2.1109,2.1109,2.1109,2.1036,2.0982,2.0982,2.0728,2.0621,2.0822,2.0481,2.0281,2.0408,2.004,1.9679,1.9444,1.9424,1.9424,1.9424,1.9424,1.9424,1.9424,1.9424,1.9325,1.9232,1.9232,1.9085,1.8784,1.8497,1.825,1.7975,1.7722,1.7582,1.7582,1.7582,1.7582,1.7582,1.7582,1.7582,1.7582,1.7582,1.7582,1.7582,1.7582,1.7582,1.7569,1.7534,1.7507,1.74,1.676,1.6373,1.6099,1.5892,1.5784,1.5784,1.5784,1.5784,1.5784,1.5784,1.5784,1.5784,1.5784,1.5784,1.5698,1.5458,1.5331,1.511,1.4609,1.4449,1.4322,1.4122,1.4088,1.4088,1.4088,1.4088,1.4055,1.3968,1.3955,1.3921,1.3834,1.3634,1.3433,1.338,1.3186,1.3073,1.3073,1.2986,1.3019,1.32,1.3506,1.3728,1.3857,1.3872,1.396,1.4082,1.3942,1.3917,1.4054,1.3509,1.3336,1.3483,1.3426,1.3419,1.3433,1.374,1.3894,1.3982,1.3982,1.4318,1.4757,1.4399,1.4435,1.4604,2.1109,2.1109,2.1109,2.1109,2.1109,2.1109,2.1109,2.1109,2.1109,2.1109,2.0955,2.0915,2.1089,2.0788,2.0608,2.0675,2.014,1.9679,1.9444,1.9424,1.9424,1.9424,1.9424,1.9424,1.9424,1.9424,1.9424,1.9424,1.9424,1.9279,1.9092,1.8798,1.8504,1.8155,1.7903,1.7695,1.7582,1.7582,1.7582,1.7582,1.7582,1.7582,1.7582,1.7582,1.7582,1.7582,1.7582,1.7582,1.7582,1.7582,1.7508,1.74,1.6994,1.66,1.6239,1.6059,1.5919,1.5784,1.5784,1.5784,1.5784,1.5784,1.5784,1.5784,1.5784,1.5784,1.5731,1.5605,1.5478,1.5284,1.493,1.4776,1.4596,1.4309,1.4255,1.4215,1.4102,1.4088,1.4088,1.4088,1.4088,1.4088,1.4088,1.3928,1.3726,1.3613,1.3333,1.326,1.3333,1.3273,1.3353,1.3662,1.3879,1.4138,1.442,1.4427,1.4427,1.4454,1.4233,1.4268,1.4488,1.3813,1.3644,1.3872,1.374,1.3689,1.3711,1.4078,1.4245,1.4348,1.4223,1.4487,1.4856,1.4509,1.445,1.4523,2.1109,2.1109,2.1109,2.1109,2.1109,2.1109,2.1109,2.1109,2.1109,2.1109,2.1109,2.1109,2.1109,2.1109,2.1002,2.0735,2.018,1.972,1.9426,1.9379,1.9424,1.9424,1.9424,1.9424,1.9424,1.9424,1.9424,1.9424,1.9424,1.9424,1.9417,1.9065,1.8784,1.8517,1.8169,1.7929,1.7662,1.7662,1.7662,1.7662,1.7662,1.7649,1.7622,1.7622,1.7609,1.7582,1.7582,1.7582,1.7582,1.7582,1.746,1.7233,1.7206,1.6831,1.6346,1.6319,1.6099,1.5824,1.5824,1.5798,1.5784,1.5784,1.5784,1.5784,1.5784,1.5784,1.5784,1.5784,1.5618,1.5431,1.5398,1.5177,1.4948,1.4609,1.4536,1.4429,1.4162,1.4108,1.4088,1.4088,1.4088,1.4088,1.4088,1.4088,1.3975,1.3701,1.3434,1.34,1.3667,1.3474,1.3682,1.442,1.4214,1.442,1.5082,1.5131,1.4985,1.4733,1.4636,1.4751,1.4973,1.4307,1.4181,1.4452,1.4181,1.4026,1.4048,1.4416,1.4684,1.4878,1.4626,1.4706,1.4936,1.4878,1.4545,1.4106,2.1109,2.1109,2.1109,2.1109,2.1109,2.1109,2.1109,2.1109,2.1109,2.1109,2.1109,2.1109,2.1109,2.1109,2.1082,2.1022,2.0481,2.0013,1.9726,1.9492,1.9424,1.9424,1.9424,1.9424,1.9424,1.9424,1.9424,1.9424,1.9424,1.9424,1.9417,1.9065,1.8891,1.8818,1.8524,1.8357,1.8297,1.8297,1.8297,1.8297,1.8297,1.8156,1.7896,1.7896,1.7796,1.7582,1.7582,1.7582,1.7582,1.7582,1.7542,1.7501,1.7273,1.7112,1.6965,1.668,1.6406,1.6179,1.6179,1.6005,1.5784,1.5784,1.5784,1.5784,1.5784,1.5784,1.5784,1.5784,1.5731,1.5665,1.5438,1.5344,1.5211,1.4961,1.4669,1.4496,1.4436,1.4229,1.4088,1.4088,1.4088,1.4088,1.4088,1.4088,1.4139,1.4226,1.4158,1.4234,1.4469,1.4414,1.4435,1.4643,1.4761,1.4935,1.509,1.5264,1.5175,1.4832,1.4641,1.4433,1.4243,1.4077,1.4026,1.4137,1.432,1.4401,1.4423,1.4706,1.4842,1.4893,1.4827,1.4995,1.5221,1.4757,1.464,1.463,2.1109,2.1109,2.1109,2.1109,2.1109,2.1109,2.1109,2.1109,2.1109,2.1109,2.1109,2.1109,2.1109,2.1109,2.1056,2.0915,2.0494,2.0107,1.982,1.9533,1.9424,1.9424,1.9424,1.9424,1.9424,1.9424,1.9424,1.9424,1.9424,1.9424,1.9424,1.9205,1.9058,1.8918,1.8764,1.8617,1.849,1.849,1.849,1.849,1.849,1.8397,1.8243,1.8049,1.7896,1.7782,1.7635,1.7582,1.7582,1.7582,1.7582,1.7555,1.746,1.7313,1.7172,1.7018,1.6707,1.6446,1.6306,1.6159,1.6005,1.5818,1.5784,1.5784,1.5784,1.5784,1.5784,1.5784,1.5784,1.5785,1.5631,1.5605,1.5504,1.5217,1.4923,1.473,1.473,1.4362,1.4135,1.4282,1.4168,1.4088,1.4088,1.4208,1.4279,1.4398,1.4482,1.4608,1.4692,1.4692,1.4741,1.4908,1.5048,1.5131,1.5257,1.5347,1.5228,1.49,1.4772,1.4684,1.4662,1.4355,1.4296,1.445,1.4618,1.4692,1.4721,1.5002,1.5133,1.5133,1.5133,1.5236,1.5345,1.505,1.4933,1.4812,2.1109,2.1109,2.1109,2.1109,2.1109,2.1109,2.1109,2.1109,2.1109,2.1109,2.1109,2.1109,2.1109,2.1109,2.1009,2.0768,2.0481,2.0187,1.9893,1.9599,1.9477,1.943,1.9424,1.9424,1.9424,1.9424,1.9424,1.9424,1.9424,1.9424,1.9424,1.9424,1.9232,1.8998,1.8998,1.8865,1.8637,1.8637,1.8637,1.8637,1.8637,1.8611,1.8537,1.8235,1.8109,1.8029,1.7769,1.7629,1.7582,1.7582,1.7582,1.7582,1.7582,1.7467,1.728,1.728,1.7014,1.672,1.6426,1.6306,1.6206,1.5905,1.5784,1.5784,1.5784,1.5784,1.5784,1.5784,1.5784,1.5784,1.5784,1.5784,1.5752,1.5504,1.5224,1.5082,1.5082,1.462,1.4329,1.4569,1.4335,1.4142,1.4088,1.4279,1.4398,1.444,1.465,1.4783,1.4824,1.4824,1.4908,1.5131,1.5131,1.5215,1.5389,1.5389,1.525,1.4988,1.4988,1.5068,1.5248,1.4772,1.4692,1.4907,1.4966,1.4988,1.5009,1.5272,1.5389,1.5389,1.5389,1.5389,1.5389,1.5389,1.5185,1.482,2.1109,2.1109,2.1109,2.1109,2.1109,2.1109,2.1109,2.1109,2.1109,2.1109,2.1109,2.1109,2.1109,2.1109,2.1096,2.1056,2.0782,2.0494,2.0194,1.99,1.9633,1.9437,1.9424,1.9424,1.9424,1.9424,1.9424,1.9424,1.9424,1.9424,1.9424,1.9424,1.9403,1.9305,1.9305,1.9285,1.931,1.931,1.931,1.931,1.931,1.9092,1.8865,1.8824,1.8651,1.839,1.8035,1.7809,1.7582,1.7582,1.7582,1.7582,1.7582,1.7555,1.7522,1.7522,1.7373,1.7072,1.6727,1.6466,1.6206,1.5905,1.5784,1.5784,1.5784,1.5784,1.5784,1.5784,1.5784,1.5784,1.5784,1.5784,1.5764,1.5731,1.5524,1.5337,1.5337,1.5102,1.4908,1.4941,1.4643,1.4362,1.4115,1.4279,1.4482,1.465,1.4915,1.5131,1.5298,1.5305,1.5298,1.5347,1.5347,1.5389,1.5389,1.5389,1.5367,1.5323,1.5323,1.5094,1.4643,1.4794,1.4863,1.4922,1.5199,1.5323,1.533,1.5374,1.5389,1.5389,1.5389,1.5389,1.5389,1.5389,1.5185,1.4849,2.1109,2.1109,2.1109,2.1109,2.1109,2.1109,2.1109,2.1109,2.1109,2.1109,2.1109,2.1109,2.1109,2.1109,2.1109,2.1109,2.0842,2.0621,2.0488,2.0207,1.9913,1.9626,1.9606,1.9533,1.943,1.9424,1.9424,1.9424,1.9424,1.9424,1.9424,1.9424,1.9424,1.9424,1.9424,1.9424,1.9424,1.9424,1.9424,1.9424,1.9424,1.9292,1.9152,1.8985,1.8844,1.8691,1.8404,1.8096,1.7842,1.7842,1.7722,1.7582,1.7582,1.7582,1.7582,1.7582,1.7548,1.738,1.7085,1.6911,1.6703,1.6192,1.6079,1.6032,1.5818,1.5784,1.5784,1.5784,1.5784,1.5784,1.5784,1.5784,1.5784,1.5784,1.5585,1.5451,1.5618,1.5381,1.5218,1.5359,1.5092,1.4852,1.4721,1.4761,1.4831,1.4915,1.5131,1.5305,1.5389,1.5389,1.5389,1.5389,1.5389,1.5389,1.5389,1.5389,1.5389,1.5389,1.5389,1.5243,1.5006,1.5112,1.517,1.5185,1.533,1.5389,1.5389,1.5389,1.5389,1.5389,1.5389,1.5389,1.5389,1.5389,1.5301,1.5126]}]]